     2.10           OBSERVATION DATA    G (GPS)             RINEX VERSION / TYPE
teqc 2005May6 SOPAC 20050707 00:22:48UTC                    PGM / RUN BY / DATE
Linux 2.4.20-8|Pentium IV|gcc|Linux|486/DX+                 COMMENT
BIT 2 OF LLI FLAGS DATA COLLECTED UNDER A/S CONDITION       COMMENT
ROUND                                                       MARKER NAME
ROND                                                        MARKER NUMBER
Bob Dawson                                                  OBSERVER / AGENCY
0220240563 TRIMBLE 5700 2.01                                REC # / TYPE / VERS
11910056 TRM41249.00 NONE                                   ANT # / TYPE
 -2500355.0000 -4086224.0000  4199163.0000                  APPROX POSITION XYZ
        1.8000        0.0000        0.0000                  ANTENNA: DELTA H/E/N
     1     1                                                WAVELENGTH FACT L1/2
     6    L1    L2    C1    P2    P1    D1                  # / TYPES OF OBSERV
    15.0000                                                 INTERVAL
Northern California Height Modernization 2004               COMMENT
                                                            COMMENT
SOPAC - Scripps Orbit and Permanent Array Center            COMMENT
IGPP - Institute of Geophysics and Planetary Physics        COMMENT
SIO - Scripps Institution of Oceanography                   COMMENT
UCSD - University of California, San Diego                  COMMENT
                                                            COMMENT
email: archive@gpsmail.ucsd.edu                             COMMENT
ftp://garner.ucsd.edu                                       COMMENT
http://sopac.ucsd.edu                                       COMMENT
                                                            COMMENT
                                                            COMMENT
Approximate Lat, Lon : 41.427, -121.462                     COMMENT
                                                            COMMENT
SNR is mapped to RINEX snr flag value [0-9]                 COMMENT
L1 & L2: 2-19 dBHz = 1, 20-27 dBHz = 2, 28-31 dBHz = 3      COMMENT
32-35 dBHz = 4, 36-38 dBHz = 5, 39-41 dBHz = 6              COMMENT
42-44 dBHz = 7, 45-48 dBHz = 8, >= 49 dBHz = 9              COMMENT
  2004     9     3    14    56    0.0000000     GPS         TIME OF FIRST OBS
                                                            END OF HEADER
 04  9  3 14 56  0.0000000  0  8G 1G 3G11G14G15G19G22G25
   -222823.12157   -159540.61352  23951534.6884   23951532.4414

     98841.14157     60777.03552  24281732.3204   24281729.2194

   -209260.00058   -140966.12553  22867951.3674   22867946.8364
    -16506.19558
    -15302.65256                  20377408.7974   20377403.7624

    102963.53158     62998.67254  21896087.3444   21896084.0084
     34346.84858
     18596.58254                  22668121.2194   22668115.9654
     38496.37558
     20728.63755                  21892757.7274   21892752.4064

   -231003.44158   -159682.67653  23301103.7034   23301100.8754

 04  9  3 14 56 15.0000000  0  8G 1G 3G11G14G15G19G22G25
   -289738.60947   -211682.53942  23938801.3054   23938799.0984
      4461.0334
    126872.33247     82619.47342  24287066.4454   24287063.2274
     -1868.7464
   -268043.50048   -186771.45343  22856765.0234   22856760.6024
      3918.9004
    -20999.51649    -18803.96146  20376553.7974   20376548.9844
       299.5554
    132225.90649     85800.50044  21901655.7274   21901652.5474
     -1950.8254
     44233.84048     26300.71544  22670002.1024   22669997.2734
      -659.1334
     49391.37949     29218.22345  21894831.0084   21894825.7974
      -726.3344
   -297995.12148   -211883.95342  23288354.8204   23288353.0204
      4466.1124
 04  9  3 14 56 30.0000000  0  8G 1G 3G11G14G15G19G22G25
   -356484.01646   -263691.92642  23926099.7114   23926097.2894
      4449.6944
    155038.87946    104567.41442  24292426.4534   24292423.2114
     -1877.7704
   -326628.01648   -232421.72343  22845616.6564   22845612.7074
      3905.6344
    -25256.25448    -22120.91046  20375743.5164   20375739.1414
       283.7834
    161698.05148    108765.79344  21907263.7974   21907260.6954
     -1964.8104
     54354.62548     34187.00844  22671928.3204   22671923.2624
      -674.7194
     60455.07449     37839.26645  21896936.3444   21896931.1054
      -737.5804
   -364823.89148   -263958.28543  23275638.1094   23275635.8524
      4455.2514
 04  9  3 14 56 45.0000000  0  8G 1G 3G11G14G15G19G22G25
   -423049.09847   -315560.80542  23913433.2664   23913430.5904
      4437.6724
    183350.43846    126628.31642  24297813.8054   24297811.0124
     -1887.4374
   -385003.19548   -277908.88343  22834508.9534   22834504.4964
      3891.6794
    -29266.78148    -25246.01246  20374980.0554   20374975.6094
       267.3684
    191389.67248    131902.08244  21912914.0704   21912911.5204
     -1979.4414
     64718.80948     42262.97744  22673900.4144   22673895.6724
      -690.9464
     71697.37549     46599.47345  21899075.9224   21899070.4924
      -749.4874
   -431479.34048   -315897.57442  23262954.1414   23262951.3054
      4443.6974
 04  9  3 14 57  0.0000000  0  8G 1G 3G11G14G15G19G22G25
   -489427.67646   -367284.37942  23900801.3054   23900798.9494
      4425.2394
    211812.70346    148806.66442  24303230.0004   24303227.1884
     -1897.4844
   -443162.75448   -323228.02743  22823440.9454   22823436.7384
      3877.3044
    -33025.19948    -28174.65646  20374264.6804   20374260.3324
       250.5614
    221306.59848    155213.95344  21918606.9694   21918604.4654
     -1994.4624
     75332.34448     50533.23444  22675920.3914   22675914.9344
      -707.5694
     83124.44548     55503.67246  21901250.3594   21901245.2304
      -761.8054
   -497955.05148   -367696.77342  23250303.7894   23250300.9264
      4431.7144
 04  9  3 14 57 15.0000000  0  8G 1G 3G11G14G15G19G22G25
   -555620.51246   -418863.21542  23888205.4844   23888202.7384
      4412.8564
    240424.36347    171101.44142  24308674.8284   24308672.0984
     -1907.4444
   -501107.32448   -368379.62943  22812414.4144   22812410.0984
      3862.9714
    -36532.68448    -30907.77046  20373597.6414   20373593.1214
       233.8324
    251447.62549    178700.44544  21924342.9144   21924340.3754
     -2009.4024
     86193.81348     58996.69544  22677986.7584   22677981.9614
      -724.0984
     94735.26649     64551.03945  21903459.9454   21903454.7114
      -774.0554
   -564251.73848   -419356.51242  23237688.1484   23237685.5164
      4419.7794
 04  9  3 14 57 30.0000000  0  7G 1G11G14G15G19G22G25
   -621630.29347   -470299.39842  23875644.2664   23875641.7034
      4400.6524
   -558839.49648   -413365.73843  22801428.1174   22801423.6724
      3848.8114
    -39792.22348    -33447.68447  20372977.9064   20372972.8324
       217.3034
    281809.65649    202359.14544  21930120.2194   21930118.0164
     -2024.1354
     97300.07448     67650.90644  22680100.4224   22680095.3914
      -740.4174
    106526.85949     73739.26645  21905703.6094   21905698.3984
      -786.1064
   -630371.82048   -470878.61343  23225106.0394   23225103.4024
      4408.0054
 04  9  3 14 57 45.0000000  0  7G 1G11G14G15G19G22G25
   -687462.95347   -521597.61342  23863116.5784   23863113.9344
      4388.8444
   -616365.11748   -458190.90643  22790481.8054   22790477.0004
      3835.0414
    -42810.08649    -35799.28146  20372403.4144   20372398.8634
       201.1914
    312386.45748    226185.19944  21935939.1254   21935936.3954
     -2038.4534
    108644.76648     76490.91044  22682259.2734   22682254.2854
      -756.3134
    118493.17649     83063.65245  21907981.0164   21907975.3324
      -797.7544
   -696320.93448   -522267.50043  23212556.4454   23212553.5554
      4396.6084
 04  9  3 14 58  0.0000000  0  7G 1G11G14G15G19G22G25
   -753123.15247   -572761.41442  23850621.6484   23850619.7774
      4377.3474
   -673688.57448   -502858.54343  22779573.4534   22779568.8404
      3821.5644
    -45591.27749    -37966.44947  20371874.2814   20371869.5124
       185.4134
    343172.99248    250174.68044  21941797.7734   21941795.3954
     -2052.4364
    120222.83247     85512.75844  22684462.4534   22684457.5124
      -771.8714
    130629.37949     92520.41846  21910290.2344   21910284.7934
      -809.0804
   -762103.54748   -573526.65243  23200038.0234   23200035.1454
      4385.5084
 04  9  3 14 58 15.0000000  0  7G 1G11G14G15G19G22G25
   -818616.07047   -623794.85942  23838159.1804   23838156.8524
      4366.1954
   -730815.05948   -547372.68743  22768703.1414   22768698.0474
      3808.4324
    -48141.37548    -39953.55146  20371388.6174   20371383.8984
       170.0074
    374163.56349    274323.15644  21947695.0234   21947692.3524
     -2066.0384
    132028.43048     94711.91044  22686709.3204   22686704.3674
      -787.0404
    142930.09049    102105.36745  21912630.9924   21912626.2464
      -820.0474
   -827724.73448   -624660.02743  23187551.1954   23187548.5474
      4374.7464
 04  9  3 14 58 30.0000000  0  7G 1G11G14G15G19G22G25
   -883946.86747   -674701.98442  23825726.3524   23825724.5554
      4355.3864
   -787749.54348   -591737.23843  22757868.8284   22757863.1524
      3795.6324
    -50466.08248    -41765.01246  20370946.3054   20370941.6214
       154.9804
    405352.65248    298626.32444  21953630.0704   21953627.3164
     -2079.2734
    144056.03548    104084.03944  22688998.4694   22688992.9064
      -801.8404
    155389.95349    111814.32845  21915002.1724   21914996.9454
      -830.6584
   -893189.58648   -675671.55143  23175093.4064   23175090.8444
      4364.3234
 04  9  3 14 58 45.0000000  0  7G 1G11G14G15G19G22G25
   -949121.21947   -725487.18742  23813324.8364   23813323.1414
      4344.9574
   -844497.68048   -635956.56643  22747069.4774   22747064.3794
      3783.2094
    -52571.32048    -43405.46946  20370545.8134   20370541.0634
       140.3494
    436734.16048    323079.41844  21959601.7974   21959598.9884
     -2092.1014
    156299.33248    113624.25844  22691327.5394   22691322.7274
      -816.2204
    168002.99649    121642.65245  21917402.4304   21917396.7074
      -840.8704
   -958503.63348   -726565.58243  23162664.7194   23162661.9774
      4354.2704
 04  9  3 14 59  0.0000000  0  7G 1G11G14G15G19G22G25
  -1014145.41047   -776155.38742  23800951.6484   23800949.5354
      4334.9464
   -901065.50448   -680035.39543  22736305.3204   22736299.8794
      3771.1884
    -54463.73448    -44880.09046  20370185.5944   20370180.7114
       126.1614
    468301.50448    347677.31644  21965608.8284   21965605.9454
     -2104.4904
    168751.68848    123327.37544  22693697.8204   22693691.6764
      -830.1574
    180762.78948    131585.33645  21919830.6024   21919825.6254
      -850.6534
  -1023672.84848   -777346.76243  23150263.3204   23150260.3484
      4344.6144
 04  9  3 14 59 15.0000000  0  7G 1G11G14G15G19G22G25
  -1079023.59047   -826709.80942  23788605.5004   23788603.1914
      4325.2124
   -957457.14548   -723976.93443  22725574.3204   22725569.1764
      3759.4434
    -56147.81648    -46192.37546  20369865.1884   20369860.4804
       112.2724
    500050.03949    372416.42244  21971650.3134   21971647.5664
     -2116.5694
    181408.41048    133189.73444  22696105.7194   22696100.3954
      -843.7824
    193665.08648    141639.05945  21922285.4614   21922280.3164
      -860.1534
  -1088701.11748   -828018.11343  23137888.6254   23137885.5124
      4335.2184
 04  9  3 14 59 30.0000000  0  7G 1G11G14G15G19G22G25
  -1143762.62947   -877155.81642  23776285.8284   23776284.0514
      4315.9364
  -1013679.37548   -767786.48043  22714875.6414   22714870.4654
      3748.1494
    -57630.84848    -47347.99246  20369582.8284   20369578.4304
        98.8694
    531972.46948    397291.01244  21977724.9304   21977722.3794
     -2128.1624
    194262.12948    143205.59844  22698552.0084   22698546.3594
      -856.9154
    206702.69548    151798.21945  21924766.2424   21924761.5864
      -869.1744
  -1153595.34848   -878585.02743  23125539.7894   23125536.7854
      4326.2824
 04  9  3 14 59 45.0000000  0  7G 1G11G14G15G19G22G25
  -1208366.26647   -927496.30942  23763992.1884   23763989.5744
      4306.9094
  -1069735.89848   -811466.89843  22704208.2814   22704203.7734
      3737.1024
    -58917.00849    -48350.20347  20369338.2194   20369334.1604
        85.7444
    564064.66848    422297.89144  21983832.3594   21983829.2934
     -2139.4804
    207308.59448    153371.64544  22701034.5164   22701028.8054
      -869.7644
    219871.74248    162059.79745  21927272.6954   21927267.6484
      -877.9364
  -1218358.93448   -929050.12543  23113215.5634   23113212.7274
      4317.5724
 04  9  3 15  0  0.0000000  0  7G 1G11G14G15G19G22G25
  -1272839.47747   -977735.19942  23751723.0554   23751721.4454
      4298.2144
  -1125631.48048   -855021.89543  22693571.4224   22693567.1334
      3726.3724
    -60011.60949    -49203.15247  20369129.6884   20369125.7074
        72.9734
    596321.27749    447432.89144  21989970.4304   21989967.3054
     -2150.4414
    220542.38348    163683.65244  22703553.4384   22703547.3794
      -882.2534
    233166.93849    172419.67245  21929802.3914   21929797.7074
      -886.3464
  -1282996.75048   -979417.23043  23100915.5634   23100912.3484
      4309.1884
 04  9  3 15  0 15.0000000  0  7G 1G11G14G15G19G22G25
  -1337186.54347  -1027875.75842  23739478.0784   23739476.5594
      4289.8044
  -1181370.05548   -898454.55143  22682965.0164   22682960.7304
      3715.9054
    -60919.23048    -49910.39547  20368957.2734   20368952.7154
        60.5084
    628737.63348    472692.36744  21996139.1954   21996136.2234
     -2161.0904
    233958.79748    174137.99244  22706106.3364   22706100.0824
      -894.4284
    246584.00448    182874.51645  21932355.5394   21932351.0664
      -894.4714
  -1347512.78548  -1029689.44543  23088638.3984   23088635.1174
      4301.0694
 04  9  3 15  0 30.0000000  0  7G 1G11G14G15G19G22G25
  -1401410.29747  -1077920.26642  23727257.6254   23727254.2814
      4281.5844
  -1236954.49248   -941767.10943  22672387.8364   22672383.2544
      3705.6294
    -61643.06249    -50474.42647  20368819.8364   20368814.8324
        48.2554
    661310.46148    498073.77044  22002337.8444   22002334.7304
     -2171.5224
    247554.44148    184731.96544  22708693.4224   22708687.5394
      -906.3764
    260119.91848    193421.97745  21934931.6254   21934926.7154
      -902.3944
  -1411909.87548  -1079868.97743  23076384.1024   23076380.9304
      4293.1394
 04  9  3 15  0 45.0000000  0  7G 1G11G14G15G19G22G25
  -1465515.58247  -1127872.43442  23715058.2274   23715056.2274
      4273.6864
  -1292389.57848   -984963.27743  22661838.8444   22661833.8284
      3695.6724
    -62188.43048    -50899.39547  20368715.6804   20368711.1334
        36.3584
    694034.49249    523572.98844  22008564.4844   22008562.0784
     -2181.6024
    261324.09047    195461.53944  22711314.1484   22711307.8164
      -917.9774
    273769.55548    204058.03945  21937529.0234   21937523.6254
      -909.9764
  -1476192.64548  -1129959.43043  23064151.3134   23064147.8754
      4285.5184
 04  9  3 15  1  0.0000000  0  7G 1G11G14G15G19G22G25
  -1529505.31247  -1177734.56242  23702881.5084   23702878.9804
      4265.9824
  -1347678.01248  -1028045.18744  22651317.5314   22651313.1954
      3685.8964
    -62558.57449    -51187.82847  20368645.1024   20368640.4454
        24.6764
    726906.34048    549187.39144  22014819.9384   22014817.3914
     -2191.4574
    275264.18048    206323.92244  22713966.7734   22713961.2234
      -929.3394
    287529.85948    214780.34045  21940147.6334   21940142.4494
      -917.3544
  -1540363.85948  -1179962.94143  23051939.6954   23051936.8754
      4278.0814
 04  9  3 15  1 15.0000000  0  7G 1G11G14G15G19G22G25
  -1593382.85547  -1227509.28542  23690725.5634   23690722.8404
      4258.5034
  -1402823.13348  -1071015.40644  22640823.8284   22640819.4224
      3676.3414
    -62757.18448    -51342.59847  20368607.6644   20368602.8754
        13.2414
    759922.26649    574914.05544  22021102.5084   22021100.0904
     -2201.0624
    289370.92248    217316.16844  22716650.8054   22716645.1174
      -940.4494
    301397.23048    225586.07045  21942786.7584   21942781.5824
      -924.4914
  -1604426.56648  -1229881.92243  23039749.1954   23039746.0004
      4270.8474
 04  9  3 15  1 30.0000000  0  7G 1G11G14G15G19G22G25
  -1657149.98447  -1277197.93742  23678591.3524   23678589.5824
      4251.1424
  -1457826.76648  -1113875.38744  22630356.6644   22630352.4964
      3666.9094
    -62786.46949    -51365.43046  20368601.6254   20368597.3524
         1.9524
    793080.14549    600751.32444  22027412.5474   22027409.8674
     -2210.5254
    303641.93848    228436.41844  22719366.7194   22719361.1214
      -951.4014
    315369.64549    236473.65245  21945445.5084   21945440.2274
      -931.4944
  -1668382.48848  -1279717.67643  23027578.8134   23027575.5234
      4263.7284
 04  9  3 15  1 45.0000000  0  7G 1G11G14G15G19G22G25
  -1720809.57847  -1326802.81642  23666477.4384   23666474.4304
      4243.9734
  -1512691.37948  -1156627.04344  22619916.6254   22619912.2584
      3657.6414
    -62649.62549    -51258.80546  20368627.6804   20368623.5554
        -9.1234
    826376.67649    626696.64844  22033748.4694   22033746.0204
     -2219.7694
    318074.00847    239682.17644  22722112.5164   22722107.8444
      -962.1384
    329444.07849    247440.72745  21948123.4844   21948118.5864
      -938.2964
  -1732234.37548  -1329472.37143  23015427.5704   23015425.4304
      4256.7924
 04  9  3 15  2  0.0000000  0  7G 1G11G14G15G19G22G25
  -1784364.53947  -1376326.14142  23654383.1334   23654380.4384
      4236.9974
  -1567419.77348  -1199272.54344  22609502.3204   22609498.0594
      3648.5604
    -62349.97348    -51025.31646  20368685.1414   20368680.3794
       -19.9774
    859808.52348    652747.41044  22040110.6174   22040108.0984
     -2228.7904
    332663.73448    251050.77344  22724888.9454   22724884.0044
      -972.6484
    343617.48048    258484.91845  21950820.5164   21950815.7074
      -944.8934
  -1795984.75448  -1379147.94943  23003296.6724   23003294.5084
      4250.0254
 04  9  3 15  2 15.0000000  0  7G 1G11G14G15G19G22G25
  -1847816.52347  -1425769.23842  23642308.0784   23642305.5434
      4230.1324
  -1622013.35949  -1241813.00444  22599113.3674   22599109.1334
      3639.5724
    -61889.51249    -50666.52346  20368772.5704   20368768.0664
       -30.6974
    893373.67248    678902.04744  22046497.7114   22046495.1994
     -2237.6774
    347408.98048    262540.55944  22727694.8524   22727690.1254
      -983.0164
    357888.07449    269604.84445  21953536.2584   21953531.2114
      -951.3734
  -1859635.01248  -1428745.53943  22991184.2664   22991182.1564
      4243.3514
 04  9  3 15  2 30.0000000  0  7G 1G11G14G15G19G22G25
  -1911168.16447  -1475134.14142  23630252.9384   23630250.5234
      4223.4434
  -1676474.91849  -1284250.59444  22588749.7194   22588745.5514
      3630.7714
    -61271.38349    -50184.87546  20368890.2034   20368885.6094
       -41.2094
    927069.05948    705158.16044  22052909.5474   22052907.4614
     -2246.3594
    362306.53147    274149.00844  22730529.6884   22730525.2274
      -993.1704
    372252.79349    280798.11345  21956269.9614   21956264.6684
      -957.6484
  -1923187.75848  -1478267.12543  22979090.3284   22979088.2734
      4236.8504
 04  9  3 15  2 45.0000000  0  7G 1G11G14G15G19G22G25
  -1974421.23847  -1524422.23042  23618215.8134   23618213.7234
      4216.8724
  -1730805.94948  -1326586.46944  22578411.1334   22578406.6094
      3622.0694
    -60497.59049    -49581.93446  20369037.3984   20369033.3054
       -51.5864
    960892.52048    731514.08244  22059346.1334   22059343.8714
     -2254.8974
    377354.21948    285874.46144  22733393.1724   22733387.3754
     -1003.1794
    386709.83249    292063.32845  21959020.9064   21959015.7424
      -963.8034
  -1986644.53548  -1527713.96143  22967015.7034   22967012.6214
      4230.4524
 04  9  3 15  3  0.0000000  0  7G 1G11G14G15G19G22G25
  -2037577.23847  -1573634.68042  23606197.9694   23606195.5354
      4210.4004
  -1785007.91448  -1368821.76644  22568096.4694   22568092.5434
      3613.4644
    -59570.03949    -48859.16846  20369213.7504   20369209.6804
       -61.8374
    994842.12148    757968.28544  22065806.3674   22065804.2504
     -2263.3074
    392549.94148    297715.27344  22736285.1954   22736279.4224
     -1013.0484
    401257.50849    303399.16445  21961789.1644   21961783.8524
      -969.8454
  -2050006.63348  -1577087.00043  22954957.8524   22954954.9184
      4224.1404
 04  9  3 15  3 15.0000000  0  7G 1G11G14G15G19G22G25
  -2100637.82446  -1622772.82042  23594197.8134   23594196.1884
      4204.0394
  -1839082.49648  -1410957.81244  22557806.5314   22557802.1684
      3604.9724
    -58490.80149    -48018.21947  20369418.9774   20369415.0004
       -71.9494
   1028915.86348    784519.23444  22072290.3524   22072287.8364
     -2271.5834
    407891.57448    309669.77344  22739204.3444   22739199.2934
     -1022.7764
    415893.92249    314804.14145  21964574.4304   21964569.0904
      -975.7614
  -2113275.59848  -1626387.48043  22942917.7734   22942915.0864
      4217.9314
 04  9  3 15  3 30.0000000  0  7G 1G11G14G15G19G22G25
  -2163605.40646  -1671838.44942  23582215.6024   23582213.9964
      4197.8394
  -1893031.78148  -1452996.21544  22547540.0084   22547536.1684
      3596.6194
    -57262.63349    -47061.22346  20369652.9144   20369648.6564
       -81.8784
   1063110.90248    811164.68844  22078797.7584   22078794.8714
     -2279.6694
    423376.22748    321735.70344  22742151.1094   22742146.3324
     -1032.3104
    430616.56649    326276.32045  21967375.8674   21967371.0394
      -981.5104
  -2176453.64148  -1675617.10243  22930895.6724   22930892.9344
      4211.8704
 04  9  3 15  3 45.0000000  0  7G 1G11G14G15G19G22G25
  -2226481.74647  -1720832.98842  23570249.9774   23570249.2734
      4191.7564
  -1946857.39548  -1494938.25044  22537297.3364   22537293.4964
      3588.3744
    -55887.62949    -45989.78946  20369914.6094   20369910.5004
       -91.6674
   1097425.00848    837902.93044  22085327.4844   22085324.3794
     -2287.6074
    439001.66848    333911.34044  22745124.9224   22745119.5204
     -1041.6964
    445423.48449    337814.15645  21970193.6254   21970188.4064
      -987.1284
  -2239542.29748  -1724777.07043  22918890.0634   22918887.1954
      4205.9104
 04  9  3 15  4  0.0000000  0  7G 1G11G14G15G19G22G25
  -2289268.06647  -1769757.37942  23558302.3364   23558300.9414
      4185.7554
  -2000560.56648  -1536784.87144  22527078.1024   22527074.2894
      3580.2114
    -54367.46549    -44805.25847  20370204.1094   20370199.8714
      -101.3444
   1131856.59448    864732.71144  22091879.6804   22091877.3204
     -2295.4394
    454766.13347    346195.32444  22748124.0634   22748119.6174
     -1050.9644
    460313.19549    349416.50845  21973027.2504   21973022.0744
      -992.6474
  -2302542.64548  -1773868.24643  22906901.3674   22906898.7074
      4200.0234
 04  9  3 15  4 15.0000000  0  7G 1G11G14G15G19G22G25
  -2351965.72747  -1818612.69542  23546372.0864   23546370.6644
      4179.8444
  -2054142.48848  -1578537.02344  22516881.7424   22516877.6414
      3572.1284
    -52703.90249    -43508.99247  20370520.8594   20370516.4884
      -110.9044
   1166403.88748    891652.64544  22098454.0634   22098451.5354
     -2303.1534
    470667.75047    358586.16844  22751150.0394   22751145.5824
     -1060.1084
    475284.14549    361082.16045  21975876.2114   21975870.8204
      -998.0634
  -2365455.89548  -1822891.53543  22894929.4454   22894926.5164
      4194.2174
 04  9  3 15  4 30.0000000  0  7G 1G11G14G15G19G22G25
  -2414575.45347  -1867399.48843  23534457.9774   23534456.5084
      4173.9824
  -2107603.67648  -1620195.09044  22506708.2344   22506704.9184
      3564.0794
    -50897.92249    -42101.74247  20370864.2734   20370859.9064
      -120.3994
   1201065.77048    918661.87943  22105049.6174   22105046.9224
     -2310.7924
    486705.32447    371082.97744  22754202.0234   22754197.8014
     -1069.1724
    490335.44549    372810.43445  21978740.1414   21978735.3404
     -1003.4204
  -2428282.60248  -1871847.39843  22882974.2114   22882971.1294
      4188.4474
 04  9  3 15  4 45.0000000  0  7G 1G11G14G15G19G22G25
  -2477098.53148  -1916118.75842  23522560.1094   23522558.3674
      4168.2054
  -2160945.40648  -1661760.07844  22496557.4384   22496553.7734
      3556.1154
    -48951.23049    -40584.84847  20371234.8524   20371230.1724
      -129.7794
   1235840.58648    945759.12143  22111667.1954   22111664.0084
     -2318.3214
    502877.11348    383684.35944  22757279.5554   22757274.8324
     -1078.1194
    505465.69149    384600.21545  21981619.3834   21981614.1484
     -1008.6834
  -2491023.85248  -1920736.66443  22871034.5784   22871032.3874
      4182.7504
 04  9  3 15  5  0.0000000  0  7G 1G11G14G15G19G22G25
  -2539536.21948  -1964771.48443  23510679.1954   23510677.1094
      4162.5124
  -2214168.69148  -1703232.75844  22486429.6884   22486425.8714
      3548.2194
    -46865.51649    -38959.62146  20371631.4774   20371627.1134
      -139.0484
   1270726.68448    972943.06643  22118305.4144   22118302.9574
     -2325.7404
    519181.43848    396389.00044  22760381.9924   22760377.2234
     -1086.9554
    520673.47749    396450.42245  21984513.7424   21984508.5354
     -1013.8524
  -2553680.73448  -1969560.18443  22859111.7274   22859108.9694
      4177.1264
 04  9  3 15  5 15.0000000  0  7G 1G11G14G15G19G22G25
  -2601889.08248  -2013358.11743  23498813.4534   23498811.1604
      4156.8584
  -2267274.05148  -1744613.55944  22476324.4064   22476320.1764
      3540.3574
    -44641.78149    -37226.84846  20372054.7034   20372050.5044
      -148.2494
   1305722.92248   1000212.82443  22124965.3594   22124962.2504
     -2333.0834
    535617.08648    409195.97344  22763510.2894   22763505.6094
     -1095.7104
    535957.93049    408360.36345  21987422.0784   21987417.1334
     -1018.9644
  -2616253.68748  -2018318.31643  22847204.4304   22847201.5314
      4171.5304
 04  9  3 15  5 30.0000000  0  7G 1G11G14G15G19G22G25
  -2664158.30948  -2061879.58243  23486963.9064   23486961.3874
      4151.2824
  -2320262.52348  -1785903.27344  22466240.9614   22466236.8094
      3532.5654
    -42281.43749    -35387.63746  20372503.8444   20372499.8954
      -157.3564
   1340827.80548   1027567.27043  22131645.4064   22131642.7384
     -2340.3264
    552182.37948    422103.97344  22766662.3984   22766657.4694
     -1104.3534
    551317.65649    420328.96945  21990344.6804   21990340.0784
     -1023.9824
  -2678743.59048  -2067011.73043  22835313.3674   22835309.9574
      4165.9934
 04  9  3 15  5 45.0000000  0  7G 1G11G14G15G19G22G25
  -2726346.38348  -2110337.80943  23475130.5234   23475127.5594
      4145.8724
  -2373136.44148  -1827103.73044  22456179.2734   22456175.3914
      3524.9284
    -39787.37549    -33444.21946  20372978.5314   20372974.5824
      -166.2714
   1376038.47748   1055004.12943  22138346.1254   22138343.7344
     -2347.3784
    568874.40648    435110.73044  22769839.0474   22769833.5434
     -1112.8024
    566750.04749    432354.18445  21993281.5314   21993276.7344
     -1028.8264
  -2741152.71548  -2115642.18743  22823436.8284   22823434.1294
      4160.6084
 04  9  3 15  6  0.0000000  0  7G 1G11G14G15G19G22G25
  -2788453.08648  -2158732.62943  23463311.5234   23463309.0634
      4140.4474
  -2425895.53948  -1868214.71944  22446139.6334   22446135.5704
      3517.2734
    -37159.69149    -31396.68746  20373478.4694   20373474.2544
      -175.1794
   1411354.68048   1082523.21544  22145066.4454   22145064.1884
     -2354.4144
    585692.83648    448215.96544  22773039.2734   22773034.2074
     -1121.2294
    582255.11349    444436.03545  21996232.1484   21996226.8444
     -1033.6714
  -2803480.68748  -2164209.43443  22811576.3284   22811573.8324
      4155.1984
 04  9  3 15  6 15.0000000  0  7G 1G11G14G15G19G22G25
  -2850480.14548  -2207065.37943  23451507.9844   23451506.2664
      4135.1374
  -2478541.30148  -1909237.39144  22436121.6564   22436117.1994
      3509.7174
    -34400.59049    -29246.75046  20374003.4454   20373999.6454
      -183.9404
   1446774.33648   1110122.91844  22151806.5164   22151804.1414
     -2361.3104
    602635.43848    461417.98444  22776263.0084   22776257.9774
     -1129.5074
    597831.03949    456573.09845  21999195.5394   21999190.9614
     -1038.3954
  -2865729.05148  -2212714.62143  22799730.7274   22799728.0704
      4149.8914
 04  9  3 15  6 30.0000000  0  7G 1G11G14G15G19G22G25
  -2912427.63748  -2255336.13343  23439720.2504   23439718.1484
      4129.8334
  -2531073.74248  -1950171.78144  22426124.3914   22426120.4344
      3502.1634
    -31510.44549    -26994.69947  20374553.6884   20374549.6454
      -192.6764
   1482296.98448   1137802.86743  22158566.1644   22158563.5944
     -2368.1774
    619701.73447    474716.37544  22779510.0704   22779505.7034
     -1137.7534
    613477.56349    468765.18045  22002173.2814   22002168.8164
     -1043.1024
  -2927897.77048  -2261157.76643  22787900.5784   22787898.0554
      4144.5814
 04  9  3 15  6 45.0000000  0  7G 1G11G14G15G19G22G25
  -2974296.23048  -2303545.41442  23427946.5554   23427944.6644
      4124.5734
  -2583493.33648  -1991018.21944  22416149.6254   22416145.2624
      3494.6404
    -28490.37549    -24641.41846  20375128.3284   20375124.3364
      -201.3384
   1517921.53148   1165562.22743  22165345.5944   22165342.6954
     -2374.9704
    636890.55947    488110.24244  22782781.4454   22782776.8834
     -1145.9224
    629193.78549    481011.56345  22005164.3284   22005159.4414
     -1047.7484
  -2989987.18448  -2309539.12143  22776085.3524   22776082.3524
      4139.2944
 04  9  3 15  7  0.0000000  0  7G 1G11G14G15G19G22G25
  -3036087.27348  -2351694.27343  23416187.9614   23416186.4654
      4119.4034
  -2635801.33649  -2031777.69944  22406195.8984   22406191.8094
      3487.2004
    -25341.98049    -22188.12946  20375727.5474   20375723.6094
      -209.8934
   1553646.21548   1193399.62544  22172143.8284   22172140.9614
     -2381.6464
    654200.04747    501598.14144  22786075.3524   22786070.7624
     -1153.9664
    644978.25449    493311.14145  22008168.3444   22008163.2384
     -1052.2984
  -3051998.37548  -2357859.51643  22764285.0394   22764282.5124
      4134.0794
 04  9  3 15  7 15.0000000  0  7G 1G11G14G15G19G22G25
  -3097800.14847  -2399782.19942  23404444.4144   23404443.8524
      4114.1924
  -2687996.96949  -2072449.62144  22396263.2344   22396259.1844
      3479.7094
    -22065.11349    -19634.73447  20376351.3674   20376346.8674
      -218.4584
   1589471.22748   1221315.19543  22178960.9454   22178958.4534
     -2388.3344
    671630.37947    515180.18444  22789392.8914   22789388.3794
     -1162.0224
    660831.45749    505664.26245  22011184.7114   22011179.7664
     -1056.8804
  -3113930.71148  -2406118.45343  22752499.0704   22752496.7504
      4128.8224
 04  9  3 15  7 30.0000000  0  7G 1G11G14G15G19G22G25
  -3159436.03148  -2447810.13742  23392715.8364   23392714.8404
      4109.0594
  -2740081.36348  -2113034.88344  22386352.2584   22386348.1684
      3472.2934
    -18661.31249    -16982.43447  20376998.5944   20376994.6604
      -226.9204
   1625395.04748   1249307.74643  22185797.0944   22185794.4264
     -2394.9214
    689179.75448    528854.99244  22792732.3754   22792727.7624
     -1169.9584
    676751.92649    518069.81345  22014214.3054   22014209.9534
     -1061.3654
  -3175785.19148  -2454316.73843  22740728.6414   22740726.5234
      4123.6324
 04  9  3 15  7 45.0000000  0  7G 1G11G14G15G19G22G25
  -3220995.50048  -2495778.54742  23381001.4144   23380999.9614
      4103.9654
  -2792054.86748  -2153533.71144  22376461.9144   22376457.5664
      3464.9004
    -15131.47749    -14231.92647  20377670.2814   20377666.6054
      -235.3224
   1661416.62148   1277376.47344  22192651.8914   22192649.8484
     -2401.4384
    706847.12947    542621.75844  22796094.4774   22796089.2584
     -1177.8254
    692738.90649    530527.17645  22017256.3984   22017251.9144
     -1065.7994
  -3237562.16048  -2502454.60943  22728973.3524   22728970.5744
      4118.4654
 04  9  3 15  8  0.0000000  0  7G 1G11G14G15G19G22G25
  -3282479.47748  -2543688.13343  23369301.4384   23369300.0204
      4098.9324
  -2843918.33648  -2193946.80544  22366592.2034   22366588.2074
      3457.5654
    -11476.86349    -11384.18047  20378365.6804   20378361.9144
      -243.6414
   1697534.73448   1305520.42244  22199524.9614   22199522.5434
     -2407.8744
    724631.11347    556479.37544  22799478.2584   22799473.5784
     -1185.5994
    708791.32849    543035.54345  22020311.3984   22020306.3874
     -1070.1614
  -3299262.32048  -2550532.62943  22717231.7194   22717229.9064
      4113.3444
 04  9  3 15  8 15.0000000  0  7G 1G11G14G15G19G22G25
  -3343888.09448  -2591538.98042  23357615.3204   23357613.6054
      4093.9084
  -2895671.78948  -2234274.17244  22356744.0704   22356739.9884
      3450.2304
     -7698.08249     -8439.68746  20379085.0164   20379081.0234
      -251.9194
   1733748.84448   1333739.18044  22206416.3594   22206413.7384
     -2414.2744
    742531.05148    570427.35944  22802884.8674   22802879.8794
     -1193.3294
    724908.93049    555594.69945  22023378.3284   22023373.2344
     -1074.5074
  -3360885.59848  -2598550.74643  22705505.5394   22705502.6524
      4108.2184
 04  9  3 15  8 30.0000000  0  7G 1G11G14G15G19G22G25
  -3405222.31247  -2639331.87542  23345943.6484   23345941.2424
      4088.9484
  -2947316.08648  -2274516.48444  22346916.4534   22346911.8834
      3442.9534
     -3796.52349     -5399.52346  20379827.1724   20379823.5124
      -260.1044
   1770057.39148   1362031.53544  22213325.8204   22213323.5164
     -2420.5704
    760545.37548    584464.46944  22806312.4774   22806307.9344
     -1200.9554
    741090.46949    568203.66045  22026457.3054   22026452.4654
     -1078.7694
  -3422432.83248  -2646509.60943  22693793.5474   22693790.1604
      4103.1494
 04  9  3 15  8 44.9990000  0  7G 1G11G14G15G19G22G25
  -3466478.55147  -2687063.98442  23334286.4094   23334284.3664
      4083.7494
  -2998848.20749  -2314671.39544  22337110.4484   22337105.9334
      3435.4754
       226.69549     -2264.55546  20380592.8084   20380588.9134
      -268.2154
   1806457.03948   1390394.85944  22220252.2614   22220250.3744
     -2426.6434
    778672.10248    598589.17644  22809761.8624   22809757.2574
     -1208.4484
    757334.14849    580861.07445  22029548.9724   22029543.3354
     -1082.9124
  -3483900.27748  -2694406.30943  22682096.6124   22682093.2844
      4097.8304
 04  9  3 15  8 59.9990000  0  7G 1G11G14G15G19G22G25
  -3527664.49247  -2734741.32842  23322644.0034   23322640.3784
      4079.0634
  -3050274.30549  -2354743.68044  22327324.2924   22327320.0584
      3428.4074
      4372.25849       965.73846  20381381.8704   20381377.6674
      -276.3714
   1842952.77348   1418833.06644  22227197.1674   22227194.8154
     -2433.0494
    796913.48847    612803.21144  22813232.9094   22813228.4874
     -1216.0924
    773642.42249    593568.78144  22032652.1834   22032646.9014
     -1087.2184
  -3545295.41448  -2742246.65643  22670413.2614   22670410.4294
      4093.0094
 04  9  3 15  9 14.9990000  0  7G 1G11G14G15G19G22G25
  -3588777.17647  -2782361.58642  23311014.1984   23311010.7334
      4074.1794
  -3101591.95348  -2394731.44944  22317558.9014   22317554.4484
      3421.1774
      8638.41449      4290.00446  20382193.4724   20382189.3124
      -284.4104
   1879540.69548   1447343.12544  22234159.7454   22234157.1244
     -2439.1954
    815266.65248    627104.35544  22816726.0114   22816720.9484
     -1223.5444
    790013.05549    606325.09844  22035766.9254   22035762.2064
     -1091.3764
  -3606614.95748  -2790028.09043  22658745.1674   22658742.3474
      4087.9704
 04  9  3 15  9 29.9990000  0  7G 1G11G14G15G19G22G25
  -3649817.34047  -2829925.32842  23299398.6364   23299395.0854
      4069.3444
  -3152801.83249  -2434635.25444  22307814.1284   22307809.4214
      3413.9924
     13024.02749      7707.35946  20383028.1674   20383023.9954
      -292.3744
   1916219.69148   1475924.13744  22241139.1904   22241137.2454
     -2445.2664
    833730.44548    641491.71144  22820238.9174   22820234.5894
     -1230.9204
    806445.08249    619129.25844  22038894.2304   22038888.7654
     -1095.4684
  -3667859.45748  -2837751.05943  22647090.2694   22647087.9994
      4082.9674
 04  9  3 15  9 44.9990000  0  7G 1G11G14G15G19G22G25
  -3710784.32047  -2877432.05542  23287797.6444   23287793.3974
      4064.4654
  -3203903.05549  -2474454.39844  22298090.0034   22298085.5694
      3406.7484
     17529.47349     11218.09046  20383885.9014   20383881.4684
      -300.3634
   1952989.96948   1504576.26644  22248136.7144   22248134.9174
     -2451.3524
    852305.02748    655965.37544  22823773.7454   22823769.2454
     -1238.3054
    822939.03149    631981.68044  22042032.9724   22042027.3584
     -1099.5974
  -3729028.25048  -2885415.01643  22635450.2694   22635448.0584
      4077.9204
 04  9  3 15  9 59.9990000  0  7G 1G11G14G15G19G22G25
  -3771678.66447  -2924882.19942  23276209.4484   23276206.1084
      4059.6234
  -3254896.08648  -2514189.22744  22288386.1204   22288381.6794
      3399.5354
     22153.73849     14821.40646  20384765.5654   20384761.0464
      -308.2844
   1989850.59848   1533298.80544  22255150.6444   22255148.3824
     -2457.3754
    870989.42248    670524.60944  22827329.7534   22827324.6084
     -1245.6264
    839494.17249    644881.76244  22045183.2224   22045178.1554
     -1103.6764
  -3790121.61748  -2933020.21543  22623824.5264   22623821.7264
      4072.8914
 04  9  3 15 10 14.9990000  0  7G 1G11G14G15G19G22G25
  -3832500.78948  -2972276.03942  23264635.4874   23264632.6404
      4054.8084
  -3305781.30548  -2553840.05544  22278702.8864   22278698.2724
      3392.3484
     26895.94549     18516.62546  20385667.8624   20385663.9174
      -316.1474
   2026800.62948   1562091.00843  22262182.5734   22262179.9444
     -2463.3354
    889782.55948    685168.58244  22830906.3314   22830901.1124
     -1252.8764
    856109.81349    657828.98844  22048345.2844   22048340.2454
     -1107.7094
  -3851139.66048  -2980566.72343  22612213.3234   22612210.9724
      4067.8704
 04  9  3 15 10 29.9990000  0  7G 1G11G14G15G19G22G25
  -3893252.12948  -3019614.72742  23253075.0734   23253072.4914
      4050.0894
  -3356559.61348  -2593407.56644  22269040.4014   22269036.2724
      3385.2214
     31754.34849     22302.38746  20386592.5894   20386588.3004
      -323.8934
   2063838.34848   1590951.54344  22269230.7924   22269228.2414
     -2469.1814
    908682.52348    699895.81644  22834502.7924   22834497.1204
     -1259.9984
    872784.43049    670822.17644  22051518.2764   22051513.4054
     -1111.6414
  -3912083.62948  -3028055.51244  22600616.2694   22600613.7654
      4062.9314
 04  9  3 15 10 44.9990000  0  7G 1G11G14G15G19G22G25
  -3953931.31248  -3066897.19142  23241528.0894   23241526.0654
      4045.2794
  -3407229.91848  -2632890.92244  22259397.8864   22259394.1204
      3378.0204
     36730.04749     26179.54746  20387539.2224   20387535.1634
      -331.7134
   2100964.69148   1619881.12144  22276295.4564   22276292.8154
     -2475.0904
    927690.27748    714707.03544  22838119.1054   22838114.4294
     -1267.1844
    889519.16849    683862.21544  22054702.9334   22054697.4954
     -1115.6494
  -3972952.14548  -3075485.49644  22589032.6674   22589030.2884
      4057.9014
 04  9  3 15 10 59.9990000  0  7G 1G11G14G15G19G22G25
  -4014539.79348  -3114124.56242  23229994.5424   23229992.1634
      4040.5654
  -3457793.58649  -2672291.19144  22249776.0584   22249771.7184
      3370.9114
     41821.16849     30146.64146  20388508.2764   20388504.0114
      -339.4084
   2138177.73048   1648878.25844  22283376.7304   22283374.3084
     -2480.8694
    946803.85948    729600.71544  22841756.2614   22841751.7064
     -1274.2394
    906312.37949    696947.81644  22057898.5734   22057893.4524
     -1119.5474
  -4033746.35548  -3122857.59043  22577464.3944   22577461.4134
      4052.9474
 04  9  3 15 11 14.9990000  0  7G 1G11G14G15G19G22G25
  -4075077.84048  -3161297.07042  23218474.5194   23218472.5974
      4035.8704
  -3508250.57448  -2711608.31644  22240174.1054   22240170.6244
      3363.7994
     47027.02349     34203.13746  20389498.8084   20389494.8394
      -347.0574
   2175476.86348   1677942.50043  22290474.2764   22290471.8044
     -2486.6094
    966022.37548    744576.15244  22845413.8944   22845409.0304
     -1281.2344
    923163.74249    710078.72744  22061105.2144   22061099.6594
     -1123.4244
  -4094466.35248  -3170171.85544  22565909.3314   22565906.7654
      4048.0004
 04  9  3 15 11 29.9990000  0  7G 1G11G14G15G19G22G25
  -4135544.78148  -3208414.14842  23206968.0194   23206965.8784
      4031.1294
  -3558600.15649  -2750841.75844  22230592.8864   22230589.3474
      3356.6394
     52347.96549     38349.32047  20390511.2844   20390507.6084
      -354.7294
   2212862.32848   1707073.99643  22297588.8234   22297586.2844
     -2492.3644
    985346.02347    759633.50844  22849090.9804   22849086.2024
     -1288.2434
    940073.78549    723255.37544  22064322.9874   22064317.9014
     -1127.3364
  -4155111.27048  -3217427.61344  22554369.2064   22554366.2374
      4042.9954
 04  9  3 15 11 44.9990000  0  7G 1G11G14G15G19G22G25
  -4195941.93748  -3255476.85242  23195474.7764   23195472.9484
      4026.4774
  -3608843.53548  -2789992.44144  22221031.8864   22221028.0114
      3349.5594
     57782.24249     42583.81346  20391545.2374   20391541.7144
      -362.2854
   2250332.46548   1736271.48043  22304719.0974   22304716.7924
     -2498.0094
   1004773.03548    774771.41844  22852787.8474   22852783.0344
     -1295.1344
    957040.84449    736476.43444  22067551.6204   22067547.0504
     -1131.1374
  -4215682.31248  -3264625.79743  22542842.7844   22542840.0154
      4038.0704
 04  9  3 15 11 59.9990000  0  7G 1G11G14G15G19G22G25
  -4256269.29348  -3302485.17643  23183995.1984   23183992.4684
      4021.8244
  -3658980.53949  -2829060.24244  22211491.1904   22211487.4834
      3342.4674
     63329.53549     46906.37146  20392601.1514   20392597.3904
      -369.8204
   2287886.77748   1765534.55143  22311865.4644   22311863.5694
     -2503.6214
   1024302.92248    789989.49244  22856504.6594   22856499.1244
     -1301.9924
    974064.85949    749741.87144  22070791.3704   22070786.5544
     -1134.9344
  -4276179.16048  -3311766.18444  22531330.3154   22531327.8354
      4033.1234
 04  9  3 15 12 14.9990000  0  7G 1G11G14G15G19G22G25
  -4316527.19548  -3349439.37943  23172528.1674   23172525.4684
      4017.1934
  -3709011.35548  -2868045.29344  22201970.8474   22201967.2184
      3335.3884
     68989.18049     51316.45746  20393678.0894   20393674.7024
      -377.3104
   2325524.57448   1794862.67243  22319027.6594   22319025.7224
     -2509.1864
   1043934.89848    805287.12144  22860240.4484   22860235.1794
     -1308.7984
    991145.27049    763051.27045  22074041.8864   22074037.0544
     -1138.6944
  -4336602.08648  -3358848.96144  22519832.9954   22519829.9214
      4028.1954
 04  9  3 15 12 29.9990000  0  7G 1G11G14G15G19G22G25
  -4376716.21548  -3396339.91043  23161074.5344   23161071.8514
      4012.6014
  -3758936.31648  -2906947.86744  22192470.3154   22192466.7064
      3328.3314
     74760.25449     55813.39146  20394776.3314   20394772.0464
      -384.7384
   2363244.89848   1824255.10944  22326205.2534   22326203.8044
     -2514.6884
   1063667.75048    820663.33644  22863995.6364   22863990.6014
     -1315.5234
   1008281.43849    776404.09844  22077302.9014   22077297.4484
     -1142.4114
  -4396951.35948  -3405874.35944  22508348.8004   22508346.1124
      4023.2854
 04  9  3 15 12 44.9990000  0  7G 1G11G14G15G19G22G25
  -4436835.72748  -3443186.27043  23149634.3394   23149631.7534
      4007.9674
  -3808754.68749  -2945767.37544  22182990.4094   22182986.3864
      3321.2254
     80642.80949     60397.19546  20395895.9404   20395891.6594
      -392.1704
   2401047.85548   1853711.94143  22333398.8394   22333397.1834
     -2520.1974
   1083501.71548    836118.34844  22867769.5974   22867764.5154
     -1322.2644
   1025473.83649    789800.76244  22080574.2144   22080569.7264
     -1146.1604
  -4457226.08248  -3452841.64544  22496878.3864   22496875.8824
      4018.3154
 04  9  3 15 12 59.9990000  0  7G 1G11G14G15G19G22G25
  -4496886.21948  -3489978.86343  23138207.3314   23138204.6324
      4003.3664
  -3858466.96949  -2984504.21544  22173530.5584   22173526.6084
      3314.1524
     86636.10249     65067.28546  20397035.8864   20397031.9604
      -399.5534
   2438932.59048   1883232.47743  22340608.3944   22340606.6944
     -2525.6494
   1103435.74648    851651.34444  22871562.9724   22871558.1674
     -1328.9354
   1042721.73849    803240.65644  22083856.5034   22083851.7264
     -1149.8604
  -4517426.64848  -3499751.15244  22485423.0034   22485419.8904
      4013.3714
 04  9  3 15 13 14.9990000  0  7G 1G11G14G15G19G22G25
  -4556867.08648  -3536717.18443  23126793.2614   23126790.6164
      3998.7244
  -3908072.43048  -3023157.82044  22164090.2454   22164087.0344
      3307.0314
     92740.35249     69823.83246  20398198.0344   20398193.9764
      -406.9504
   2476899.37548   1912816.94943  22347832.9644   22347831.3704
     -2531.1194
   1123470.00448    867262.43843  22875374.9094   22875370.0344
     -1335.6174
   1060025.61749    816724.18444  22087149.3234   22087144.5344
     -1153.5924
  -4577552.25848  -3546602.26644  22473981.4564   22473978.7454
      4008.3744
 04  9  3 15 13 29.9990000  0  7G 1G11G14G15G19G22G25
  -4616779.69148  -3583402.32043  23115391.8624   23115389.4174
      3994.1744
  -3957572.18049  -3061729.05544  22154671.3554   22154667.4644
      3299.9834
     98953.73449     74665.43046  20399380.0814   20399376.1204
      -414.2264
   2514946.36348   1942463.92643  22355072.8154   22355071.5114
     -2536.4664
   1143602.53948    882950.10944  22879206.0894   22879201.0464
     -1342.1694
   1077383.82449    830250.03545  22090452.3154   22090447.5814
     -1157.2144
  -4637604.12148  -3593395.92244  22462553.6284   22462551.4094
      4003.4584
 04  9  3 15 13 44.9990000  0  7G 1G11G14G15G19G22G25
  -4676623.89848  -3630034.16843  23104003.9094   23104002.0934
      3989.6144
  -4006965.90249  -3100217.67644  22145271.6204   22145267.9724
      3292.9154
    105276.16849     79591.99246  20400583.2764   20400579.2804
      -421.4964
   2553073.30548   1972173.21143  22362328.8154   22362326.8704
     -2541.7964
   1163833.02748    898714.10943  22883056.2844   22883051.3904
     -1348.6994
   1094796.37949    843818.24244  22093765.8704   22093760.9444
     -1160.8374
  -4697581.94948  -3640131.87543  22451140.3474   22451138.2184
      3998.5224
 04  9  3 15 13 59.9990000  0  7G 1G11G14G15G19G22G25
  -4736399.67648  -3676612.69142  23092628.9174   23092626.8004
      3985.0524
  -4056253.64548  -3138623.69944  22135892.5424   22135888.8944
      3285.8494
    111707.20749     84603.17646  20401807.0584   20401803.1594
      -428.7364
   2591279.88348   2001944.53143  22369599.8314   22369597.4014
     -2547.1054
   1184161.13348    914554.16044  22886924.2694   22886919.3514
     -1355.2074
   1112263.30149    857428.80945  22097089.9254   22097084.7924
     -1164.4614
  -4757485.30148  -3686809.79343  22439741.1984   22439739.0774
      3993.5574
 04  9  3 15 14 14.9990000  0  7G 1G11G14G15G19G22G25
  -4796106.55148  -3723137.52343  23081266.8004   23081265.1754
      3980.4584
  -4105434.78148  -3176946.66844  22126533.8154   22126529.7224
      3278.7424
    118247.01649     89699.12146  20403051.7374   20403047.5894
      -435.9874
   2629566.05148   2031777.87543  22376884.8554   22376883.0894
     -2552.4114
   1204586.64548    930470.12144  22890811.0734   22890806.3944
     -1361.7014
   1129784.71149    871081.83645  22100424.2694   22100419.0584
     -1168.0944
  -4817313.65248  -3733429.27344  22428356.1284   22428353.5974
      3988.5574
 04  9  3 15 14 29.9990000  0  7G 1G11G14G15G19G22G25
  -4855745.28147  -3769609.25043  23069918.0584   23069916.3314
      3975.9154
  -4154509.94549  -3215187.06244  22117195.1834   22117191.1514
      3271.6784
    124894.46949     94878.94946  20404316.5734   20404312.3474
      -443.1644
   2667930.62548   2061672.31643  22384185.5424   22384183.8084
     -2557.6384
   1225108.34048    946461.02743  22894716.7534   22894711.7184
     -1368.1134
   1147359.66449    884776.59045  22103768.5034   22103763.7064
     -1171.6644
  -4877067.59448  -3779990.76643  22416985.0504   22416983.5734
      3983.5964
 04  9  3 15 14 44.9990000  0  7G 1G11G14G15G19G22G25
  -4915316.09847  -3816028.07043  23058582.2224   23058580.9054
      3971.3884
  -4203479.19549  -3253344.91844  22107876.4254   22107872.6204
      3264.6174
    131648.99249    100142.20346  20405601.7844   20405597.8154
      -450.3024
   2706373.04348   2091627.40643  22391501.0734   22391498.8944
     -2562.8284
   1245725.43848    962526.27343  22898639.5974   22898634.8084
     -1374.4734
   1164987.89849    898512.86744  22107123.0654   22107118.2614
     -1175.2164
  -4936747.16048  -3826494.30944  22405628.6444   22405626.3664
      3978.6384
 04  9  3 15 14 59.9990000  0  7G 1G11G14G15G19G22G25
  -4974819.55947  -3862394.39843  23047259.2144   23047257.5464
      3966.8974
  -4252342.92649  -3291420.55944  22098578.3314   22098573.9564
      3257.5824
    138509.57049    105488.09846  20406907.2614   20406903.3474
      -457.3724
   2744892.40648   2121642.47343  22398830.8004   22398828.6514
     -2567.9584
   1266436.98048    978665.09843  22902580.9724   22902576.4094
     -1380.7704
   1182668.70749    912290.09845  22110487.6364   22110482.7304
     -1178.7214
  -4996352.79748  -3872940.23444  22394286.0814   22394283.1944
      3973.7094
 04  9  3 15 15 14.9990000  0  7G 1G11G14G15G19G22G25
  -5034255.64848  -3908708.23443  23035948.8234   23035946.9294
      3962.4064
  -4301100.84448  -3329413.73844  22089299.7454   22089296.0424
      3250.5284
    145475.95349    110916.44146  20408233.1054   20408229.1904
      -464.4264
   2783488.34048   2151717.19543  22406175.4724   22406173.3584
     -2573.0624
   1287242.50048    994877.17643  22906540.2374   22906535.2334
     -1387.0354
   1200401.98849    926108.22345  22113861.9804   22113857.3194
     -1182.2194
  -5055884.07048  -3919328.23844  22382957.7614   22382954.7614
      3968.7524
 04  9  3 15 15 29.9990000  0  7G 1G11G14G15G19G22G25
  -5093623.75448  -3954969.09043  23024651.2844   23024649.5114
      3957.8744
  -4349752.36749  -3367324.03144  22080041.6834   22080037.4254
      3243.4354
    152548.25049    116427.30946  20409579.1594   20409574.9954
      -471.4864
   2822160.93848   2181851.65643  22413534.8234   22413532.5074
     -2578.1734
   1308142.01248   1011162.50043  22910517.6054   22910512.3514
     -1393.3014
   1218187.96949    939967.40645  22117246.8084   22117241.8824
     -1185.7324
  -5115340.19148  -3965657.66844  22371643.4484   22371640.7804
      3963.7414
 04  9  3 15 15 44.9990000  0  7G 1G11G14G15G19G22G25
  -5152923.94948  -4001177.00843  23013367.4094   23013365.1904
      3953.3464
  -4398297.29749  -3405151.23844  22070803.7924   22070799.9294
      3236.3294
    159726.21549    122020.52046  20410944.9804   20410941.0584
      -478.5314
   2860909.84448   2212045.57443  22420908.5034   22420906.6014
     -2583.2604
   1329134.96148   1027520.61344  22914511.8004   22914507.2374
     -1399.5304
   1236026.61749    953867.62945  22120641.2764   22120636.9604
     -1189.2434
  -5174721.06648  -4011928.45744  22360343.6364   22360340.7614
      3958.7254
 04  9  3 15 15 59.9990000  0  7G 1G11G14G15G19G22G25
  -5212156.32048  -4047332.10543  23002095.8154   23002092.9874
      3948.8254
  -4446735.76248  -3442895.50444  22061586.2844   22061582.4524
      3229.2314
    167009.30949    127695.64846  20412330.7534   20412327.0934
      -485.5404
   2899734.44148   2242298.46943  22428296.9254   22428294.6164
     -2588.3074
   1350220.82848   1043951.14543  22918524.6124   22918520.0814
     -1405.7244
   1253917.74649    967808.75045  22124045.8004   22124041.2104
     -1192.7424
  -5234026.70748  -4058140.62944  22349057.9484   22349054.8514
      3953.7094
 04  9  3 15 16 14.9990000  0  7G 1G11G14G15G19G22G25
  -5271320.56648  -4093434.10543  22990836.7304   22990834.2224
      3944.2834
  -4495067.32848  -3480556.46144  22052389.1674   22052385.4954
      3222.1044
    174397.46549    133452.63746  20413736.7614   20413732.7764
      -492.5444
   2938634.74248   2272610.36743  22435698.9874   22435697.1244
     -2593.3534
   1371399.43448   1060453.91843  22922554.7454   22922550.0074
     -1411.9074
   1271861.40649    981790.80545  22127460.4484   22127455.6674
     -1196.2444
  -5293256.42248  -4104293.64143  22337787.1904   22337783.9604
      3948.6484
 04  9  3 15 16 29.9990000  0  7G 1G11G14G15G19G22G25
  -5330418.09848  -4139484.12543  22979591.1124   22979588.7104
      3939.8354
  -4543293.13349  -3518135.00844  22043212.2924   22043208.2844
      3215.0544
    181888.78549    139290.02346  20415162.4484   20415158.3354
      -499.4214
   2977608.83248   2302979.76243  22443115.3704   22443113.8824
     -2598.2734
   1392668.77048   1077027.40643  22926602.3864   22926597.5464
     -1417.9564
   1289855.98849    995812.53545  22130884.7064   22130880.1514
     -1199.6394
  -5352411.59448  -4150388.55943  22326530.2304   22326527.3394
      3943.6784
 04  9  3 15 16 44.9990000  0  7G 1G11G14G15G19G22G25
  -5389448.03548  -4185481.46143  22968358.5194   22968355.2184
      3935.3294
  -4591412.23049  -3555630.41444  22034055.4484   22034051.4174
      3207.9404
    189483.79349    145208.20746  20416607.7144   20416603.4294
      -506.3344
   3016657.27048   2333407.08243  22450545.8554   22450544.8274
     -2603.2294
   1414029.32447   1093671.95743  22930666.7534   22930661.7414
     -1424.0374
   1307902.25049   1009874.53945  22134318.8154   22134313.8394
     -1203.0844
  -5411491.04348  -4196424.48443  22315287.8704   22315284.1164
      3938.6304
 04  9  3 15 16 59.9990000  0  7G 1G11G14G15G19G22G25
  -5448411.36748  -4231426.91443  22957137.3944   22957135.1984
      3930.8894
  -4639425.46949  -3593043.32444  22024918.7224   22024914.9834
      3200.8834
    197181.17649    151206.15246  20418072.2374   20418068.3664
      -513.1594
   3055778.57848   2363891.17643  22457990.7454   22457989.1754
     -2608.0874
   1435479.42648   1110386.30543  22934748.9334   22934743.6054
     -1430.0074
   1325998.94949   1023975.84845  22137762.6054   22137758.1084
     -1206.4474
  -5470495.55548  -4242402.02043  22304059.3084   22304055.9374
      3933.6344
 04  9  3 15 17 14.9990000  0  7G 1G11G14G15G19G22G25
  -5507307.24247  -4277319.79342  22945929.8154   22945927.2804
      3926.3924
  -4687331.90249  -3630373.02744  22015802.3704   22015798.5934
      3193.7624
    204981.51649    157284.32846  20419557.0264   20419552.9254
      -520.0234
   3094973.25048   2394432.45343  22465449.4174   22465447.3514
     -2612.9784
   1457019.68048   1127170.88743  22938847.8004   22938843.0934
     -1436.0174
   1344146.86749   1038117.06644  22141216.1284   22141211.5654
     -1209.8614
  -5529424.05948  -4288320.31643  22292845.6284   22292842.8314
      3928.5674
 04  9  3 15 17 29.9990000  0  7G 1G11G14G15G19G22G25
  -5566136.06648  -4323160.41043  22934735.5034   22934732.8434
      3921.9224
  -4735131.70349  -3667619.62145  22006706.6444   22006702.8154
      3186.6534
    212884.01649    163442.11346  20421060.5424   20421056.6444
      -526.8334
   3134240.53148   2425030.31343  22472921.6674   22472919.9254
     -2617.8194
   1478649.02348   1144024.90243  22942963.7304   22942958.8154
     -1441.9564
   1362345.43849   1052297.75444  22144679.4404   22144674.6674
     -1213.2384
  -5588276.87148  -4334179.62943  22281646.4484   22281643.1474
      3923.5214
 04  9  3 15 17 44.9990000  0  7G 1G11G14G15G19G22G25
  -5624896.58647  -4368947.82443  22923553.2614   22923551.0814
      3917.3684
  -4782823.53149  -3704782.08244  21997631.2064   21997627.5194
      3179.4554
    220889.52349    169680.15646  20422583.6834   20422580.1874
      -533.7014
   3173581.25048   2455685.37543  22480407.9644   22480406.8274
     -2622.7154
   1500368.05948   1160948.80543  22947096.6284   22947091.8744
     -1447.9364
   1380595.72749   1066518.73444  22148152.0584   22148147.1284
     -1216.6864
  -5647052.48448  -4379978.79744  22270461.5894   22270458.5264
      3918.3744
 04  9  3 15 17 59.9990000  0  7G 1G11G14G15G19G22G25
  -5683589.75447  -4414682.73843  22912384.3704   22912382.6944
      3912.8784
  -4830408.25049  -3741861.08644  21988575.9804   21988572.5584
      3172.3154
    228996.71149    175997.43846  20424126.6594   20424122.8784
      -540.4794
   3212993.87148   2486396.46943  22487908.2224   22487906.2374
     -2627.5084
   1522175.47347   1177941.58243  22951245.8624   22951241.4684
     -1453.8284
   1398896.58648   1080779.12544  22151634.5194   22151629.6514
     -1220.0574
  -5705751.74248  -4425718.45744  22259291.4404   22259288.4834
      3913.2844
 04  9  3 15 18 14.9990000  0  7G 1G11G14G15G19G22G25
  -5742216.00447  -4460365.53542  22901228.3864   22901226.4524
      3908.4174
  -4877886.17249  -3778856.86744  21979541.0894   21979537.4834
      3165.1954
    237204.72749    182393.28146  20425688.6124   20425684.6714
      -547.2014
   3252477.62148   2517162.98843  22495421.8084   22495419.8624
     -2632.2504
   1544070.34048   1195002.48443  22955413.0814   22955408.3274
     -1459.6584
   1417247.52748   1095078.54744  22155126.3784   22155122.0154
     -1223.3964
  -5764374.84848  -4471398.78944  22248136.0894   22248132.7804
      3908.2074
 04  9  3 15 18 29.9990000  0  7G 1G11G14G15G19G22G25
  -5800774.75447  -4505995.69943  22890084.6364   22890082.9134
      3903.9174
  -4925256.60249  -3815768.88744  21970526.6834   21970523.2334
      3158.0294
    245513.83649    188867.90246  20427269.8394   20427265.5654
      -553.9414
   3292032.69548   2547985.10943  22502949.0894   22502946.9564
     -2637.0054
   1566052.66448   1212131.54743  22959596.3554   22959592.0544
     -1465.4884
   1435648.91848   1109417.27044  22158628.0264   22158623.5974
     -1226.7594
  -5822921.09048  -4517019.22744  22236994.9954   22236992.0344
      3903.0834
 04  9  3 15 18 44.9990000  0  7G 1G11G14G15G19G22G25
  -5859266.68447  -4551573.83643  22878954.0814   22878952.7694
      3899.4624
  -4972519.99249  -3852597.50044  21961533.0264   21961529.3354
      3150.8934
    253923.04749    195420.52346  20428870.0114   20428865.9404
      -560.6144
   3331658.04748   2578861.96943  22510489.0264   22510487.2064
     -2641.6904
   1588121.34848   1229327.90244  22963795.1594   22963790.9484
     -1471.2464
   1454099.93848   1123794.67244  22162138.9724   22162134.6364
     -1230.0684
  -5881390.77348  -4562580.00444  22225868.7454   22225865.7804
      3897.9794
 04  9  3 15 18 59.9990000  0  7G 1G11G14G15G19G22G25
  -5917691.25847  -4597099.45743  22867836.3624   22867834.8624
      3894.9724
  -5019675.71149  -3889342.21544  21952559.6444   21952555.7144
      3143.7154
    262432.53549    202051.28946  20430489.6284   20430485.2884
      -567.2994
   3371353.82848   2609793.70743  22518043.0424   22518041.3044
     -2646.3854
   1610276.28948   1246591.46143  22968011.6834   22968006.7264
     -1476.9964
   1472600.94149   1138211.02044  22165660.0584   22165655.0814
     -1233.4004
  -5939783.25848  -4608080.63344  22214756.7374   22214754.6874
      3892.8324
 04  9  3 15 19 14.9990000  0  7G 1G11G14G15G19G22G25
  -5976048.78947  -4642572.85543  22856731.1054   22856729.7374
      3890.5024
  -5066723.99249  -3926003.21144  21943606.7304   21943603.0734
      3136.5524
    271041.39849    208759.48446  20432127.7454   20432123.1204
      -573.9244
   3411119.24648   2640779.71943  22525610.1284   22525607.7764
     -2651.0284
   1632516.82448   1263921.74243  22972244.2454   22972239.5034
     -1482.7024
   1491151.51648   1152666.00444  22169189.9804   22169185.2104
     -1236.7054
  -5998098.75048  -4653521.26644  22203659.7454   22203657.8784
      3887.6994
 04  9  3 15 19 29.9990000  0  7G 1G11G14G15G19G22G25
  -6034338.71547  -4687993.57843  22845638.9014   22845637.6984
      3885.9954
  -5113664.02049  -3962579.86344  21934674.5114   21934670.3944
      3129.3354
    279749.98449    215545.39146  20433784.5194   20433780.5114
      -580.5724
   3450954.56348   2671820.19143  22533190.5654   22533188.3044
     -2655.6884
   1654843.01248   1281318.74243  22976492.9804   22976487.1944
     -1488.4124
   1509752.05548   1167159.91444  22172729.1444   22172724.7454
     -1240.0364
  -6056336.39548  -4698901.23044  22192577.4644   22192575.6874
      3882.5104
 04  9  3 15 19 44.9990000  0  7G 1G11G14G15G19G22G25
  -6092560.77347  -4733361.39543  22834559.4174   22834558.5654
      3881.4714
  -5160495.39149  -3999071.84444  21925763.0194   21925758.2924
      3122.0914
    288558.22749    222408.94546  20435460.8704   20435456.6474
      -587.2164
   3490859.68048   2702915.03943  22540784.6444   22540782.0464
     -2660.3414
   1677254.57048   1298782.27043  22980757.8474   22980752.5894
     -1494.1044
   1528402.67649   1181692.84844  22176278.9564   22176273.6244
     -1243.3754
  -6114495.62148  -4744220.08644  22181510.0814   22181508.1404
      3877.2824
 04  9  3 15 19 59.9990000  0  7G 1G11G14G15G19G22G25
  -6150715.03548  -4778676.40243  22823493.9334   22823492.1754
      3876.9514
  -5207218.10949  -4035479.16044  21916871.4564   21916867.4994
      3114.8484
    297465.70349    229349.82446  20437155.7764   20437151.8354
      -593.8324
   3530834.07448   2734063.88343  22548391.3944   22548389.4954
     -2664.9604
   1699750.99648   1316311.92243  22985037.9094   22985033.3124
     -1499.7624
   1547103.19149   1196264.66044  22179837.3784   22179832.3194
     -1246.7014
  -6172576.37548  -4789477.79744  22170458.2064   22170455.3744
      3872.0504
 04  9  3 15 20 14.9990000  0  7G 1G11G14G15G19G22G25
  -6208802.37948  -4823939.25443  22812440.1674   22812438.8974
      3872.4904
  -5253833.21549  -4071802.62144  21908000.9724   21907996.6794
      3107.6744
    306470.99649    236366.93046  20438869.7064   20438865.6944
      -600.3534
   3570876.37948   2765265.64543  22556011.2454   22556008.5854
     -2669.4874
   1722330.80148   1333906.55543  22989334.8314   22989330.2184
     -1505.3204
   1565852.48048   1210874.47744  22183405.1364   22183400.3434
     -1249.9534
  -6230579.34448  -4834674.91444  22159420.6514   22159417.8124
      3866.8654
 04  9  3 15 20 29.9990000  0  7G 1G11G14G15G19G22G25
  -6266822.43048  -4869149.68443  22801399.1514   22801397.3704
      3868.0034
  -5300339.86749  -4108041.58244  21899151.2224   21899146.9094
      3100.4434
    315574.25849    243460.36346  20440601.9954   20440597.8744
      -606.8844
   3610986.62147   2796520.34043  22563643.6444   22563641.7764
     -2674.0164
   1744993.84448   1351566.04343  22993647.7534   22993643.2724
     -1510.8704
   1584650.81349   1225522.51644  22186982.1984   22186977.6284
     -1253.2224
  -6288503.92648  -4879810.93744  22148397.6364   22148395.3944
      3861.6394
 04  9  3 15 20 44.9990000  0  7G 1G11G14G15G19G22G25
  -6324773.80948  -4914306.59843  22790371.0814   22790369.7144
      3863.4254
  -5346736.59049  -4144194.86744  21890321.9174   21890317.9214
      3093.1154
    324776.43049    250630.88746  20442352.9874   20442348.6514
      -613.4784
   3651165.79747   2827828.75443  22571289.6514   22571287.2884
     -2678.6124
   1767741.07048   1369291.13743  22997976.7534   22997971.7024
     -1516.4824
   1603499.34449   1240209.66844  22190568.9484   22190564.6284
     -1256.5694
  -6346348.65249  -4924884.72744  22137390.1754   22137387.1634
      3856.3154
 04  9  3 15 20 59.9990000  0  7G 1G11G14G15G19G22G25
  -6382658.01248  -4959411.16043  22779356.0114   22779354.7654
      3858.9474
  -5393024.79349  -4180263.59444  21881513.5504   21881509.4954
      3085.8804
    334075.72349    257877.07446  20444122.4724   20444118.4054
      -619.9534
   3691411.91447   2859189.32443  22578948.5424   22578946.3084
     -2683.0744
   1790570.43848   1387080.23843  23002320.8234   23002316.2614
     -1521.9584
   1622396.45349   1254934.67645  22194165.3314   22194160.9444
     -1259.8074
  -6404114.84048  -4969897.33644  22126397.8554   22126395.1984
      3851.0794
 04  9  3 15 21 14.9990000  0  7G 1G11G14G15G19G22G25
  -6440475.33248  -5004463.60943  22768354.3474   22768351.9644
      3854.4884
  -5439204.73049  -4216247.96144  21872725.5034   21872721.9484
      3078.6634
    343471.38349    265198.36346  20445910.6674   20445906.7414
      -626.3774
   3731724.23447   2890601.49243  22586619.4564   22586617.1014
     -2687.4884
   1813481.22748   1404932.77043  23006680.9094   23006676.4524
     -1527.3864
   1641341.72349   1269697.20345  22197770.5194   22197765.9874
     -1263.0184
  -6461802.62948  -5014848.83644  22115420.0344   22115417.1324
      3845.8534
 04  9  3 15 21 29.9990000  0  7G 1G11G14G15G19G22G25
  -6498226.02348  -5049464.15643  22757364.4404   22757362.7374
      3850.0464
  -5485276.31649  -4252147.89844  21863958.6514   21863954.5424
      3071.4394
    352962.88749    272594.32846  20447716.6754   20447712.7764
      -632.7674
   3772102.25047   2922064.84443  22594303.2454   22594301.0654
     -2691.8684
   1836472.66848   1422848.15244  23011055.7764   23011051.4214
     -1532.7634
   1660334.74249   1284496.94545  22201384.4874   22201380.2304
     -1266.2014
  -6519411.95348  -5059739.20744  22104457.1594   22104453.7264
      3840.6224
 04  9  3 15 21 44.9990000  0  7G 1G11G14G15G19G22G25
  -6555909.54748  -5094412.34843  22746387.5344   22746385.2614
      3845.5684
  -5531238.90649  -4287962.91044  21855212.2844   21855208.1014
      3064.1734
    362550.32849    280065.04746  20449541.1444   20449537.4334
      -639.1634
   3812546.02347   2953579.44143  22601999.4254   22601997.6324
     -2696.2524
   1859544.73048   1440826.34443  23015446.6984   23015441.9404
     -1538.1374
   1679375.82449   1299334.14145  22205007.9014   22205003.7064
     -1269.4054
  -6576942.07048  -5104567.85244  22093509.6124   22093506.1984
      3835.3414
 04  9  3 15 21 59.9990000  0  7G 1G11G14G15G19G22G25
  -6613526.03548  -5139308.30943  22735423.6124   22735421.7694
      3841.0994
  -5577092.64549  -4323693.10244  21846486.7844   21846482.3434
      3056.9164
    372233.28949    287610.20346  20451384.0814   20451380.0074
      -645.5314
   3853055.07847   2985144.90643  22609707.8554   22609705.2494
     -2700.6044
   1882696.75048   1458866.87143  23019852.3944   23019847.2494
     -1543.4684
   1698464.84049   1314208.67645  22208640.4014   22208636.0544
     -1272.6014
  -6634392.84049  -5149334.68044  22082577.0894   22082573.7334
      3830.0514
 04  9  3 15 22 14.9990000  0  7G 1G11G14G15G19G22G25
  -6671075.52048  -5184152.04743  22724472.0584   22724470.3274
      3836.6324
  -5622837.33249  -4359338.31244  21837781.6594   21837777.6014
      3049.6464
    382011.38349    295229.48846  20453244.5264   20453240.9804
      -651.8734
   3893628.88747   3016760.81643  22617429.0194   22617426.8234
     -2704.9214
   1905928.21548   1476969.27743  23024273.0894   23024268.1944
     -1548.7644
   1717601.52049   1329120.36745  22212281.8234   22212277.3314
     -1275.7794
  -6691764.10249  -5194039.55144  22071659.7144   22071656.6594
      3824.7514
 04  9  3 15 22 29.9990000  0  7G 1G11G14G15G19G22G25
  -6728558.39848  -5228943.89843  22713533.5034   22713530.9804
      3832.1924
  -5668473.10949  -4394898.66445  21829097.8004   21829093.4444
      3042.3854
    391883.89549    302922.35246  20455123.0974   20455119.4054
      -658.1674
   3934266.70747   3048426.60943  22625162.4334   22625159.4954
     -2709.1884
   1929238.32848   1495132.98444  23028708.7064   23028703.8744
     -1554.0084
   1736785.38749   1344068.81345  22215932.6054   22215928.3274
     -1278.9244
  -6749056.12148  -5238682.67244  22060757.5194   22060753.5224
      3819.4684
 04  9  3 15 22 44.9990000  0  7G 1G11G14G15G19G22G25
  -6785973.89848  -5273683.24643  22702607.7844   22702605.5304
      3827.7004
  -5713999.16049  -4430373.51645  21820434.5344   21820430.3974
      3035.0704
    401851.19149    310689.06646  20457020.1754   20457016.0654
      -664.4864
   3974968.95747   3080142.61743  22632907.6904   22632905.4014
     -2713.4834
   1952627.27348   1513358.11744  23033159.5034   23033154.8864
     -1559.2634
   1756017.00049   1359054.47345  22219592.5504   22219587.8154
     -1282.1084
  -6806267.95748  -5283263.31244  22049869.9954   22049866.7334
      3814.1224
 04  9  3 15 22 59.9990000  0  7G 1G11G14G15G19G22G25
  -6843321.91848  -5318370.00443  22691694.5814   22691692.2764
      3823.2014
  -5759415.28149  -4465762.69944  21811791.6904   21811788.3314
      3027.7414
    411913.07049    318529.48446  20458934.5974   20458930.6474
      -670.7924
   4015735.28547   3111908.56643  22640665.1674   22640662.6944
     -2717.7554
   1976094.75448   1531644.43044  23037624.8784   23037620.2614
     -1564.4994
   1775296.41849   1374077.38345  22223261.2534   22223256.5934
     -1285.2954
  -6863399.23048  -5327781.17244  22038998.6444   22038994.8394
      3808.7524
 04  9  3 15 23 14.9990000  0  7G 1G11G14G15G19G22G25
  -6900602.51248  -5363004.22343  22680794.6904   22680792.4834
      3818.7064
  -5804721.49649  -4501066.24244  21803170.1834   21803166.5774
      3020.4144
    422068.98049    326443.16046  20460867.2064   20460863.2884
      -677.0614
   4056565.28547   3143724.09043  22648435.1124   22648432.7414
     -2722.0004
   1999640.20748   1549991.50843  23042105.8394   23042100.9954
     -1569.6974
   1794623.41049   1389137.36345  22226939.0974   22226934.2574
     -1288.4664
  -6920449.66448  -5372236.04344  22028142.0734   22028139.3824
      3803.3624
 04  9  3 15 23 29.9990000  0  7G 1G11G14G15G19G22G25
  -6957815.84448  -5407586.04343  22669907.5504   22669905.5934
      3814.2224
  -5849917.63749  -4536284.02345  21794569.9174   21794565.9604
      3013.0764
    432318.37149    334429.69146  20462817.6754   20462813.8314
      -683.2934
   4097458.32048   3175588.77743  22656216.6514   22656213.8624
     -2726.2024
   2023262.92248   1568398.78543  23046601.0424   23046596.4404
     -1574.8484
   1813997.60549   1404234.12145  22230626.1674   22230621.3084
     -1291.6134
  -6977419.34849  -5416627.98844  22017301.3084   22017298.8314
      3797.9794
 04  9  3 15 23 44.9990000  0  7G 1G11G14G15G19G22G25
  -7014961.93448  -5452115.44943  22659033.1514   22659031.3194
      3809.7394
  -5895003.71149  -4571416.02745  21785990.5034   21785986.5654
      3005.7384
    442660.98449    342488.86346  20464785.7614   20464781.9724
      -689.5084
   4138414.04347   3207502.28543  22664010.0654   22664007.9914
     -2730.3824
   2046962.39548   1586865.87143  23051111.1754   23051106.2304
     -1579.9654
   1833418.92249   1419367.60245  22234321.4174   22234316.6984
     -1294.7544
  -7034308.12949  -5460956.90244  22006475.6984   22006473.1984
      3792.5854
 04  9  3 15 23 59.9990000  0  7G 1G11G14G15G19G22G25
  -7072040.18748  -5496592.00443  22648171.1444   22648169.6244
      3805.2174
  -5939979.09449  -4606461.78945  21777432.0194   21777427.6794
      2998.3594
    453097.10549    350620.89546  20466771.6444   20466767.7264
      -695.7414
   4179432.56347   3239464.73443  22671815.5114   22671813.2184
     -2734.5684
   2070738.69147   1605392.82844  23055635.1674   23055631.0624
     -1585.0864
   1852887.74249   1434538.09045  22238026.6754   22238022.0934
     -1297.9214
  -7091115.21548  -5505222.15244  21995665.5734   21995663.3554
      3787.1394
 04  9  3 15 24 14.9990000  0  7G 1G11G14G15G19G22G25
  -7129051.37948  -5541016.29343  22637322.0654   22637320.7144
      3800.7464
  -5984844.13349  -4641421.55944  21768894.0734   21768890.4724
      2991.0034
    463625.46949    358824.80946  20468775.2304   20468771.2184
      -701.8914
   4220512.88747   3271475.34443  22679633.5584   22679631.0034
     -2738.6884
   2094590.56348   1623978.68443  23060174.0814   23060169.9524
     -1590.1254
   1872403.23449   1449744.94945  22241740.3004   22241735.6944
     -1301.0334
  -7147841.15648  -5549424.17644  21984870.7064   21984869.0694
      3781.7294
 04  9  3 15 24 29.9990000  0  7G 1G11G14G15G19G22G25
  -7185994.31648  -5585387.40643  22626485.8554   22626484.7574
      3796.1964
  -6029597.65249  -4676294.43745  21760378.1204   21760374.1084
      2983.5684
    474246.98049    367101.30146  20470796.2534   20470792.5854
      -708.1014
   4261655.70347   3303534.64843  22687462.2614   22687460.2454
     -2742.8544
   2118518.68448   1642623.94143  23064727.5034   23064722.9214
     -1595.2084
   1891966.46549   1464989.01645  22245462.9564   22245458.3084
     -1304.2154
  -7204484.64548  -5593561.96144  21974092.2304   21974090.4684
      3776.2334
 04  9  3 15 24 44.9990000  0  7G 1G11G14G15G19G22G25
  -7242869.97348  -5629706.09443  22615663.0114   22615661.1124
      3791.7104
  -6074240.47749  -4711081.05944  21751882.9014   21751878.7964
      2976.1884
    484960.27749    375449.31346  20472834.9874   20472831.1244
      -714.2204
   4302859.67247   3335641.60943  22695302.9094   22695301.8784
     -2746.9314
   2142521.68848   1661327.57043  23069294.4564   23069290.6834
     -1600.2004
   1911576.19149   1480269.29744  22249194.6904   22249189.7334
     -1307.3154
  -7261046.41448  -5637636.05544  21963328.8704   21963327.3974
      3770.7854
 04  9  3 15 24 59.9990000  0  7G 1G11G14G15G19G22G25
  -7299678.44948  -5673972.41843  22604853.0114   22604850.7184
      3787.2324
  -6118772.55948  -4745781.38344  21743408.3314   21743404.2764
      2968.8054
    495764.96149    383868.53146  20474891.4404   20474887.3744
      -720.3124
   4344124.24647   3367795.78143  22703155.9254   22703153.9834
     -2750.9724
   2166598.85548   1680088.96143  23073876.5654   23073872.7454
     -1605.1454
   1931232.20349   1495585.66044  22252934.9174   22252930.0154
     -1310.4014
  -7317526.25848  -5681646.31644  21952580.8864   21952579.6244
      3765.3234
 04  9  3 15 25 14.9990000  0  7G 1G11G14G15G19G22G25
  -7356418.61748  -5718185.52343  22594055.7064   22594053.0974
      3782.6784
  -6163192.83248  -4780394.58644  21734955.2924   21734951.2414
      2961.3524
    506661.68449    392359.47346  20476964.7924   20476961.1634
      -726.4484
   4385450.05947   3399997.68443  22711019.7924   22711017.8194
     -2755.0544
   2190750.66848   1698908.53543  23078472.8084   23078468.5654
     -1610.1214
   1950935.41049   1510938.78144  22256684.5194   22256679.4874
     -1313.5474
  -7373923.08248  -5725591.89844  21941849.3394   21941847.4914
      3759.7884
 04  9  3 15 25 29.9990000  0  7G 1G11G14G15G19G22G25
  -7413091.57048  -5762346.25043  22583270.7304   22583268.6514
      3778.1974
  -6207502.17648  -4814921.35544  21726523.6674   21726519.3824
      2953.9564
    517649.03149    400921.03146  20479055.7844   20479051.6554
      -732.4904
   4426835.68847   3432246.17643  22718895.8314   22718893.6834
     -2759.0424
   2214975.69148   1717785.14543  23083082.5504   23083078.0504
     -1615.0024
   1970684.63349   1526327.77345  22260442.8474   22260438.0344
     -1316.6154
  -7430237.70348  -5769473.40244  21931132.9334   21931130.7614
      3754.3084
 04  9  3 15 25 44.9990000  0  7G 1G11G14G15G19G22G25
  -7469696.78548  -5806454.19943  22572498.8624   22572496.8704
      3773.6814
  -6251699.93049  -4849361.16044  21718112.9174   21718109.1404
      2946.5174
    528727.20349    409553.36346  20481163.9014   20481159.9374
      -738.5454
   4468281.30147   3464541.41043  22726782.2374   22726780.8004
     -2763.0414
   2239273.88748   1736718.77743  23087706.7764   23087701.9834
     -1619.8804
   1990480.16849   1541752.85545  22264209.4564   22264204.4834
     -1319.7024
  -7486469.35248  -5813290.27344  21920432.3864   21920430.3194
      3748.7774
 04  9  3 15 25 59.9990000  0  7G 1G11G14G15G19G22G25
  -7526234.20748  -5850509.32043  22561740.0584   22561738.3744
      3769.1614
  -6295785.77348  -4883713.75845  21709723.6754   21709719.9404
      2939.0564
    539895.87949    418256.21146  20483289.1124   20483285.1444
      -744.5784
   4509786.52748   3496883.11743  22734680.6754   22734678.2534
     -2767.0154
   2263644.91048   1755709.16043  23092344.2144   23092339.5624
     -1624.7354
   2010322.03149   1557214.02344  22267985.3554   22267979.8664
     -1322.7914
  -7542617.63348  -5857042.16844  21909747.9484   21909744.8944
      3743.2194
 04  9  3 15 26 14.9990000  0  7G 1G11G14G15G19G22G25
  -7582703.87947  -5894511.65243  22550994.9874   22550993.2374
      3764.6454
  -6339759.74249  -4917979.19144  21701355.7454   21701351.9604
      2931.5984
    551154.59449    427029.23046  20485431.4644   20485427.3744
      -750.5814
   4551350.83648   3529270.85542  22742589.8314   22742587.6834
     -2770.9544
   2288088.08648   1774755.75043  23096995.3784   23096991.3004
     -1629.5454
   2030210.05149   1572711.16444  22271769.6834   22271765.1474
     -1325.8684
  -7598682.53948  -5900729.09844  21899078.8394   21899075.6714
      3737.6604
 04  9  3 15 26 29.9990000  0  7G 1G11G14G15G19G22G25
  -7639106.40648  -5938461.65643  22540261.6124   22540259.9684
      3760.1684
  -6383622.06249  -4952157.62945  21693009.3864   21693004.9764
      2924.1554
    562502.51649    435871.75846  20487591.3154   20487587.0114
      -756.5284
   4592973.35547   3561703.96142  22750510.5974   22750508.2184
     -2774.8354
   2312602.52048   1793857.87943  23101660.7694   23101656.4564
     -1634.2964
   2050143.59448   1588243.77744  22275563.2614   22275558.1404
     -1328.9034
  -7654664.38748  -5944351.29744  21888425.9254   21888422.5654
      3732.1234
 04  9  3 15 26 44.9990000  0  7G 1G11G14G15G19G22G25
  -7695440.75448  -5982358.53943  22529542.0034   22529539.6324
      3755.6234
  -6427371.85549  -4986248.38744  21684683.5194   21684679.7574
      2916.6534
    573940.25449    444784.27346  20489767.5894   20489763.5694
      -762.5164
   4634654.62547   3594182.82043  22758442.1984   22758440.3044
     -2778.7514
   2337188.56347   1813015.80143  23106339.1204   23106334.7804
     -1639.0704
   2070123.38349   1603812.43044  22279364.9014   22279360.5544
     -1331.9864
  -7710562.07848  -5987907.92644  21877788.6754   21877785.1444
      3726.5134
 04  9  3 15 26 59.9990000  0  7G 1G11G14G15G19G22G25
  -7751706.62148  -6026202.06243  22518834.6594   22518832.5504
      3751.0584
  -6471008.66049  -5020251.09045  21676380.1054   21676376.4804
      2909.1204
    585467.66449    453766.65646  20491961.1754   20491957.3234
      -768.4944
   4676394.52047   3626707.39143  22766385.0814   22766383.0344
     -2782.6604
   2361845.99647   1832229.37543  23111031.2764   23111026.9834
     -1643.8294
   2090149.55948   1619417.21544  22283175.6594   22283171.3154
     -1335.0784
  -7766375.11748  -6031398.59044  21867167.8554   21867163.9994
      3720.8694
 04  9  3 15 27 14.9990000  0  7G 1G11G14G15G19G22G25
  -7807904.31648  -6069992.45743  22508140.3084   22508138.2414
      3746.5134
  -6514532.65649  -5054165.89544  21668097.7764   21668094.3704
      2901.6004
    597084.17249    462818.46946  20494171.6904   20494167.7844
      -774.4344
   4718192.23847   3659276.99643  22774338.5654   22774337.4954
     -2786.5154
   2386574.03947   1851497.96143  23115736.6514   23115732.8784
     -1648.5364
   2110221.68048   1635057.80944  22286995.7764   22286990.8824
     -1338.1414
  -7822103.56648  -6074823.33244  21856563.1754   21856559.5734
      3715.2304
 04  9  3 15 27 29.9990000  0  7G 1G11G14G15G19G22G25
  -7864033.38748  -6113729.38743  22497459.5034   22497457.2264
      3741.9384
  -6557943.18749  -5087992.28144  21659837.0974   21659833.2454
      2894.0354
    608789.80949    471939.73846  20496399.2304   20496395.2374
      -780.3764
   4760047.94147   3691891.79342  22782303.8084   22782301.8194
     -2790.3804
   2411372.67647   1870821.54343  23120455.7144   23120451.9994
     -1653.2424
   2130340.12548   1650734.50044  22290823.8864   22290819.3194
     -1341.2304
  -7877746.77348  -6118181.67644  21845974.5344   21845971.3044
      3709.5474
 04  9  3 15 27 44.9990000  0  7G 1G11G14G15G19G22G25
  -7920094.07048  -6157413.03543  22486791.7764   22486789.7614
      3737.3794
  -6601240.31649  -5121730.30144  21651597.7694   21651594.0894
      2886.4754
    620584.07049    481130.05546  20498643.5734   20498639.4684
      -786.2844
   4801961.13347   3724551.38342  22790279.0894   22790278.1904
     -2794.2134
   2436241.29747   1890199.66043  23125188.4404   23125183.8904
     -1657.9084
   2150504.44948   1666446.94944  22294660.9564   22294656.2884
     -1344.2884
  -7933304.66848  -6161473.52744  21835402.3624   21835399.1984
      3703.8604
 04  9  3 15 27 59.9990000  0  7G 1G11G14G15G19G22G25
  -7976086.63748  -6201043.60243  22476136.6204   22476134.2184
      3732.8384
  -6644424.29749  -5155380.15244  21643379.9564   21643376.6474
      2878.9324
    632466.32449    490388.94946  20500904.7764   20500900.4564
      -792.1504
   4843931.10247   3757255.21542  22798266.1754   22798264.9644
     -2797.9984
   2461179.06347   1909631.67243  23129933.8784   23129929.2654
     -1662.5184
   2170714.37148   1682194.91844  22298506.9644   22298502.2184
     -1347.3284
  -7988777.32048  -6204698.95744  21824846.1204   21824843.4524
      3698.1774
 04  9  3 15 28 14.9990000  0  7G 1G11G14G15G19G22G25
  -8032011.09848  -6244621.08243  22465494.7764   22465492.1204
      3728.2974
  -6687494.99249  -5188941.72344  21635184.1754   21635180.2574
      2871.3804
    644436.25849    499716.16046  20503182.6054   20503177.9954
      -797.9964
   4885957.44947   3790002.97742  22806262.8704   22806262.2024
     -2801.7574
   2486185.42247   1929117.12543  23134692.5814   23134687.5854
     -1667.0914
   2190969.69948   1697978.27044  22302361.5974   22302356.9444
     -1350.3554
  -8044164.49248  -6247857.78544  21814306.0034   21814303.7064
      3692.4784
 04  9  3 15 28 29.9990000  0  7G 1G11G14G15G19G22G25
  -8087867.70748  -6288145.71543  22454864.8084   22454862.6944
      3723.7744
  -6730452.34049  -5222414.98444  21627009.6054   21627005.7764
      2863.8234
    656493.22749    509111.19146  20505476.9954   20505472.5264
      -803.7984
   4928039.55947   3822794.18442  22814270.9874   22814269.4914
     -2805.4744
   2511259.77348   1948655.55142  23139463.6514   23139459.2614
     -1671.6234
   2211270.10548   1713796.74244  22306224.2374   22306219.7964
     -1353.3604
  -8099466.34048  -6290950.11744  21803782.3554   21803779.7304
      3686.7904
 04  9  3 15 28 44.9990000  0  7G 1G11G14G15G19G22G25
  -8143655.82048  -6331616.97343  22444249.4644   22444246.6014
      3719.2084
  -6773295.72749  -5255799.44545  21618856.4334   21618853.1204
      2856.2264
    668637.48049    518574.23846  20507787.6904   20507783.7184
      -809.6174
   4970177.64547   3855629.01242  22822289.7224   22822288.3974
     -2809.2064
   2536402.07847   1968246.93843  23144248.3624   23144243.2804
     -1676.1544
   2231616.01648   1729650.67644  22310096.1444   22310091.2024
     -1356.3944
  -8154682.08648  -6333975.37144  21793275.1284   21793272.8584
      3681.0504
 04  9  3 15 28 59.9990000  0  7G 1G11G14G15G19G22G25
  -8199375.91448  -6375035.21943  22433646.0894   22433643.4254
      3714.6734
  -6816025.60949  -5289095.46145  21610725.4874   21610721.5934
      2848.6594
    680868.18449    528104.63746  20510115.1674   20510111.6054
      -815.3804
   5012370.78547   3888506.73442  22830319.3084   22830317.2764
     -2812.8764
   2561611.34447   1987890.48843  23149045.7844   23149040.2494
     -1680.6184
   2252006.88748   1745539.64844  22313976.6514   22313971.3904
     -1359.3914
  -8209811.97348  -6376933.72344  21782784.4254   21782782.1794
      3675.3264
 04  9  3 15 29 14.9990000  0  7G 1G11G14G15G19G22G25
  -8255026.96148  -6418399.67643  22423056.3394   22423053.4014
      3710.0704
  -6858640.68049  -5322302.01245  21602616.2534   21602612.4294
      2841.0054
    693185.97749    537702.90646  20512459.2144   20512455.4644
      -821.1864
   5054619.54347   3921427.80142  22838359.7224   22838357.0544
     -2816.5844
   2586888.22348   2007586.71943  23153855.4804   23153850.5894
     -1685.1254
   2272443.54348   1761464.28544  22317865.5894   22317860.2884
     -1362.4444
  -8264854.80948  -6419824.23444  21772310.0344   21772307.4804
      3669.5224
 04  9  3 15 29 29.9990000  0  7G 1G11G14G15G19G22G25
  -8310609.73048  -6461710.91843  22412478.8154   22412476.8784
      3705.5184
  -6901141.55949  -5355419.58645  21594528.5344   21594524.9644
      2833.3924
    705589.80149    547368.21546  20514819.4254   20514815.8554
      -826.9224
   5096922.76247   3954391.30542  22846409.1594   22846406.1874
     -2820.2154
   2612231.36348   2027334.58243  23158678.2454   23158673.3744
     -1689.5434
   2292925.01648   1777423.85244  22321762.8864   22321758.2104
     -1365.4324
  -8319811.09848  -6462647.31244  21761852.5974   21761850.0194
      3663.7534
 04  9  3 15 29 44.9990000  0  7G 1G11G14G15G19G22G25
  -8366123.87548  -6504968.67643  22401914.9334   22401913.2844
      3700.9434
  -6943527.80549  -5388447.83245  21586462.4484   21586458.8864
      2825.7504
    718079.69949    557100.60246  20517196.6364   20517192.4874
      -832.6604
   5139280.52747   3987397.33242  22854469.3944   22854466.7724
     -2823.8514
   2637640.66048   2047134.00843  23163513.8784   23163509.2334
     -1693.9534
   2313451.61748   1793418.57844  22325668.7064   22325664.4374
     -1368.4404
  -8374680.39848  -6505402.60544  21751411.2764   21751408.6014
      3657.9534
 04  9  3 15 29 59.9990000  0  7G 1G11G14G15G19G22G25
  -8421569.74648  -6548173.24643  22391364.3554   22391361.6404
      3696.3914
  -6985799.63749  -5421386.91845  21578419.0654   21578415.0224
      2818.1224
    730654.94549    566899.48446  20519589.2694   20519585.6324
      -838.3504
   5181692.08647   4020445.26242  22862540.4644   22862537.3154
     -2827.4374
   2663115.28547   2066984.33643  23168361.4804   23168356.7024
     -1698.3084
   2334022.82848   1809448.09444  22329583.5894   22329579.1124
     -1371.4144
  -8429462.61348  -6548090.04344  21740986.4014   21740983.5974
      3652.1484
 04  9  3 15 30 14.9990000  0  7G 1G11G14G15G19G22G25
  -8476947.74648  -6591324.93443  22380826.2144   22380823.0114
      3691.8674
  -7027957.23849  -5454237.00445  21570396.0584   21570392.3664
      2810.5074
    743314.84049    576764.32046  20521998.4484   20521994.8044
      -843.9934
   5224156.59447   4053534.44943  22870620.8554   22870618.1984
     -2830.9674
   2688654.34848   2086884.86743  23173221.5034   23173216.5074
     -1702.6044
   2354638.12548   1825511.93044  22333506.4404   22333502.2724
     -1374.3534
  -8484158.00448  -6590709.81644  21730578.5344   21730575.4954
      3646.3594
 04  9  3 15 30 29.9990000  0  7G 1G11G14G15G19G22G25
  -8532256.66048  -6634422.79343  22370301.3394   22370298.3084
      3687.2614
  -7069999.20749  -5486996.97745  21562396.3394   21562391.8234
      2802.7984
    756060.21149    586695.77046  20524423.4804   20524420.4334
      -849.6914
   5266674.85547   4086665.51242  22878711.9954   22878709.5504
     -2834.5514
   2714258.54347   2106836.17243  23178093.4484   23178088.6554
     -1706.9464
   2375298.66448   1841611.03144  22337438.1904   22337433.8554
     -1377.3694
  -8538765.14848  -6633260.84044  21720186.8084   21720183.8514
      3640.4764
 04  9  3 15 30 44.9990000  0  7G 1G11G14G15G19G22G25
  -8587497.65648  -6677467.71143  22359789.1364   22359786.3234
      3682.7334
  -7111926.77349  -5519667.81244  21554417.4874   21554413.1514
      2795.1714
    768889.50849    596692.61346  20526865.1514   20526861.6674
      -855.2864
   5309245.30147   4119837.22742  22886813.0814   22886810.9054
     -2838.0304
   2739926.27347   2126836.98843  23182977.9254   23182973.0974
     -1711.1824
   2396003.08648   1857744.33244  22341378.0654   22341373.7574
     -1380.2954
  -8593285.22748  -6675744.00844  21709811.7304   21709808.8044
      3634.6724
 04  9  3 15 30 59.9990000  0  7G 1G11G14G15G19G22G25
  -8642670.05148  -6720459.17243  22349290.4954   22349287.3944
      3678.1604
  -7153739.12949  -5552248.88344  21546460.7924   21546456.5504
      2787.4904
    781803.02049    606755.07446  20529322.5504   20529319.0734
      -860.9014
   5351868.16447   4153049.79743  22894923.8864   22894921.9374
     -2841.5244
   2765657.61347   2146887.35543  23187874.2454   23187869.4564
     -1715.4234
   2416751.90648   1873912.21543  22345326.2064   22345321.9334
     -1383.2554
  -8647717.20348  -6718158.53144  21699453.6514   21699450.7964
      3628.7984
 04  9  3 15 31 14.9990000  0  7G 1G11G14G15G19G22G25
  -8697771.93748  -6763395.69543  22338804.1514   22338802.1164
      3673.4594
  -7195434.23849  -5584738.57845  21538526.3784   21538522.1674
      2779.6744
    794802.36749    616884.42246  20531796.3154   20531792.8704
      -866.6234
   5394545.06647   4186304.47742  22903045.1514   22903043.5074
     -2845.1274
   2791453.96147   2166988.35943  23192783.3554   23192778.4834
     -1719.7574
   2437546.92648   1890116.10944  22349283.5654   22349279.7764
     -1386.3354
  -8702058.93748  -6760502.72744  21689112.9094   21689109.5814
      3622.7824
 04  9  3 15 31 29.9990000  0  7G 1G11G14G15G19G22G25
  -8752804.67248  -6806278.34443  22328332.0734   22328329.2534
      3668.8494
  -7237013.22749  -5617137.79345  21530614.3784   21530609.8234
      2771.9334
    807885.83249    627079.32446  20534286.0344   20534282.3084
      -872.2314
   5437274.25047   4219599.91842  22911176.1904   22911174.9644
     -2848.6124
   2817313.62147   2187138.72343  23197704.3394   23197699.4214
     -1723.9774
   2458386.75048   1906354.90244  22353249.2924   22353245.1554
     -1389.3224
  -8756311.64548  -6802777.56644  21678789.1444   21678785.9254
      3616.8474
 04  9  3 15 31 44.9990000  0  7G 1G11G14G15G19G22G25
  -8807769.03547  -6849107.71143  22317872.5264   22317870.0584
      3664.2914
  -7278476.70349  -5649447.00045  21522724.0264   21522719.5694
      2764.2324
    821052.23049    637338.84446  20536791.4484   20536787.8784
      -877.7604
   5480054.48447   4252935.12142  22919316.7694   22919315.7534
     -2852.0164
   2843235.19548   2207337.31343  23202637.5344   23202632.5074
     -1728.1054
   2479270.35548   1922627.81344  22357223.5344   22357218.9054
     -1392.2404
  -8810476.00448  -6844983.55144  21668482.0504   21668478.8084
      3610.9574
 04  9  3 15 31 59.9990000  0  7G 1G11G14G15G19G22G25
  -8862663.59048  -6891882.68043  22307426.2224   22307424.3904
      3659.6374
  -7319823.19949  -5681665.05545  21514855.8474   21514851.8354
      2756.4334
    834302.71949    647663.88746  20539312.8004   20539308.9444
      -883.3664
   5522886.91847   4286310.98042  22927467.7844   22927466.8474
     -2855.4964
   2869219.71548   2227584.96943  23207581.8704   23207576.6714
     -1732.3014
   2500199.13748   1938935.93443  22361205.5734   22361201.4294
     -1395.2524
  -8864550.31248  -6887119.37944  21658191.9014   21658188.4174
      3604.9544
 04  9  3 15 32 14.9990000  0  7G 1G11G14G15G19G22G25
  -8917489.91048  -6934604.47343  22296993.3784   22296990.9564
      3655.0884
  -7361054.19549  -5713793.10545  21507010.1834   21507006.1404
      2748.7334
    847635.27749    658052.88746  20541849.7924   20541846.6324
      -888.8374
   5565769.49247   4319725.91842  22935628.0424   22935626.7104
     -2858.8384
   2895264.93048   2247879.91443  23212538.1834   23212533.4094
     -1736.3484
   2521171.35248   1955277.90243  22365197.0194   22365192.2414
     -1398.1484
  -8918535.91448  -6929186.08244  21647918.7064   21647915.6404
      3599.0404
 04  9  3 15 32 29.9990000  0  7G 1G11G14G15G19G22G25
  -8972247.57048  -6977272.76643  22286573.5894   22286571.3354
      3650.5114
  -7402169.05149  -5745830.64545  21499186.3554   21499182.2574
      2740.9904
    861050.12949    668506.01246  20544402.8234   20544399.3944
      -894.3234
   5608702.28147   4353179.99642  22943798.3624   22943797.0344
     -2862.1864
   2921371.00048   2268222.28143  23217505.5034   23217501.3904
     -1740.4054
   2542187.21548   1971653.87943  22369195.9254   22369191.9134
     -1401.0584
  -8972432.13348  -6971183.13344  21637662.5814   21637659.4174
      3593.0814
 04  9  3 15 32 44.9990000  0  7G 1G11G14G15G19G22G25
  -9026935.66048  -7019886.86344  22276166.8624   22276164.1284
      3645.8734
  -7443166.63749  -5777776.82045  21491384.8474   21491380.7334
      2733.1724
    874547.95349    679023.77746  20546971.4564   20546967.7454
      -899.8554
   5651685.89147   4386673.67642  22951977.7614   22951976.0464
     -2865.5744
   2947538.39548   2288612.43043  23222485.7374   23222481.0814
     -1744.4934
   2563247.62148   1988064.55943  22373203.2764   22373199.3904
     -1404.0274
  -9026237.86348  -7013109.66844  21627423.4564   21627421.0224
      3587.0494
 04  9  3 15 32 59.9990000  0  7G 1G11G14G15G19G22G25
  -9081556.12947  -7062448.25843  22265773.0894   22265770.6324
      3641.3654
  -7484048.79749  -5809633.05145  21483605.1834   21483601.0934
      2725.4774
    888126.35949    689604.34446  20549555.2844   20549551.8704
      -905.2274
   5694717.85247   4420205.02042  22960165.7144   22960165.2924
     -2868.7974
   2973764.56348   2309048.37543  23227475.8624   23227472.1474
     -1748.4114
   2584350.52048   2004508.35544  22377219.3394   22377215.1284
     -1406.8604
  -9079954.83648  -7054967.04344  21617201.4724   21617199.4404
      3581.1324
 04  9  3 15 33 14.9990000  0  7G 1G11G14G15G19G22G25
  -9136107.77046  -7104956.02043  22255391.5734   22255390.0734
      3636.7764
  -7524814.46149  -5841398.50845  21475847.3554   21475843.8274
      2717.7114
    901786.09849    700248.27746  20552154.8864   20552151.1514
      -910.6494
   5737798.96947   4453774.69142  22968364.2064   22968363.4014
     -2872.0744
   3000050.20348   2329530.65643  23232478.4254   23232473.9684
     -1752.3764
   2605496.95748   2020986.08644  22381243.3474   22381239.2534
     -1409.7624
  -9133581.73848  -7096754.24644  21606996.8004   21606994.5584
      3575.1274
 04  9  3 15 33 29.9990000  0  7G 1G11G14G15G19G22G25
  -9190589.82847  -7147409.57444  22245024.3004   22245022.3354
      3632.1374
  -7565462.54349  -5873072.34045  21468112.7614   21468108.4134
      2709.8724
    915527.60549    710955.94546  20554769.3624   20554765.9334
      -916.1014
   5780929.70746   4487383.02042  22976571.6444   22976571.0154
     -2875.3834
   3026395.54747   2350059.46943  23237491.7614   23237487.3784
     -1756.3564
   2626687.62548   2037498.27343  22385276.4174   22385271.8554
     -1412.7114
  -9187117.39548  -7138470.32845  21596809.3554   21596807.1054
      3569.0444
 04  9  3 15 33 44.9990000  0  7G 1G11G14G15G19G22G25
  -9245002.08247  -7189808.72744  22234669.6594   22234668.3944
      3627.4844
  -7605992.69949  -5904654.27745  21460399.8864   21460396.2104
      2702.0104
    929350.82449    721727.27046  20557400.1444   20557396.3474
      -921.5484
   5824109.84847   4521029.82442  22984788.4254   22984787.8744
     -2878.6764
   3052800.31348   2370634.57843  23242516.3554   23242511.9834
     -1760.3184
   2647922.51248   2054044.91443  22389316.7844   22389312.2264
     -1415.6594
  -9240561.62948  -7180115.19544  21586639.2454   21586637.1364
      3562.9494
 04  9  3 15 33 59.9990000  0  7G 1G11G14G15G19G22G25
  -9299344.96148  -7232153.80944  22224328.3314   22224327.0894
      3622.8594
  -7646405.20349  -5936144.54345  21452709.9094   21452705.6124
      2694.1674
    943254.94949    732561.64846  20560045.7454   20560042.0384
      -926.9424
   5867338.61747   4554714.55942  22993015.1754   22993013.9094
     -2881.9184
   3079263.72348   2391255.39143  23247552.0504   23247548.6364
     -1764.2274
   2669201.07848   2070625.60244  22393366.1904   22393361.2694
     -1418.5714
  -9293914.55548  -7221688.89544  21576486.6124   21576484.0224
      3556.8624
 04  9  3 15 34 14.9990000  0  7G 1G11G14G15G19G22G25
  -9353618.59447  -7274444.93044  22214000.5034   22213998.9834
      3618.2424
  -7686700.16449  -5967543.22745  21445041.7844   21445037.9724
      2686.3314
    957239.65249    743458.81346  20562707.2924   20562703.3584
      -932.3144
   5910615.43047   4588436.70742  23001250.0504   23001249.5854
     -2885.1214
   3105785.00848   2411921.30543  23252598.9644   23252595.4644
     -1768.0864
   2690523.03148   2087240.09043  22397423.5344   22397419.1364
     -1421.4644
  -9347176.19948  -7263191.46944  21566351.1904   21566348.4094
      3550.7764
 04  9  3 15 34 29.9990000  0  7G 1G11G14G15G19G22G25
  -9407823.95348  -7316682.86744  22203685.6444   22203683.4334
      3613.6914
  -7726878.39149  -5998850.93745  21437396.1364   21437392.3084
      2678.5484
    971303.37549    754417.54746  20565383.4724   20565379.7184
      -937.5824
   5953938.92246   4622195.22742  23009493.9724   23009493.4484
     -2888.2334
   3132362.75847   2432631.21143  23257656.6444   23257652.8434
     -1771.8504
   2711887.34448   2103887.57444  22401489.0034   22401484.5194
     -1424.2874
  -9400347.28148  -7304623.47744  21556233.0424   21556230.4804
      3544.7394
 04  9  3 15 34 44.9990000  0  7G 1G11G14G15G19G22G25
  -9461959.80147  -7358866.63744  22193384.4564   22193382.0304
      3609.0574
  -7766938.38348  -6030066.51645  21429772.9404   21429769.2924
      2670.6664
    985447.14149    765438.65246  20568075.3864   20568071.2024
      -942.9184
   5997310.07446   4655990.88742  23017747.7924   23017746.6594
     -2891.4104
   3158997.79748   2453385.75443  23262725.0424   23262721.2374
     -1775.6694
   2733295.14148   2120568.94943  22405562.6904   22405558.1554
     -1427.1864
  -9453426.28948  -7345983.74644  21546132.2614   21546129.8194
      3538.6014
 04  9  3 15 34 59.9990000  0  7G 1G11G14G15G19G22G25
  -9516025.55547  -7400995.78544  22183095.8234   22183093.9874
      3604.3844
  -7806879.53949  -6061189.48845  21422172.4484   21422168.7184
      2662.7444
    999671.19949    776522.32846  20570781.6364   20570777.8864
      -948.2714
   6040728.99247   4689823.77042  23026010.7224   23026009.1794
     -2894.5954
   3185690.18447   2474185.00043  23267804.4404   23267800.0154
     -1779.4924
   2754746.80948   2137284.51644  22409645.2614   22409640.1054
     -1430.1114
  -9506412.49249  -7387271.68045  21536049.7064   21536046.6554
      3532.4144
 04  9  3 15 35 14.9990000  0  7G 1G11G14G15G19G22G25
  -9570022.10947  -7443071.01244  22172820.5894   22172818.5384
      3599.7704
  -7846702.58249  -6092220.43445  21414594.4804   21414590.5814
      2654.8704
   1013974.34049    787667.62146  20573503.1984   20573499.3084
      -953.5434
   6084194.34046   4723692.85242  23034280.7374   23034280.3704
     -2897.6904
   3212438.52747   2495027.83243  23272894.1594   23272890.2454
     -1783.2234
   2776241.43048   2154033.55944  22413735.4484   22413730.1054
     -1432.9754
  -9559306.62948  -7428487.88344  21525984.3784   21525981.1054
      3526.2764
 04  9  3 15 35 29.9990000  0  7G 1G11G14G15G19G22G25
  -9623948.89147  -7485091.87544  22162558.3474   22162556.3624
      3595.1194
  -7886406.89549  -6123158.85545  21407038.7694   21407035.1794
      2646.9544
   1028356.71549    798874.65246  20576240.3704   20576236.5154
      -958.8254
   6127706.39846   4757598.28942  23042561.9174   23042560.8664
     -2900.8044
   3239242.80947   2515914.24643  23277994.7304   23277990.6444
     -1786.9524
   2797779.45348   2170816.40644  22417834.1054   22417829.2374
     -1435.8684
  -9612107.91848  -7469631.73845  21515936.5584   21515933.4564
      3520.0864
 04  9  3 15 35 44.9990000  0  7G 1G11G14G15G19G22G25
  -9677804.87547  -7527057.58643  22152310.0344   22152308.2924
      3590.3994
  -7925991.37549  -6154003.91445  21399506.5034   21399502.1714
      2638.9654
   1042819.06649    810144.01246  20578992.3554   20578988.9334
      -964.1574
   6171265.74647   4791540.58242  23050850.3944   23050848.9374
     -2903.9574
   3266103.75048   2536844.81343  23283106.7454   23283102.7454
     -1790.7294
   2819361.66448   2187633.67244  22421940.9014   22421935.6984
     -1438.8144
  -9664815.14548  -7510702.28145  21505906.4724   21505903.5694
      3513.8154
 04  9  3 15 35 59.9990000  0  7G 1G11G14G15G19G22G25
  -9731591.19947  -7568968.97743  22142074.9484   22142073.3194
      3585.7554
  -7965456.84049  -6184756.23045  21391996.4404   21391992.1594
      2631.0314
   1057359.87949    821474.50846  20581759.1904   20581755.6984
      -969.3874
   6214870.82847   4825518.53942  23059148.3314   23059146.6404
     -2907.0054
   3293019.67247   2557818.20343  23288229.0974   23288224.7024
     -1794.3954
   2840986.88748   2204484.47744  22426056.3554   22426051.5734
     -1441.6824
  -9717429.19148  -7551700.23845  21495894.5504   21495891.0464
      3507.6034
 04  9  3 15 36 14.9990000  0  7G 1G11G14G15G19G22G25
  -9785307.56247  -7610825.87544  22131853.0264   22131851.0854
      3581.0914
  -8004803.01649  -6215415.59045  21384509.0504   21384504.6714
      2623.0784
   1071979.15649    832866.14146  20584541.4404   20584537.9014
      -974.6184
   6258521.62946   4859532.09442  23067454.7374   23067452.9564
     -2910.0534
   3319990.28547   2578834.24243  23293360.9874   23293357.1594
     -1798.0414
   2862655.25448   2221368.90244  22430179.4644   22430175.1594
     -1444.5584
  -9769949.58648  -7592625.20745  21485900.0974   21485897.1124
      3501.3604
 04  9  3 15 36 29.9990000  0  7G 1G11G14G15G19G22G25
  -9838953.37147  -7652627.80144  22121644.1834   22121642.3704
      3576.3874
  -8044029.10249  -6245981.37545  21377044.4954   21377040.4444
      2615.0724
   1086677.15249    844319.10946  20587338.4014   20587334.8974
      -979.8664
   6302218.28946   4893581.40242  23075770.4094   23075768.3864
     -2913.1114
   3347015.68447   2599892.96542  23298503.7224   23298498.9444
     -1801.6934
   2884367.21147   2238287.28944  22434311.1754   22434307.1244
     -1447.4644
  -9822375.56248  -7633476.60945  21475923.8554   21475920.9214
      3495.0654
 04  9  3 15 36 44.9990000  0  7G 1G11G14G15G19G22G25
  -9892529.52347  -7694375.44544  22111449.2144   22111446.9764
      3571.7434
  -8083135.92648  -6276454.23845  21369602.5734   21369598.2844
      2607.1224
   1101452.60249    855832.43846  20590149.9724   20590146.0194
      -985.0304
   6345959.53947   4927665.44142  23084093.9014   23084091.8704
     -2916.0834
   3374094.57447   2620993.36343  23303656.0114   23303651.9804
     -1805.2594
   2906121.78548   2255238.87944  22438450.8154   22438446.6014
     -1450.3054
  -9874707.78949  -7674254.95345  21465965.1904   21465962.1244
      3488.8154
 04  9  3 15 36 59.9990000  0  7G 1G11G14G15G19G22G25
  -9946035.45348  -7736068.36344  22101267.4404   22101265.2724
      3567.0624
  -8122122.75849  -6306833.59045  21362183.3864   21362179.2334
      2599.1224
   1116305.78149    867406.32846  20592976.3624   20592972.5774
      -990.2124
   6389745.50047   4961784.34442  23092425.7224   23092423.7764
     -2919.0644
   3401226.98847   2642135.48043  23308819.2924   23308815.5654
     -1808.8284
   2927919.48447   2272224.07844  22442598.6834   22442594.2614
     -1453.1804
  -9926945.58249  -7714959.71945  21456024.9724   21456021.4014
      3482.5204
 04  9  3 15 37 14.9990000  0  7G 1G11G14G15G19G22G25
  -9999472.03147  -7777707.25444  22091099.0344   22091096.9444
      3562.4394
  -8160990.30548  -6337119.99645  21354787.2144   21354783.1324
      2591.1704
   1131235.50849    879039.87145  20595817.7844   20595813.5544
      -995.3154
   6433575.01247   4995937.17242  23100766.4724   23100764.7334
     -2921.9674
   3428411.67647   2663318.31342  23313992.7534   23313988.8194
     -1812.3124
   2949759.27748   2289242.08244  22446754.7454   22446750.4834
     -1455.9864
  -9979089.57048  -7755591.38345  21446102.0814   21446099.1984
      3476.2664
 04  9  3 15 37 29.9980000  0  7G 1G11G14G15G19G22G25
 -10052834.77347  -7819288.59844  22080944.1154   22080941.9394
      3557.5164
  -8199735.04748  -6367310.70345  21347414.4594   21347410.4514
      2582.9834
   1146241.29749    890732.69146  20598673.0144   20598668.8854
     -1000.3864
   6477445.65647   5030122.04742  23109114.7404   23109113.0494
     -2924.7104
   3455647.15247   2684540.72742  23319175.1624   23319172.0294
     -1815.6984
   2971640.51647   2306292.37544  22450918.9124   22450914.4864
     -1458.7494
 -10031135.12549  -7796146.35245  21436198.0614   21436195.2994
      3469.7044
 04  9  3 15 37 44.9980000  0  7G 1G11G14G15G19G22G25
 -10106130.13348  -7860817.43744  22070802.5684   22070800.5294
      3553.0244
  -8238361.30949  -6397409.09445  21340064.2484   21340059.8854
      2575.0844
   1161325.55949    902486.65645  20601543.5614   20601539.6704
     -1005.6174
   6521363.69547   5064343.82842  23117472.2014   23117470.6314
     -2927.8694
   3482937.33247   2705805.76642  23324368.6154   23324365.8384
     -1819.3454
   2993566.64848   2323377.64844  22455091.2484   22455087.0224
     -1461.7424
 -10083088.28149  -7836629.31644  21426312.0064   21426308.5844
      3463.5444
 04  9  3 15 37 59.9980000  0  7G 1G11G14G15G19G22G25
 -10159354.91448  -7902291.28544  22060674.2874   22060671.7404
      3548.3194
  -8276866.53549  -6427413.16845  21332737.0844   21332733.0334
      2567.0154
   1176486.62149    914300.46146  20604428.2094   20604424.8264
     -1010.7374
   6565325.45347   5098599.70342  23125838.3504   23125836.4674
     -2930.7844
   3510279.49647   2727111.32042  23329571.5844   23329568.1474
     -1822.8114
   3015535.74248   2340496.40244  22459271.5684   22459267.9794
     -1464.6064
 -10134945.76249  -7877037.74245  21416443.7254   21416441.1544
      3457.1654
 04  9  3 15 38 14.9980000  0  7G 1G11G14G15G19G22G25
 -10212509.45748  -7943710.41044  22050558.9674   22050556.7324
      3543.6364
  -8315251.26249  -6457323.35245  21325432.4284   21325428.5494
      2558.9824
   1191723.66449    926173.46146  20607328.0764   20607324.5374
     -1015.8034
   6609330.05147   5132888.95342  23134212.0684   23134210.4284
     -2933.6404
   3537672.88347   2748456.78542  23334784.6474   23334780.7094
     -1826.2264
   3037547.30148   2357648.24644  22463460.1784   22463456.4434
     -1467.4374
 -10186707.83249  -7917371.80545  21406593.4124   21406591.2684
      3450.8054
 04  9  3 15 38 29.9980000  0  7G 1G11G14G15G19G22G25
 -10265593.60948  -7985074.67644  22040457.4824   22040455.0454
      3538.9434
  -8353515.09449  -6487139.32445  21318151.0534   21318147.0294
      2550.9224
   1207036.67249    938105.66846  20610242.3184   20610238.4244
     -1020.8674
   6653377.36747   5167211.48842  23142593.8034   23142592.4824
     -2936.4884
   3565117.11347   2769841.86742  23340006.9824   23340003.4394
     -1829.6154
   3059601.44148   2374833.26244  22467657.2484   22467653.1544
     -1470.2764
 -10238373.92249  -7957631.08244  21396761.8264   21396758.6274
      3444.4064
 04  9  3 15 38 44.9980000  0  7G 1G11G14G15G19G22G25
 -10318607.62548  -8026384.28544  22030369.1784   22030366.6504
      3534.2684
  -8391658.18449  -6516861.21145  21310892.8734   21310888.9364
      2542.8734
   1222424.98449    950096.55146  20613170.0844   20613166.8424
     -1025.8874
   6697466.66447   5201566.74242  23150984.4904   23150982.5374
     -2939.2864
   3592611.46947   2791266.00043  23345239.0844   23345235.6004
     -1832.9574
   3081697.73848   2392051.13344  22471861.8264   22471857.8814
     -1473.0864
 -10289944.18449  -7997815.69545  21386948.7094   21386945.0644
      3438.0174
 04  9  3 15 38 59.9980000  0  7G 1G11G14G15G19G22G25
 -10371550.70748  -8067638.62544  22020294.6624   22020292.6354
      3529.5394
  -8429679.65249  -6546488.34045  21303657.5534   21303653.1664
      2534.7654
   1237889.12149    962146.51646  20616113.1074   20616109.3544
     -1030.9424
   6741598.39147   5235955.04742  23159382.2324   23159380.1354
     -2942.1154
   3620156.25047   2812729.41442  23350480.4594   23350476.8544
     -1836.3194
   3103836.88348   2409302.38344  22476075.2014   22476070.7324
     -1475.9434
 -10341417.73049  -8037924.94144  21377153.2724   21377150.1274
      3431.5704
 04  9  3 15 39 14.9980000  0  7G 1G11G14G15G19G22G25
 -10424423.74648  -8108838.39144  22010233.6704   22010231.1234
      3524.8694
  -8467580.17249  -6576021.22345  21296445.1624   21296441.1864
      2526.7014
   1253427.78949    974254.56645  20619069.8574   20619066.0724
     -1035.9114
   6785771.21947   5270375.41042  23167787.6624   23167785.7794
     -2944.8554
   3647750.05947   2834231.07042  23355732.3034   23355726.7214
     -1839.5874
   3126017.81349   2426586.20744  22480296.3184   22480291.4434
     -1478.7294
 -10392795.13349  -8077959.27745  21367376.3264   21367373.3144
      3425.1604
 04  9  3 15 39 29.9980000  0  7G 1G11G14G15G19G22G25
 -10477227.34048  -8149984.03944  22000185.4824   22000182.6664
      3520.2404
  -8505360.39849  -6605460.35945  21289255.9984   21289251.6934
      2518.6824
   1269040.09049    986419.98045  20622040.7174   20622037.3074
     -1040.8204
   6829984.19547   5304827.03942  23176200.5614   23176199.4044
     -2947.5324
   3675391.74247   2855770.00842  23360991.7174   23360987.0254
     -1842.7794
   3148239.81348   2443902.02344  22484525.2094   22484520.8544
     -1481.4674
 -10444076.76649  -8117918.98045  21357617.8184   21357614.2404
      3418.7764
 04  9  3 15 39 44.9980000  0  7G 1G11G14G15G19G22G25
 -10529960.17648  -8191074.55144  21990150.2954   21990148.5184
      3515.5224
  -8543018.77049  -6634804.54745  21282089.7094   21282085.4084
      2510.5584
   1284726.98449    998643.52345  20625026.0294   20625022.1744
     -1045.7934
   6874238.35547   5339310.73442  23184622.3344   23184621.6114
     -2950.2774
   3703082.30147   2877347.02742  23366261.1314   23366256.2644
     -1846.0374
   3170504.16848   2461250.84444  22488761.8264   22488757.4434
     -1484.2904
 -10495261.17249  -8157802.92245  21347877.9824   21347874.3344
      3412.2944
 04  9  3 15 39 59.9980000  0  7G 1G11G14G15G19G22G25
 -10582621.16448  -8232109.07844  21980129.4754   21980126.9394
      3510.7334
  -8580553.96949  -6664052.75845  21274947.2014   21274943.0644
      2502.3474
   1300489.23049   1010925.78545  20628025.7174   20628021.8934
     -1050.8164
   6918534.36747   5373827.05942  23193052.3814   23193050.7644
     -2953.0674
   3730822.22347   2898962.52042  23371539.8184   23371535.4754
     -1849.3284
   3192811.82048   2478633.41044  22493006.6074   22493002.1474
     -1487.1774
 -10546347.09849  -8197610.12945  21338156.6004   21338153.2794
      3405.7284
 04  9  3 15 40 14.9980000  0  7G 1G11G14G15G19G22G25
 -10635212.78948  -8273089.56244  21970121.1704   21970118.9984
      3506.1084
  -8617968.65249  -6693207.06245  21267827.4594   21267823.1504
      2494.3124
   1316324.03549   1023264.58645  20631038.9674   20631034.9864
     -1055.6544
   6962869.34447   5408373.74242  23201488.9044   23201487.2254
     -2955.6654
   3758608.57447   2920614.19142  23376827.5374   23376822.8144
     -1852.4234
   3215160.22348   2496047.72344  22497259.3424   22497254.8974
     -1489.8934
 -10597336.78549  -8237342.35244  21328453.6934   21328450.1544
      3399.3134
 04  9  3 15 40 29.9980000  0  7G 1G11G14G15G19G22G25
 -10687733.60548  -8314014.87544  21960127.3114   21960124.8034
      3501.3884
  -8655260.93049  -6722265.98445  21260730.8974   21260726.9714
      2486.1524
   1332232.53149   1035660.80545  20634066.1074   20634062.4824
     -1060.5664
   7007244.31347   5442951.58242  23209932.6234   23209931.6624
     -2958.3314
   3786442.39847   2942302.86342  23382123.6154   23382119.7644
     -1855.5884
   3237550.61348   2513494.74244  22501520.2564   22501515.8894
     -1492.6934
 -10648228.64549  -8276998.32845  21318768.9204   21318765.6544
      3392.7914
 04  9  3 15 40 44.9980000  0  7G 1G11G14G15G19G22G25
 -10740183.88748  -8354885.21544  21950145.9204   21950143.9164
      3496.6854
  -8692431.10249  -6751229.75445  21253657.8574   21253653.2254
      2478.0114
   1348214.19149   1048114.03145  20637107.4984   20637103.8074
     -1065.4444
   7051658.75847   5477560.18842  23218383.8974   23218383.6584
     -2960.9634
   3814322.96147   2964027.95342  23387429.6314   23387425.0724
     -1858.7044
   3259982.72748   2530974.28544  22505788.9514   22505784.2874
     -1495.4744
 -10699022.73049  -8316578.12545  21309103.4044   21309100.3464
      3386.2724
 04  9  3 15 40 59.9980000  0  7G 1G11G14G15G19G22G25
 -10792563.35248  -8395700.36744  21940178.2484   21940176.3774
      3491.9644
  -8729478.60549  -6780097.94545  21246607.8504   21246603.5024
      2469.8344
   1364268.85949   1060624.15645  20640162.2794   20640158.3384
     -1070.3114
   7096112.49647   5512199.41442  23226843.4434   23226842.3894
     -2963.5834
   3842249.90647   2985789.20342  23392744.0614   23392739.4904
     -1861.7964
   3282456.62548   2548486.39844  22510065.5374   22510060.5144
     -1498.2604
 -10749718.64849  -8356081.43745  21299455.9284   21299453.3734
      3379.7284
 04  9  3 15 41 14.9980000  0  7G 1G11G14G15G19G22G25
 -10844872.89147  -8436461.03544  21930224.6074   21930221.9124
      3487.3034
  -8766404.27748  -6808871.20345  21239581.1394   21239576.7724
      2461.7114
   1380395.27049   1073190.18445  20643231.1074   20643227.1894
     -1075.0944
   7140604.12547   5546868.17242  23235310.2094   23235309.6004
     -2966.1094
   3870221.93447   3007585.55542  23398067.0374   23398062.8384
     -1864.8024
   3304971.28148   2566030.27344  22514350.0454   22514345.1584
     -1500.9774
 -10800317.02749  -8395508.73845  21289827.8184   21289824.9474
      3373.2254
 04  9  3 15 41 29.9980000  0  7G 1G11G14G15G19G22G25
 -10897112.37948  -8477167.12544  21920283.4754   21920281.4394
      3482.6334
  -8803208.07049  -6837549.49645  21232577.4824   21232573.0184
      2453.5864
   1396593.36349   1085812.06345  20646313.6004   20646309.7324
     -1079.8734
   7185133.54747   5581566.40242  23243783.8504   23243783.3344
     -2968.6284
   3898238.72747   3029416.80942  23403398.0454   23403394.5254
     -1867.7864
   3327526.75848   2583605.93844  22518642.2014   22518637.5724
     -1503.6984
 -10850817.49649  -8434859.74645  21280217.9044   21280214.9204
      3366.6984
 04  9  3 15 41 44.9980000  0  7G 1G11G14G15G19G22G25
 -10949280.12147  -8517817.30944  21910356.1624   21910354.0724
      3477.8494
  -8839887.92648  -6866131.20745  21225597.5614   21225593.0884
      2445.3244
   1412864.40649   1098490.79346  20649409.8894   20649406.2054
     -1084.7364
   7229702.03547   5616295.01242  23252265.1394   23252264.0844
     -2971.2334
   3926301.46947   3051283.83643  23408738.6474   23408734.3114
     -1870.8494
   3350124.68048   2601214.68444  22522942.4594   22522937.6114
     -1506.5284
 -10901218.15649  -8474132.97745  21270626.8184   21270624.3464
      3360.0444
 04  9  3 15 41 59.9980000  0  7G 1G11G14G15G19G22G25
 -11001377.26648  -8558412.46944  21900442.7874   21900440.1004
      3473.1434
  -8876445.06649  -6894617.29345  21218641.2094   21218636.6114
      2437.1434
   1429207.06649   1111225.32445  20652520.0144   20652516.1934
     -1089.5114
   7274308.10947   5651052.93042  23260752.8894   23260753.0454
     -2973.7384
   3954408.57447   3073185.46143  23414087.4514   23414082.9284
     -1873.8074
   3372763.79748   2618855.53144  22527250.2404   22527246.2794
     -1509.2744
 -10951520.08249  -8513329.27345  21261054.8814   21261052.1194
      3353.4624
 04  9  3 15 42 14.9980000  0  7G 1G11G14G15G19G22G25
 -11053402.87147  -8598951.89544  21890542.3114   21890540.1314
      3468.3744
  -8912878.43048  -6923006.93045  21211708.2174   21211703.6584
      2428.8914
   1445621.89849   1124016.09445  20655643.5374   20655640.2324
     -1094.3224
   7318952.30947   5685840.54342  23269248.4434   23269248.9474
     -2976.2804
   3982560.43447   3095121.95742  23419444.9594   23419440.6044
     -1876.7914
   3395444.86748   2636529.07044  22531566.6154   22531561.9904
     -1512.0714
 -11001722.16049  -8552447.77345  21251501.6624   21251498.8694
      3346.8054
 04  9  3 15 42 29.9980000  0  7G 1G11G14G15G19G22G25
 -11105357.43747  -8639435.97344  21880655.6544   21880653.4204
      3463.6384
  -8949188.28149  -6951300.32845  21204798.5144   21204794.1744
      2420.6574
   1462108.01649   1136862.40245  20658780.4674   20658777.4514
     -1099.0744
   7363633.74247   5720657.19542  23277751.5684   23277751.0724
     -2978.7624
   4010756.18447   3117092.62943  23424810.3264   23424805.8544
     -1879.7174
   3418167.31648   2654234.84444  22535890.6544   22535885.0924
     -1514.8304
 -11051824.64149  -8591488.65645  21241967.1314   21241964.5964
      3340.1654
 04  9  3 15 42 44.9980000  0  7G 1G11G14G15G19G22G25
 -11157241.22748  -8679864.88744  21870782.6784   21870780.1784
      3458.9194
  -8985374.74649  -6979497.58245  21197912.4204   21197908.4434
      2412.4314
   1478664.92249   1149763.87945  20661931.2174   20661927.6234
     -1103.7944
   7408351.87546   5755502.45342  23286260.0924   23286260.9244
     -2981.2094
   4038995.08247   3139096.94143  23430183.7014   23430179.4634
     -1882.5934
   3440930.83648   2671972.63344  22540222.3974   22540217.8384
     -1517.5684
 -11101827.43449  -8630451.87145  21232452.0374   21232448.9754
      3333.5204
 04  9  3 15 42 59.9980000  0  7G 1G11G14G15G19G22G25
 -11209053.62947  -8720238.17644  21860923.1544   21860920.9474
      3454.1604
  -9021437.13748  -7007598.14545  21191049.9754   21191046.2914
      2404.1594
   1495292.88349   1162720.72345  20665095.4204   20665091.7294
     -1108.5314
   7453106.96947   5790376.49642  23294777.1474   23294777.3614
     -2983.6734
   4067277.27047   3161134.97343  23435565.8814   23435561.6504
     -1885.4794
   3463735.80148   2689742.71144  22544561.8504   22544557.3114
     -1520.3314
 -11151729.76249  -8669336.78945  21222955.9204   21222952.8504
      3326.8224
 04  9  3 15 43 14.9980000  0  7G 1G11G14G15G19G22G25
 -11260794.64148  -8760555.83644  21851076.9904   21851075.3694
      3449.4014
  -9057375.37149  -7035601.97345  21184211.4984   21184207.3304
      2395.8824
   1511991.54349   1175732.65645  20668273.1784   20668269.6074
     -1113.2444
   7497898.51647   5825278.94542  23303301.1864   23303301.1274
     -2986.1034
   4095602.20747   3183206.30542  23440955.4124   23440951.5064
     -1888.3294
   3486582.13748   2707545.01644  22548909.4984   22548904.9904
     -1523.0894
 -11201531.55149  -8708143.36745  21213478.9594   21213475.7954
      3320.1194
 04  9  3 15 43 29.9980000  0  7G 1G11G14G15G19G22G25
 -11312464.71948  -8800818.23044  21841244.6004   21841242.5024
      3444.6724
  -9093189.85949  -7063509.37145  21177396.3504   21177391.8974
      2387.6334
   1528760.14849   1188799.10945  20671463.9824   20671460.5454
     -1117.9074
   7542725.75046   5860209.19142  23311831.5844   23311831.3304
     -2988.4824
   4123968.96547   3205310.24243  23446353.9364   23446349.7484
     -1891.1174
   3509469.33248   2725379.16443  22553264.6474   22553260.5574
     -1525.8134
 -11251233.00049  -8746871.76645  21204021.1394   21204017.9434
      3313.4304
 04  9  3 15 43 44.9980000  0  7G 1G11G14G15G19G22G25
 -11364063.80948  -8841025.30544  21831425.5764   21831423.6824
      3439.9394
  -9128880.27749  -7091320.09445  21170604.4124   21170599.9204
      2379.3614
   1545598.39549   1201919.80945  20674668.1474   20674664.8694
     -1122.5504
   7587588.32846   5895166.98842  23320367.9514   23320368.0024
     -2990.8394
   4152377.22347   3227446.52042  23451759.6474   23451754.7484
     -1893.8844
   3532397.39548   2743245.16443  22557627.6154   22557623.4754
     -1528.5374
 -11300833.73449  -8785521.68045  21194582.2644   21194579.0644
      3306.7164
 04  9  3 15 43 59.9980000  0  7G 1G11G14G15G19G22G25
 -11415591.05548  -8881176.39144  21821619.9364   21821618.5884
      3435.1504
  -9164445.73449  -7119033.43745  21163836.1394   21163831.9244
      2371.0304
   1562506.85549   1215095.21945  20677885.7174   20677882.5024
     -1127.2314
   7632486.73047   5930152.67242  23328912.6704   23328912.4284
     -2993.2274
   4180827.26647   3249615.36743  23457173.4514   23457169.1314
     -1896.6704
   3555367.03548   2761143.55143  22561998.7404   22561994.2794
     -1531.3094
 -11350332.80149  -8824092.36345  21185162.9514   21185159.9904
      3299.9384
 04  9  3 15 44 14.9980000  0  7G 1G11G14G15G19G22G25
 -11467047.85948  -8921272.59044  21811828.0064   21811826.7524
      3430.4544
  -9199887.46949  -7146650.37945  21157091.9674   21157087.8184
      2362.7824
   1579483.82449   1228324.01245  20681116.5224   20681112.9084
     -1131.7984
   7677419.07447   5965164.84442  23337462.8264   23337462.1114
     -2995.4904
   4209317.20747   3271815.27743  23462594.5294   23462591.3344
     -1899.3294
   3578376.63348   2779073.07443  22566377.4754   22566373.0334
     -1533.9734
 -11399731.53949  -8862584.88345  21175762.7484   21175759.5024
      3293.2494
 04  9  3 15 44 29.9980000  0  7G 1G11G14G15G19G22G25
 -11518433.79348  -8961313.56644  21802049.7874   21802048.3034
      3425.7294
  -9235204.96549  -7174170.50845  21150371.3114   21150366.9824
      2354.5004
   1596529.49249   1241606.34045  20684360.2874   20684356.4204
     -1136.3784
   7722385.55947   6000203.58642  23346020.1394   23346019.0184
     -2997.7664
   4237847.13747   3294046.36342  23468023.4904   23468020.4904
     -1901.9954
   3601426.59048   2797034.05944  22570763.7254   22570759.7054
     -1536.6644
 -11449029.23849  -8900998.66445  21166381.6394   21166378.8114
      3286.5134
 04  9  3 15 44 44.9980000  0  7G 1G11G14G15G19G22G25
 -11569749.23448  -9001299.62144  21792284.8424   21792282.6474
      3421.0294
  -9270398.43049  -7201593.99245  21143673.9594   21143670.1584
      2346.2314
   1613643.14549   1254941.64845  20687616.9044   20687612.9044
     -1140.9104
   7767385.36347   6035268.31642  23354582.6704   23354581.5144
     -2999.9874
   4266416.17647   3316307.91043  23473460.8654   23473456.9324
     -1904.6034
   3624516.48047   2815026.16443  22575157.3034   22575152.9084
     -1539.3264
 -11498226.01249  -8939333.80945  21157019.8504   21157017.2954
      3279.7854
 04  9  3 15 44 59.9980000  0  7G 1G11G14G15G19G22G25
 -11620993.82448  -9041230.46544  21782533.3034   21782531.3544
      3416.3064
  -9305467.49249  -7228920.53545  21137000.7794   21136996.4434
      2337.9384
   1630824.85549   1268329.99245  20690886.5224   20690882.7054
     -1145.4474
   7812418.54747   6070359.05542  23363153.3034   23363150.9594
     -3002.2124
   4295024.16047   3338599.82042  23478904.3974   23478900.4754
     -1907.1994
   3647646.43448   2833049.47743  22579558.6784   22579555.0964
     -1541.9974
 -11547321.41049  -8977589.95745  21147677.3734   21147674.9394
      3273.0274
 04  9  3 15 45 14.9980000  0  7G 1G11G14G15G19G22G25
 -11672166.84448  -9081105.53144  21772795.0844   21772793.3854
      3411.5354
  -9340411.34049  -7256149.50845  21130351.1624   21130347.2404
      2329.5904
   1648074.95349   1281771.62945  20694169.1074   20694165.3774
     -1150.0074
   7857485.35947   6105475.99642  23371728.9754   23371726.7174
     -3004.4544
   4323671.27747   3360922.21142  23484355.5294   23484352.2254
     -1909.8084
   3670817.07047   2851104.49643  22583968.0924   22583964.4324
     -1544.7094
 -11596314.52749  -9015766.41045  21138354.0224   21138351.7174
      3266.2084
 04  9  3 15 45 29.9980000  0  7G 1G11G14G15G19G22G25
 -11723267.68048  -9120924.34844  21763070.8654   21763069.4004
      3406.7224
  -9375229.14149  -7283280.27745  21123725.3974   21123721.7754
      2321.1874
   1665393.68849   1295266.73445  20697464.8734   20697461.2604
     -1154.5824
   7902586.05147   6140619.35542  23380311.6624   23380309.2874
     -3006.7134
   4352357.84047   3383275.32842  23489814.5764   23489811.8224
     -1912.4374
   3694028.98847   2869191.66443  22588384.8814   22588380.9824
     -1547.4614
 -11645204.52048  -9053862.50445  21129050.7954   21129047.8034
      3259.3334
 04  9  3 15 45 44.9980000  0  7G 1G11G14G15G19G22G25
 -11774297.10948  -9160687.53544  21753360.7404   21753358.4284
      3401.9624
  -9409921.72349  -7310313.45745  21117123.8974   21117119.9794
      2312.8394
   1682779.96149   1308814.46545  20700773.1934   20700769.8614
     -1159.0854
   7947719.57047   6175788.27342  23388900.0294   23388897.4084
     -3008.9014
   4381082.38347   3405658.06642  23495281.0844   23495277.0374
     -1914.9704
   3717281.20747   2887310.25843  22592809.8264   22592805.9824
     -1550.1484
 -11693992.05948  -9091878.75445  21119766.5064   21119763.8304
      3252.5034
 04  9  3 15 45 59.9980000  0  7G 1G11G14G15G19G22G25
 -11825254.91448  -9200394.91044  21743663.5144   21743661.7794
      3397.1874
  -9444488.52349  -7337248.62945  21110546.1704   21110542.2684
      2304.4534
   1700233.81349   1322414.86345  20704094.5684   20704090.8114
     -1163.5904
   7992885.75047   6210982.64542  23397494.9284   23397492.1894
     -3011.0794
   4409844.81347   3428070.30542  23500754.2174   23500750.9124
     -1917.4954
   3740573.98447   2905460.45343  22597242.1624   22597238.2364
     -1552.8524
 -11742676.62548  -9129814.78145  21110502.3344   21110499.0764
      3245.6384
 04  9  3 15 46 14.9980000  0  7G 1G11G14G15G19G22G25
 -11876142.18748  -9240047.31244  21733980.3654   21733978.3344
      3392.4854
  -9478930.69148  -7364086.68745  21103992.0374   21103987.7914
      2296.1454
   1717753.79349   1336066.78545  20707428.6234   20707425.0374
     -1167.9994
   8038083.10947   6246201.30942  23406095.9124   23406092.8034
     -3013.1574
   4438643.60947   3450510.88342  23506234.6004   23506230.8894
     -1919.9204
   3763905.98447   2923641.19543  22601682.2644   22601678.4514
     -1555.4674
 -11791259.19548  -9167671.32445  21101257.4434   21101254.3654
      3238.8384
 04  9  3 15 46 29.9980000  0  7G 1G11G14G15G19G22G25
 -11926957.98048  -9279644.03544  21724310.9364   21724308.6434
      3387.7204
  -9513247.34049  -7390826.93445  21097461.6784   21097457.1704
      2287.7774
   1735340.52749   1349770.72745  20710775.1544   20710771.3224
     -1172.4494
   8083312.17647   6281444.68842  23414702.3504   23414700.3184
     -3015.2714
   4467479.10947   3472980.05943  23511722.1234   23511717.8464
     -1922.3674
   3787278.10548   2941853.20343  22606130.0614   22606125.9984
     -1558.1414
 -11839738.56648  -9205447.44545  21092032.2174   21092028.5644
      3231.9584
 04  9  3 15 46 44.9980000  0  7G 1G11G14G15G19G22G25
 -11977703.54748  -9319186.02044  21714654.0064   21714651.9794
      3383.0384
  -9547439.26249  -7417470.00045  21090955.3264   21090950.7054
      2279.4614
   1752992.33649   1363525.37945  20714134.2254   20714129.9004
     -1176.7874
   8128571.44947   6316711.57842  23423314.2724   23423313.2874
     -3017.2854
   4496349.69947   3495476.59042  23517215.9984   23517211.2724
     -1924.7064
   3810688.96948   2960095.40643  22610585.0374   22610580.7604
     -1560.7244
 -11888115.79748  -9243143.97745  21082826.2404   21082822.8774
      3225.1494
 04  9  3 15 46 59.9980000  0  7G 1G11G14G15G19G22G25
 -12028376.25448  -9358671.23444  21705011.1234   21705009.2174
      3378.1804
  -9581503.82049  -7444013.81645  21084472.8424   21084468.7094
      2270.9714
   1770711.66849   1377332.64545  20717506.1314   20717501.6354
     -1181.2894
   8173863.05947   6352003.69942  23431933.7324   23431932.5414
     -3019.4414
   4525257.48447   3518002.10942  23522716.7324   23522712.4674
     -1927.1864
   3834141.08247   2978369.75843  22615047.9364   22615043.5334
     -1563.4744
 -11936388.12948  -9280758.76645  21073640.5064   21073637.0144
      3218.1554
 04  9  3 15 47 14.9980000  0  7G 1G11G14G15G19G22G25
 -12078977.10948  -9398100.46544  21695381.9594   21695379.9204
      3373.3904
  -9615441.88749  -7470459.06245  21078014.8034   21078010.2954
      2262.5384
   1788497.16449   1391191.46945  20720890.3654   20720886.4554
     -1185.7004
   8219185.70347   6387319.97742  23440558.7564   23440557.2054
     -3021.5104
   4554201.02747   3540555.46942  23528224.2174   23528220.5574
     -1929.5704
   3857633.41447   2996675.43443  22619517.9284   22619514.0334
     -1566.1554
 -11984556.35248  -9318292.43045  21064474.1474   21064470.8894
      3211.2154
 04  9  3 15 47 29.9980000  0  6G 1G11G14G19G22G25
 -12129506.74648  -9437474.20344  21685766.7794   21685764.3854
      3368.6424
  -9649254.00049  -7496806.16445  21071580.5064   21071575.9634
      2254.1414
   1806347.92649   1405101.14545  20724287.6154   20724283.5884
     -1190.0514
   4583179.25047   3563135.85942  23533738.4514   23533734.5104
     -1931.8824
   3881165.14848   3015011.83643  22623996.0294   22623992.3814
     -1568.7824
 -12032620.96948  -9355745.37545  21055327.5534   21055324.6154
      3204.3084
 04  9  3 15 47 44.9980000  0  6G 1G11G14G19G22G25
 -12179963.69948  -9476791.30144  21676164.8424   21676162.9164
      3363.7974
  -9682938.70749  -7523053.99245  21065170.2484   21065166.2794
      2245.6474
   1824265.15649   1419062.61745  20727697.0374   20727693.4554
     -1194.4824
   4612193.22347   3585744.11742  23539260.3424   23539256.7014
     -1934.2654
   3904737.84448   3033380.14843  22628482.0764   22628477.4434
     -1571.5134
 -12080580.21948  -9393116.20345  21046201.3034   21046198.4244
      3197.2834
 04  9  3 15 47 59.9980000  0  6G 1G11G14G19G22G25
 -12230349.55948  -9516052.99244  21666576.9364   21666574.3694
      3359.0574
  -9716497.30948  -7549203.54745  21058784.6314   21058780.6784
      2237.2404
   1842246.99249   1433074.42645  20731118.7014   20731115.4634
     -1198.7894
   4641240.84047   3608378.57042  23544787.2724   23544783.8114
     -1936.5084
   3928349.60948   3051778.89543  22632974.8814   22632970.7324
     -1574.1184
 -12128435.50448  -9430406.03145  21037094.9514   21037092.1864
      3190.3524
 04  9  3 15 48 14.9980000  0  6G 1G11G14G19G22G25
 -12280662.46949  -9555257.85544  21657002.4674   21657000.4674
      3354.1944
  -9749927.86348  -7575253.34845  21052422.9984   21052418.7874
      2228.7044
   1860294.84049   1447137.67245  20734553.0614   20734549.4434
     -1203.1904
   4670323.50047   3631040.37143  23550322.2254   23550317.8574
     -1938.8444
   3952002.27748   3070209.50843  22637476.3344   22637472.1074
     -1576.8454
 -12176184.79748  -9467613.26645  21028008.2644   21028005.9394
      3183.2864
 04  9  3 15 48 29.9980000  0  6G 1G11G14G19G22G25
 -12330901.80549  -9594405.37144  21647442.5844   21647440.3774
      3349.2894
  -9783229.68049  -7601202.80945  21046085.7404   21046081.5844
      2220.1214
   1878409.10249   1461252.67245  20738000.0844   20737996.2604
     -1207.6174
   4699441.42647   3653729.62143  23555863.2954   23555859.4204
     -1941.1954
   3975696.38748   3088672.42243  22641984.9514   22641980.6434
     -1579.6074
 -12223827.23448  -9504737.24245  21018942.8344   21018939.5334
      3176.1634
 04  9  3 15 48 44.9980000  0  6G 1G11G14G19G22G25
 -12381067.68749  -9633495.66844  21637896.4824   21637893.4124
      3344.3924
  -9816402.89548  -7627052.07845  21039773.0924   21039768.5414
      2211.5484
   1896589.35249   1475419.08644  20741460.1074   20741455.8184
     -1212.0174
   4728593.87947   3676445.77042  23561410.8654   23561406.9324
     -1943.4974
   3999431.74248   3107167.49243  22646501.4754   22646497.2444
     -1582.3574
 -12271362.83648  -9541777.96145  21009896.6474   21009894.2754
      3169.0404
 04  9  3 15 48 59.9980000  0  7G 1G20G11G14G19G22G25
 -12431159.78149  -9672528.45744  21628364.0924   21628361.2174
      3339.4734
   -166958.99657   -120654.19952  23585503.5614   23585500.3144

  -9849446.98849  -7652800.72345  21033484.8734   21033480.5574
      2202.9404
   1914835.62549   1489636.95345  20744932.1314   20744927.7834
     -1216.4184
   4757780.75847   3699188.75842  23566964.8894   23566961.5064
     -1945.7924
   4023208.44148   3125694.74643  22651026.8654   22651021.8614
     -1585.1134
 -12318791.10548  -9578735.03945  21000871.2404   21000868.5064
      3161.8854
 04  9  3 15 49 14.9980000  0  7G 1G20G11G14G19G22G25
 -12481179.80948  -9711505.09044  21618845.4984   21618842.8464
      3334.6684
   -225593.12947   -166343.11742  23574346.1154   23574342.7294
      3908.9424
  -9882363.56648  -7678450.00845  21027221.2254   21027216.9164
      2194.4394
   1933145.78549   1503904.60945  20748416.7254   20748412.5684
     -1220.6774
   4786999.89147   3721956.86343  23572525.1474   23572521.7444
     -1947.9424
   4047024.75848   3144252.88743  22655558.8504   22655554.2794
     -1587.7544
 -12366113.55948  -9615609.68045  20991866.1704   20991862.9434
      3154.8304
 04  9  3 15 49 29.9980000  0  6G 1G20G11G14G22G25
 -12531128.70749  -9750426.31244  21609340.8184   21609337.8694
      3329.9274
   -284222.78547   -212028.57042  23563188.7724   23563185.3774
      3908.6444
  -9915153.37948  -7704000.51245  21020981.5374   21020977.3734
      2185.9884
   1951518.77749   1518221.21145  20751912.6004   20751909.0844
     -1224.8664
   4070879.58648   3162841.03543  22660098.2564   22660093.6194
     -1590.3224
 -12413330.99248  -9652402.47345  20982881.1864   20982877.7324
      3147.8294
 04  9  3 15 49 44.9980000  0  6G 1G20G11G14G22G25
 -12581006.01249  -9789291.74244  21599849.2094   21599846.6114
      3325.1544
   -342847.32447   -257710.03542  23552032.9754   23552029.2214
      3908.3034
  -9947815.87549  -7729451.82045  21014766.2174   21014761.8814
      2177.5004
   1969954.61349   1532586.78145  20755420.8114   20755417.5024
     -1229.0564
   4094773.32048   3181459.50843  22664645.1314   22664640.5254
     -1592.9164
 -12460442.65649  -9689112.85546  20973916.1474   20973913.1974
      3140.7784
 04  9  3 15 49 59.9980000  0  6G 1G20G11G14G22G25
 -12630811.76248  -9828101.40244  21590371.0224   21590368.7294
      3320.3834
   -401466.73847   -303387.47742  23540878.3574   23540875.0184
      3907.9614
  -9980351.02748  -7754803.88745  21008574.9904   21008570.5534
      2169.0104
   1988453.08249   1547001.15645  20758940.8114   20758937.6074
     -1233.2314
   4118705.84048   3200108.20343  22669199.0144   22669194.6824
     -1595.5014
 -12507448.46948  -9725740.75446  20964971.1394   20964967.8894
      3133.7214
 04  9  3 15 50 14.9980000  0  6G 1G20G11G14G22G25
 -12680544.06248  -9866853.83644  21580907.7094   21580904.9394
      3315.4874
   -460079.14547   -349059.46142  23529723.8344   23529721.2324
      3907.4944
 -10012756.93448  -7780055.25445  21002408.2094   21002403.7794
      2160.3944
   2007015.66049   1561465.48845  20762473.2564   20762470.0064
     -1237.5054
   4142678.99248   3218788.54743  22673760.7644   22673756.7994
     -1598.2104
 -12554346.33648  -9762284.54346  20956046.9204   20956043.4554
      3126.5244
 04  9  3 15 50 29.9980000  0  6G 1G20G11G14G22G25
 -12730202.88748  -9905549.02744  21571457.4984   21571455.5294
      3310.5884
   -518684.46946   -394725.92242  23518572.0614   23518568.6664
      3907.0224
 -10045033.39548  -7805205.74245  20996266.1314   20996261.6784
      2151.7644
   2025642.17249   1575979.64145  20766018.0684   20766014.2754
     -1241.7674
   4166692.64148   3237500.45743  22678330.3734   22678326.3974
     -1600.9104
 -12601136.09848  -9798744.08646  20947143.2724   20947139.9754
      3119.3174
 04  9  3 15 50 44.9980000  0  6G 1G20G11G14G22G25
 -12779788.60948  -9944187.23444  21562021.9674   21562019.5494
      3305.7154
   -577283.03546   -440387.13342  23507420.9594   23507418.6314
      3906.5714
 -10077180.69149  -7830255.59445  20990148.4904   20990144.4594
      2143.1534
   2044331.87149   1590543.03545  20769574.2954   20769570.4084
     -1245.9804
   4190746.38748   3256243.60243  22682907.8114   22682903.1194
     -1603.5834
 -12647817.84849  -9835119.46946  20938259.9754   20938256.5804
      3112.1174
 04  9  3 15 50 59.9980000  0  6G 1G20G11G14G22G25
 -12829300.48048  -9982767.90244  21552600.0764   21552597.8034
      3300.7914
   -635874.09846   -486042.48042  23496271.6004   23496269.1004
      3906.0714
 -10109197.94548  -7855204.10545  20984056.2874   20984051.6544
      2134.4844
   2063085.35549   1605156.13345  20773142.9434   20773139.1544
     -1250.2324
   4214840.81348   3275018.44143  22687493.0144   22687488.4284
     -1606.2954
 -12694390.65248  -9871409.95746  20929397.2484   20929394.2014
      3104.8544
 04  9  3 15 51 14.9980000  0  6G 1G20G11G14G22G25
 -12878738.78548 -10021291.25044  21543192.4124   21543190.0534
      3295.8874
   -694457.92246   -531692.18742  23485123.4984   23485120.4324
      3905.5884
 -10141085.34848  -7880051.43045  20977988.2954   20977984.1394
      2125.8274
   2081901.90249   1619818.36345  20776723.8504   20776720.1584
     -1254.4364
   4238975.60948   3293824.75043  22692085.5224   22692081.6194
     -1608.9864
 -12740854.62948  -9907615.64546  20920555.3734   20920552.8264
      3097.5984
 04  9  3 15 51 29.9980000  0  6G 1G20G11G14G22G25
 -12928104.22349 -10059757.82044  21533798.4754   21533796.0494
      3291.0294
   -753035.04346   -577336.68742  23473976.5454   23473973.5764
      3905.1414
 -10172843.47349  -7904798.03545  20971944.8034   20971940.6194
      2117.2084
   2100780.57849   1634529.00445  20780316.0144   20780313.1894
     -1258.5784
   4263149.96548   3312661.87943  22696686.5144   22696681.6074
     -1611.6244
 -12787210.33248  -9943736.96945  20911733.8504   20911731.2954
      3090.3804
 04  9  3 15 51 44.9980000  0  6G 1G20G11G14G22G25
 -12977397.19948 -10098167.92244  21524418.4674   21524416.2134
      3286.1984
   -811605.89546   -622976.30542  23462830.5684   23462828.1074
      3904.7234
 -10204472.63349  -7929444.13345  20965925.9434   20965921.8974
      2108.6114
   2119720.72349   1649287.53545  20783920.4124   20783917.1154
     -1262.6764
   4287363.41448   3331529.46543  22701293.6544   22701289.2754
     -1614.2304
 -12833457.89548  -9979774.02045  20902933.2324   20902931.1314
      3083.1714
 04  9  3 15 51 59.9980000  0  6G 1G20G11G14G22G25
 -13026616.66049 -10136520.73444  21515052.1704   21515050.1474
      3281.2974
   -870169.41846   -668610.19142  23451686.3504   23451684.4244
      3904.2354
 -10235971.64549  -7953988.82445  20959931.8734   20959927.8894
      2099.9344
   2138723.02049   1664094.50445  20787536.5454   20787532.8344
     -1266.8204
   4311616.80948   3350428.19543  22705909.3574   22705904.5724
     -1616.8934
 -12879596.10248 -10015725.87545  20894153.7014   20894151.6274
      3075.8804
 04  9  3 15 52 14.9980000  0  6G 1G20G11G14G22G25
 -13075763.39148 -10174816.88744  21505699.6704   21505697.3934
      3276.4494
   -928726.45746   -714239.03942  23440543.6394   23440540.6154
      3903.8034
 -10267341.33249  -7978432.74646  20953962.5534   20953958.5844
      2091.3134
   2157786.29349   1678948.98845  20791164.2644   20791160.9204
     -1270.8854
   4335909.34048   3369357.41443  22710531.3114   22710527.2134
     -1619.5024
 -12925625.67648 -10051593.06645  20885394.2174   20885392.5294
      3068.6384
 04  9  3 15 52 29.9980000  0  6G 1G20G11G14G22G25
 -13124837.30148 -10213056.28544  21496361.3814   21496359.0844
      3271.5944
   -987276.85247   -759862.69942  23429401.4594   23429398.7404
      3903.3604
 -10298581.33249  -8002775.60945  20948017.5144   20948013.5644
      2082.6674
   2176910.46149   1693850.93045  20794803.4514   20794800.0064
     -1274.9454
   4360241.01248   3388317.13343  22715161.5684   22715157.5254
     -1622.1114
 -12971546.25448 -10087375.32845  20876656.1784   20876654.0224
      3061.3724
 04  9  3 15 52 44.9980000  0  6G 1G20G11G14G22G25
 -13173838.31249 -10251238.88344  21487036.9514   21487034.7914
      3266.7344
  -1045820.43446   -805481.08242  23418261.2564   23418258.3114
      3902.9054
 -10329691.59049  -8027017.36745  20942097.4124   20942093.8114
      2074.0174
   2196095.40649   1708800.22345  20798454.1544   20798450.3384
     -1278.9964
   4384611.73848   3407307.27043  22719799.1864   22719795.8734
     -1624.7154
 -13017357.71948 -10123072.58246  20867938.2724   20867935.6274
      3054.0984
 04  9  3 15 52 59.9980000  0  6G 1G20G11G14G22G25
 -13222766.09449 -10289364.42244  21477726.1154   21477724.0334
      3261.8524
  -1104356.77046   -851093.80142  23407122.2644   23407118.9554
      3902.4224
 -10360671.66049  -8051157.69145  20936202.2094   20936198.1864
      2065.3384
   2215341.11349   1723796.85545  20802116.1234   20802112.6894
     -1283.0474
   4409021.81348   3426328.06643  22724444.4824   22724440.7364
     -1627.3384
 -13063059.53148 -10158684.37945  20859241.4514   20859239.1394
      3046.7884
 04  9  3 15 53 14.9980000  0  6G 1G20G11G14G22G25
 -13271621.89549 -10327433.86744  21468429.3654   21468427.1314
      3257.0534
  -1162887.07846   -896701.83642  23395984.2254   23395981.2364
      3902.0214
 -10391522.71949  -8075197.47345  20930331.5534   20930327.2684
      2056.7374
   2234645.98049   1738839.60245  20805790.2014   20805786.5024
     -1286.9914
   4433469.91848   3445378.50843  22729097.2564   22729093.1194
     -1629.8744
 -13108652.54748 -10194211.40245  20850565.3734   20850562.6504
      3039.5344
 04  9  3 15 53 29.9980000  0  6G 1G20G11G14G22G25
 -13320404.22749 -10365446.07044  21459146.5454   21459143.7364
      3252.1554
  -1221409.79747   -942303.94142  23384847.1394   23384843.6894
      3901.5154
 -10422243.03948  -8099135.39145  20924485.7644   20924481.7134
      2048.0214
   2254011.25449   1753929.41045  20809475.0764   20809472.0104
     -1291.0184
   4457957.42648   3464459.66044  22733757.0454   22733753.6624
     -1632.5014
 -13154135.04748 -10229652.30145  20841910.5534   20841907.1704
      3032.1674
 04  9  3 15 53 44.9980000  0  6G 1G20G11G14G22G25
 -13369113.66048 -10403401.45344  21449876.8814   21449874.5884
      3247.2964
  -1279925.51647   -987900.59042  23373712.8114   23373709.1074
      3901.0484
 -10452833.25449  -8122971.93045  20918664.4204   20918660.3424
      2039.3484
   2273436.06649   1769065.60545  20813171.6154   20813168.3464
     -1294.9874
   4482483.68448   3483571.00444  22738424.1934   22738420.3504
     -1635.0844
 -13199507.51249 -10265007.45745  20833276.5924   20833273.1894
      3024.8314
 04  9  3 15 53 59.9980000  0  6G 1G20G11G14G22G25
 -13417751.92649 -10441301.39544  21440621.4044   21440619.2484
      3242.5514
  -1338435.96947  -1033493.12542  23362578.6544   23362575.9904
      3900.6974
 -10483294.84849  -8146708.23845  20912867.7874   20912863.8974
      2030.7734
   2292918.32849   1784246.58245  20816879.0224   20816875.3774
     -1298.8174
   4507046.82448   3502711.08644  22743098.2174   22743094.6274
     -1637.5434
 -13244771.62948 -10300278.19945  20824662.9284   20824660.1314
      3017.6084
 04  9  3 15 54 14.9980000  0  6G 1G20G11G14G22G25
 -13466317.32448 -10479144.55144  21431379.9904   21431377.9084
      3237.6934
  -1396939.30547  -1079080.12942  23351445.7404   23351442.6784
      3900.2224
 -10513626.09049  -8170342.98046  20907095.8504   20907091.9904
      2022.0834
   2312459.52049   1799473.46145  20820597.3184   20820594.2604
     -1302.7464
   4531648.47748   3521881.18443  22747779.7564   22747776.2684
     -1640.1104
 -13289925.53949 -10335463.05145  20816070.4824   20816067.4514
      3010.2614
 04  9  3 15 54 29.9980000  0  6G 1G20G11G14G22G25
 -13514809.55949 -10516930.69944  21422151.9514   21422149.6154
      3232.8164
  -1455435.17647  -1124661.34042  23340314.8504   23340311.2794
      3899.7254
 -10543826.57849  -8193875.82845  20901348.8814   20901344.7014
      2013.3664
   2332059.65649   1814746.28945  20824327.5534   20824323.3774
     -1306.6764
   4556288.85248   3541081.44544  22752469.0144   22752465.1974
     -1642.6924
 -13334968.65649 -10370561.57445  20807498.9364   20807496.1234
      3002.8744
 04  9  3 15 54 44.9980000  0  6G 1G20G11G14G22G25
 -13563228.66449 -10554659.86744  21412938.1314   21412935.7324
      3227.9404
  -1513923.62548  -1170236.74242  23329184.4674   23329181.4514
      3899.2304
 -10573896.34449  -8217306.82045  20895626.8894   20895622.6704
      2004.6514
   2351718.25449   1830064.66445  20828068.1784   20828064.5254
     -1310.5734
   4580967.69548   3560311.69144  22757164.6704   22757160.8934
     -1645.2564
 -13379900.93449 -10405573.72745  20798948.7724   20798946.0804
      2995.4854
 04  9  3 15 54 59.9980000  0  6G 1G20G11G14G22G25
 -13611575.01249 -10592332.34444  21403738.2564   21403736.2524
      3223.0904
  -1572405.01647  -1215806.65242  23318056.7094   23318052.8614
      3898.7594
 -10603835.65249  -8240636.15245  20889929.8114   20889925.4904
      1995.9544
   2371434.94949   1845428.30945  20831820.1074   20831816.5334
     -1314.4464
   4605684.70348   3579571.66444  22761868.6154   22761864.8614
     -1647.8014
 -13424722.50049 -10440499.61346  20790419.1314   20790416.8224
      2988.1044
 04  9  3 15 55 14.9980000  0  6G 1G20G11G14G22G25
 -13659848.72749 -10629948.21544  21394552.0294   21394549.5494
      3218.2484
  -1630879.42247  -1261371.10542  23306928.5614   23306924.3464
      3898.2944
 -10633644.35249  -8263863.71545  20884257.3184   20884253.5644
      1987.2474
   2391209.31349   1860836.89845  20835583.0454   20835579.2954
     -1318.2914
   4630439.61748   3598861.17643  22766579.6314   22766575.1504
     -1650.3284
 -13469433.21949 -10475339.12946  20781911.0924   20781908.5614
      2980.7154
 04  9  3 15 55 29.9980000  0  6G 1G20G11G14G22G25
 -13708048.59049 -10667506.53944  21385380.1234   21385377.8074
      3213.3244
  -1689345.49247  -1306929.09042  23295802.5144   23295798.6154
      3897.7384
 -10663321.28549  -8286988.60245  20878609.8654   20878606.1704
      1978.4624
   2411042.21549   1876291.09445  20839357.0064   20839353.5644
     -1322.1934
   4655233.59048   3618181.12543  22771297.3184   22771293.1784
     -1652.9324
 -13514031.63349 -10510091.14146  20773424.2794   20773421.1394
      2973.2284
 04  9  3 15 55 44.9980000  0  6G 1G20G11G14G22G25
 -13756175.48449 -10705008.01244  21376221.3734   21376219.7174
      3208.4604
  -1747804.16847  -1352481.31242  23284678.2324   23284674.1044
      3897.2454
 -10692867.16449  -8310011.37545  20872987.5224   20872983.6074
      1969.7254
   2430932.40649   1891789.92645  20843141.9904   20843138.7094
     -1326.0134
   4680065.63748   3637530.73443  22776022.6394   22776019.1664
     -1655.4704
 -13558518.69949 -10544756.37145  20764959.0224   20764956.1234
      2965.8044
 04  9  3 15 55 59.9980000  0  6G 1G20G11G14G22G25
 -13804229.43449 -10742452.63345  21367077.2174   21367075.4904
      3203.5974
  -1806255.38746  -1398027.69542  23273555.4044   23273551.6744
      3896.7484
 -10722281.93449  -8332931.97345  20867390.0064   20867386.0724
      1960.9854
   2450879.64549   1907333.20745  20846937.7794   20846934.5924
     -1329.8164
   4704935.70348   3656909.96143  22780755.4754   22780750.9244
     -1658.0044
 -13602894.13349 -10579334.62145  20756514.9204   20756511.4634
      2958.3624
 04  9  3 15 56 14.9980000  0  6G 1G20G11G14G22G25
 -13852210.99249 -10779840.85544  21357946.6784   21357945.1584
      3198.7714
  -1864699.63746  -1443568.64842  23262433.5294   23262430.7914
      3896.2834
 -10751566.16449  -8355750.85945  20861817.4824   20861813.7484
      1952.2824
   2470883.02349   1922920.24645  20850744.6624   20850740.8814
     -1333.5594
   4729843.15648   3676318.34043  22785495.3034   22785490.4674
     -1660.4974
 -13647158.50049 -10613826.32846  20748091.2484   20748088.1234
      2950.9584
 04  9  3 15 56 29.9980000  0  6G 1G20G11G14G22G25
 -13900119.66049 -10817172.28145  21348829.9204   21348828.0534
      3193.9114
  -1923136.34846  -1489103.75042  23251314.0684   23251310.2874
      3895.7814
 -10780719.21549  -8378467.53545  20856269.7644   20856265.8074
      1943.5374
   2490942.90649   1938551.31345  20854561.9754   20854558.2444
     -1337.3264
   4754788.34448   3695756.11743  22790242.2644   22790237.9084
     -1663.0124
 -13691310.82449 -10648230.72346  20739689.5144   20739686.4824
      2943.4884
 04  9  3 15 56 44.9980000  0  6G 1G20G11G14G22G25
 -13947954.30549 -10854446.01645  21339727.2724   21339725.3574
      3188.9764
  -1981564.26246  -1534631.99642  23240195.5374   23240192.2754
      3895.1944
 -10809739.89549  -8401081.05545  20850747.3034   20850743.2134
      1934.7124
   2511059.95349   1954226.92245  20858390.1314   20858386.2954
     -1341.1364
   4779772.23048   3715224.05143  22794995.9674   22794992.1194
     -1665.5924
 -13735349.82049 -10682546.81246  20731309.0534   20731305.8304
      2935.9334
 04  9  3 15 56 59.9980000  0  6G 1G20G11G14G22G25
 -13995716.38349 -10891663.21145  21330638.1864   21330636.5024
      3184.1394
  -2039984.87546  -1580154.53542  23229078.1934   23229075.3344
      3894.7084
 -10838629.43049  -8423592.37545  20845249.7324   20845245.8184
      1925.9694
   2531232.61749   1969945.87545  20862229.2324   20862225.1744
     -1344.8444
   4804793.48848   3734721.12143  22799757.7484   22799754.2294
     -1668.0844
 -13779276.90649 -10716775.70346  20722950.4124   20722946.8034
      2928.4724
 04  9  3 15 57 14.9980000  0  6G 1G20G11G14G22G25
 -14043405.53949 -10928823.58645  21321563.6544   21321561.1434
      3179.2774
  -2098397.73846  -1625671.03142  23217962.6544   23217960.1784
      3894.1914
 -10867387.34049  -8446001.15245  20839777.3974   20839773.3974
      1917.1944
   2551460.85549   1985708.13745  20866077.9904   20866074.1544
     -1348.5494
   4829852.28948   3754247.43043  22804526.4044   22804522.9124
     -1670.5874
 -13823091.55549 -10750916.98046  20714612.4754   20714609.5104
      2920.9774
 04  9  3 15 57 29.9980000  0  6G 1G20G11G14G22G25
 -14091022.24649 -10965927.50445  21312502.5374   21312500.5224
      3174.4474
  -2156803.27046  -1671181.84042  23206848.3184   23206845.8384
      3893.7024
 -10896014.23449  -8468307.83645  20834329.7254   20834325.5644
      1908.4604
   2571744.08649   2001513.23845  20869937.7874   20869934.5334
     -1352.2154
   4854948.08248   3773802.54743  22809301.8574   22809298.5374
     -1673.0534
 -13866794.03549 -10784970.84846  20706295.9754   20706293.1314
      2913.4994
 04  9  3 15 57 44.9980000  0  6G 1G20G11G14G22G25
 -14138565.74249 -11002974.37145  21303454.9904   21303453.1394
      3169.5664
  -2215200.62946  -1716686.25842  23195735.4124   23195733.3034
      3893.1574
 -10924509.38749  -8490511.84845  20828907.0454   20828903.3264
      1899.6774
   2592082.66449   2017361.45745  20873808.5294   20873805.1544
     -1355.9054
   4880081.44948   3793386.96943  22814085.0534   22814081.6664
     -1675.5584
 -13910383.38749 -10818936.57846  20698000.9904   20697998.4824
      2905.9574
 04  9  3 15 57 59.9980000  0  6G 1G20G11G14G22G25
 -14186035.78549 -11039964.00045  21294421.8974   21294419.7564
      3164.6704
  -2273589.65246  -1762184.20342  23184623.9204   23184621.7404
      3892.6024
 -10952872.13349  -8512612.69545  20823510.1004   20823505.7644
      1890.8504
   2612476.53149   2033252.77345  20877689.1314   20877685.6434
     -1359.5914
   4905252.59448   3813000.81643  22818875.1004   22818871.1664
     -1678.0764
 -13953859.20749 -10852813.83646  20689728.3034   20689725.4864
      2898.3884
 04  9  3 15 58 14.9980000  0  6G 1G20G11G14G22G25
 -14233431.95749 -11076896.08245  21285402.2954   21285400.4944
      3159.7454
  -2331969.74246  -1807675.15642  23173514.4984   23173512.2324
      3892.0064
 -10981102.03549  -8534610.03145  20818138.1934   20818133.8184
      1881.9934
   2632925.93049   2049187.35945  20881580.2874   20881576.9824
     -1363.2934
   4930461.87948   3832644.38743  22823672.3974   22823668.3774
     -1680.6194
 -13997220.88349 -10886602.14846  20681476.1864   20681473.7324
      2890.7784
 04  9  3 15 58 29.9980000  0  6G 1G20G11G14G22G25
 -14280753.93449 -11113770.33245  21276397.6074   21276395.2604
      3154.7984
  -2390340.60945  -1853158.91842  23162407.2564   23162404.7014
      3891.3914
 -11009198.78949  -8556503.60945  20812791.8574   20812786.8894
      1873.1174
   2653430.78549   2065165.16445  20885482.0764   20885478.8424
     -1366.9904
   4955709.55148   3852317.87143  22828476.4284   22828472.3694
     -1683.1784
 -14040467.89148 -10920301.11346  20673246.9044   20673244.2724
      2883.1344
 04  9  3 15 58 44.9980000  0  6G 1G20G11G14G22G25
 -14328003.30149 -11150588.02345  21267406.2874   21267403.7324
      3149.9584
  -2448703.71546  -1898636.64142  23151301.1394   23151297.9164
      3890.8744
 -11037163.78149  -8578294.51645  20807469.5844   20807465.9204
      1864.3334
   2673989.39149   2081184.84445  20889394.2874   20889390.6274
     -1370.5744
   4980993.91048   3872019.93043  22833288.0374   22833283.8974
     -1685.6244
 -14083601.60548 -10953911.80146  20665038.8034   20665036.2254
      2875.5814
 04  9  3 15 58 59.9980000  0  6G 1G20G11G14G22G25
 -14375179.46549 -11187348.66845  21258428.8184   21258426.3544
      3145.0784
  -2507058.27746  -1944107.70342  23140197.2014   23140193.7724
      3890.3044
 -11064996.50849  -8599982.35245  20802173.7254   20802169.8114
      1855.5154
   2694601.97349   2097246.59044  20893316.8734   20893313.1824
     -1374.1724
   5006315.45348   3891750.96543  22838106.4204   22838102.6934
     -1688.1034
 -14126621.52749 -10987433.81246  20656852.2094   20656849.8264
      2867.9954
 04  9  3 15 59 14.9980000  0  6G 1G20G11G14G22G25
 -14422282.78149 -11224052.53945  21249465.4754   21249462.9434
      3140.2214
  -2565404.67646  -1989572.42642  23129093.9674   23129091.1974
      3889.7604
 -11092697.18749  -8621567.30545  20796902.3114   20796898.5724
      1846.7124
   2715267.93849   2113349.92644  20897249.5294   20897246.0764
     -1377.7314
   5031673.79748   3911510.68443  22842932.1004   22842927.6004
     -1690.5564
 -14169527.72748 -11020867.21146  20648687.6074   20648684.9394
      2860.4134
 04  9  3 15 59 29.9980000  0  6G 1G20G11G14G22G25
 -14469312.98449 -11260699.44545  21240516.2724   21240513.7914
      3135.3474
  -2623742.67646  -2035030.57842  23117993.0144   23117989.7524
      3889.2004
 -11120265.39149  -8643049.02745  20791656.6474   20791652.2684
      1837.8804
   2735987.29749   2129494.87145  20901192.5294   20901189.4244
     -1381.2914
   5057069.03548   3931299.15643  22847764.1544   22847760.1434
     -1693.0164
 -14212319.76248 -11054211.64145  20640544.2954   20640542.2644
      2852.8024
 04  9  3 15 59 44.9980000  0  6G 1G20G11G14G22G25
 -14516269.72749 -11297289.10544  21231580.3424   21231578.1894
      3130.4494
  -2682071.80146  -2080481.83642  23106892.2484   23106890.5224
      3888.6084
 -11147700.71949  -8664427.21145  20786435.5844   20786431.4554
      1829.0224
   2756760.07449   2145681.43045  20905145.2724   20905141.8854
     -1384.8524
   5082501.46548   3951116.60243  22852604.3344   22852600.5844
     -1695.4954
 -14254997.14548 -11087466.74246  20632423.1624   20632420.3264
      2845.1594
 04  9  3 15 59 59.9980000  0  6G 1G20G11G14G22G25
 -14563153.82448 -11333822.16445  21222658.2484   21222656.1864
      3125.6074
  -2740392.75846  -2125926.71542  23095794.9594   23095792.2054
      3888.0644
 -11175003.93449  -8685702.44945  20781239.7954   20781235.7054
      1820.2144
   2777585.20749   2161908.80144  20909107.9674   20909105.0064
     -1388.3424
   5107970.15248   3970962.31643  22857450.7174   22857446.8854
     -1697.9124
 -14297560.43749 -11120632.93746  20624323.5144   20624320.7014
      2837.5534
 04  9  3 16  0 14.9980000  0  6G 1G20G11G14G22G25
 -14609962.30549 -11370296.29744  21213751.3574   21213748.8224
      3120.5654
  -2798702.35946  -2171362.76242  23084699.0844   23084696.6434
      3887.3074
 -11202171.92648  -8706872.31645  20776070.0924   20776065.9364
      1811.1994
   2798465.47749   2178179.11744  20913081.5144   20913078.0184
     -1392.0184
   5133478.09848   3990838.60243  22862304.5374   22862300.5614
     -1700.5304
 -14340006.55548 -11153707.83246  20616246.4754   20616243.2644
      2829.7414
 04  9  3 16  0 29.9980000  0  6G 1G20G11G14G22G25
 -14656696.79748 -11406712.76644  21204858.1154   21204855.4474
      3115.6334
  -2857002.26647  -2216791.24642  23073604.7874   23073602.4794
      3886.6604
 -11229206.16848  -8727937.96145  20770925.4364   20770921.4164
      1802.2834
   2819399.01649   2194490.95745  20917064.8264   20917061.0724
     -1395.5694
   5159023.59448   4010744.15642  22867165.8814   22867162.7214
     -1703.0334
 -14382336.80148 -11186692.43746  20608191.3894   20608188.3224
      2822.0164
 04  9  3 16  0 44.9980000  0  6G 1G20G11G14G22G25
 -14703358.82849 -11443072.78144  21195978.3184   21195975.7444
      3110.8024
  -2915294.03947  -2262213.39543  23062512.6234   23062509.8184
      3886.1184
 -11256108.18749  -8748900.58245  20765806.0294   20765802.1004
      1793.4684
   2840383.85949   2210842.77044  20921058.4594   20921054.9364
     -1398.9904
   5184604.95348   4030677.65243  22872034.3734   22872030.7604
     -1705.4244
 -14424552.58249 -11219587.84046  20600158.0534   20600155.2174
      2814.3854
 04  9  3 16  0 59.9980000  0  6G 1G20G11G14G22G25
 -14749947.75049 -11479375.84044  21187112.6544   21187110.4984
      3105.9284
  -2973576.88347  -2307628.57843  23051421.2404   23051418.9714
      3885.5234
 -11282877.25449  -8769759.59845  20760712.4514   20760708.0964
      1784.6044
   2861420.50049   2227234.94144  20925061.5144   20925057.7134
     -1402.4434
   5210222.77748   4050639.56343  22876909.1314   22876905.3074
     -1707.8554
 -14466653.14849 -11252393.46546  20592146.3264   20592143.7914
      2806.7044
 04  9  3 16  1 14.9980000  0  6G 1G20G11G14G22G25
 -14796463.59449 -11515621.94544  21178261.1544   21178258.7724
      3101.0564
  -3031850.82447  -2353036.82443  23040332.3114   23040329.7834
      3884.9294
 -11309513.44148  -8790515.07045  20755643.5534   20755639.3694
      1775.7464
   2882508.59849   2243667.21144  20929074.3814   20929070.7214
     -1405.8734
   5235876.93848   4070629.77743  22881791.1154   22881787.5764
     -1710.2774
 -14508638.42649 -11285109.25846  20584156.6704   20584153.5144
      2799.0184
 04  9  3 16  1 29.9980000  0  6G 1G20G11G14G22G25
 -14842906.44549 -11551811.17244  21169423.4594   21169420.6894
      3096.1904
  -3090115.80947  -2398438.09442  23029244.7484   23029242.5494
      3884.3324
 -11336016.67649  -8811166.95345  20750600.2874   20750596.2014
      1766.8824
   2903647.90649   2260139.37945  20933097.2254   20933093.7014
     -1409.2874
   5261567.30548   4090648.21543  22886679.1474   22886675.4714
     -1712.6914
 -14550508.35249 -11317735.16846  20576189.2794   20576186.1974
      2791.3284
 04  9  3 16  1 44.9980000  0  6G 1G20G11G14G22G25
 -14889275.42649 -11587942.82844  21160599.6624   21160596.9164
      3091.2654
  -3148370.95347  -2443831.69543  23018159.3504   23018156.1894
      3883.6764
 -11362385.99248  -8831714.47345  20745582.4124   20745578.7014
      1757.9544
   2924838.95349   2276651.87545  20937129.6704   20937126.4324
     -1412.7364
   5287294.61748   4110695.43042  22891575.0844   22891571.0104
     -1715.1544
 -14592261.88349 -11350270.37146  20568244.2484   20568240.6974
      2783.5694
 04  9  3 16  1 59.9980000  0  6G 1G20G11G14G22G25
 -14935570.71549 -11624017.07845  21151790.2724   21151787.8694
      3086.3534
  -3206616.29348  -2489217.67643  23007075.5064   23007071.7444
      3883.0234
 -11388621.40648  -8852157.66445  20740590.1074   20740586.3424
      1749.0284
   2946081.40649   2293204.41444  20941171.7954   20941168.7644
     -1416.1644
   5313058.67648   4130771.28542  22896477.6704   22896473.6894
     -1717.6044
 -14633898.80948 -11382714.71546  20560320.8734   20560317.3614
      2775.7954
 04  9  3 16  2 14.9980000  0  6G 1G20G11G14G22G25
 -14981793.18749 -11660034.57845  21142994.2724   21142991.8934
      3081.4984
  -3264852.63348  -2534596.63743  22995993.6234   22995990.2214
      3882.4234
 -11414723.86348  -8872497.25045  20735622.6624   20735618.8384
      1740.1644
   2967374.06348   2309796.08244  20945223.6074   20945220.5224
     -1419.5104
   5338858.45748   4150874.96542  22901387.5224   22901383.2834
     -1719.9854
 -14675419.89548 -11415068.80546  20552419.6154   20552416.1704
      2768.0724
 04  9  3 16  2 29.9980000  0  6G 1G20G11G14G22G25
 -15027941.95749 -11695994.64845  21134212.3654   21134209.8574
      3076.5854
  -3323079.19148  -2579967.97743  22984913.7874   22984909.7794
      3881.7714
 -11440692.44548  -8892732.51645  20730680.7094   20730677.3574
      1731.2394
   2988717.48449   2326427.29744  20949285.4514   20949281.7994
     -1422.8954
   5364694.80148   4171007.15243  22906304.0844   22906299.9984
     -1722.4234
 -14716824.29349 -11447331.96146  20544540.7254   20544537.2094
      2760.2934
 04  9  3 16  2 44.9980000  0  6G 1G20G11G14G22G25
 -15074017.24649 -11731897.47345  21125444.8184   21125442.4084
      3071.6864
  -3381295.95348  -2625331.67643  22973835.4594   22973831.4474
      3881.1174
 -11466527.14848  -8912863.46145  20725764.7404   20725760.7604
      1722.3144
   3010111.22348   2343097.72744  20953356.1704   20953352.8424
     -1426.2494
   5390567.41448   4191167.59443  22911227.5534   22911222.9794
     -1724.8414
 -14758111.92648 -11479504.12146  20536684.1624   20536680.5764
      2752.5094
 04  9  3 16  2 59.9980000  0  6G 1G20G11G14G22G25
 -15120018.71949 -11767742.75845  21116690.5684   21116688.5884
      3066.7654
  -3439502.44548  -2670687.37142  22962758.9204   22962755.7364
      3880.4334
 -11492227.60248  -8932889.78945  20720874.1074   20720870.1784
      1713.3644
   3031555.39548   2359807.46944  20957436.8734   20957433.4124
     -1429.6114
   5416476.47748   4211356.43443  22916157.9824   22916154.2524
     -1727.2714
 -14799282.21949 -11511584.85946  20528849.6074   20528846.6434
      2744.6864
 04  9  3 16  3 14.9980000  0  6G 1G20G11G14G22G25
 -15165945.83649 -11803530.11745  21107950.8114   21107948.9084
      3061.8084
  -3497698.11748  -2716034.63742  22951684.4434   22951680.9474
      3879.7114
 -11517793.19548  -8952811.03945  20716009.2404   20716005.4514
      1704.3734
   3053050.24649   2376556.68844  20961527.6624   20961524.0254
     -1432.9904
   5442422.58648   4231574.14543  22921095.3264   22921092.2014
     -1729.7414
 -14840334.59048 -11543573.70746  20521037.4434   20521034.7014
      2736.8254
 04  9  3 16  3 29.9980000  0  6G 1G20G11G14G22G25
 -15211799.01249 -11839259.85545  21099225.4044   21099223.0684
      3056.8784
  -3555883.37547  -2761373.79342  22940611.6784   22940609.1824
      3879.0174
 -11543224.34848  -8972627.51245  20711169.5224   20711166.1504
      1695.4104
   3074595.10549   2393344.87144  20965627.0614   20965624.1784
     -1436.3244
   5468405.22748   4251820.32043  22926039.7404   22926036.5534
     -1732.1764
 -14881269.37949 -11575470.93446  20513247.5454   20513244.8934
      2728.9864
 04  9  3 16  3 44.9980000  0  6G 1G20G11G14G22G25
 -15257578.08249 -11874931.84845  21090513.8264   21090511.6234
      3051.9384
  -3614057.91848  -2806704.58642  22929542.1624   22929539.0804
      3878.3034
 -11568520.66048  -8992338.93045  20706355.6544   20706352.5374
      1686.4214
   3096189.92248   2410171.98844  20969736.5224   20969733.6194
     -1439.6544
   5494424.38348   4272094.95343  22930991.4674   22930987.9474
     -1734.6104
 -14922086.13348 -11607276.18746  20505480.3574   20505477.5144
      2721.1174
 04  9  3 16  3 59.9980000  0  6G 1G20G11G14G22G25
 -15303284.14549 -11910546.95344  21081816.3504   21081814.1824
      3047.0714
  -3672222.69947  -2852027.78142  22918473.7094   22918470.8654
      3877.6524
 -11593683.29348  -9011946.19145  20701567.7094   20701564.1354
      1677.5094
   3117833.37548   2427037.00045  20973855.4594   20973851.8504
     -1442.8974
   5520478.87548   4292397.12943  22935948.5684   22935945.5924
     -1736.9664
 -14962785.77748 -11638990.19546  20497735.4124   20497732.6974
      2713.3104
 04  9  3 16  4 14.9980000  0  6G 1G20G11G14G22G25
 -15348916.77049 -11946104.82845  21073132.8734   21073130.1074
      3042.1754
  -3730377.19147  -2897342.96542  22907406.9434   22907403.8114
      3876.9664
 -11618711.78148  -9031448.90245  20696805.0534   20696801.2724
      1668.5664
   3139525.55549   2443939.99244  20977983.4044   20977979.8504
     -1446.1454
   5546569.14548   4312727.18043  22940913.3264   22940910.0684
     -1739.3514
 -15003367.84048 -11670612.57046  20490012.9124   20490010.5574
      2705.4714
 04  9  3 16  4 29.9980000  0  6G 1G20G11G14G22G25
 -15394475.57449 -11981605.18745  21064463.0224   21064460.4514
      3037.2544
  -3788521.03948  -2942649.86342  22896342.5374   22896339.0334
      3876.2574
 -11643605.64848  -9050846.73045  20692067.9284   20692064.1474
      1659.5914
   3161266.59449   2460881.04744  20982120.3504   20982117.1974
     -1449.4034
   5572695.46148   4333085.30543  22945885.5614   22945882.1504
     -1741.7544
 -15043831.84848 -11702142.95746  20482312.8574   20482310.0574
      2697.6014
 04  9  3 16  4 44.9980000  0  6G 1G20G11G14G22G25
 -15439960.75049 -12017048.16445  21055807.6074   21055805.0964
      3032.3454
  -3846654.23448  -2987948.44942  22885280.2014   22885276.8654
      3875.5464
 -11668364.88748  -9070139.64845  20687356.6004   20687352.7754
      1650.6164
   3183056.17648   2477859.93844  20986266.8114   20986263.5924
     -1452.6394
   5598857.56348   4353471.32043  22950864.2404   22950860.3184
     -1744.1404
 -15084177.64148 -11733581.22746  20474635.3974   20474632.0254
      2689.7204
 04  9  3 16  4 59.9980000  0  6G 1G20G11G14G22G25
 -15485371.78949 -12052433.38745  21047166.0844   21047163.4634
      3027.4034
  -3904776.30548  -3033238.35242  22874220.0294   22874216.8974
      3874.8054
 -11692988.98449  -9089327.27045  20682670.5454   20682666.8694
      1641.6074
   3204894.46948   2494876.78144  20990422.3814   20990419.3384
     -1455.8864
   5625055.87548   4373885.55543  22955849.8344   22955845.4124
     -1746.5544
 -15124404.59448 -11764926.90246  20466980.2484   20466977.4514
      2681.7974
 04  9  3 16  5 14.9980000  0  6G 1G20G11G14G22G25
 -15530709.32449 -12087761.32845  21038538.7094   21038536.4904
      3022.5024
  -3962887.72748  -3078519.98442  22863162.1784   22863158.0294
      3874.0954
 -11717478.63349  -9108410.11345  20678010.3974   20678006.4284
      1632.6434
   3226780.49649   2511930.80944  20994587.5224   20994583.7644
     -1459.0684
   5651289.80948   4394327.54343  22960842.1784   22960837.2014
     -1748.9294
 -15164513.21549 -11796180.36746  20459348.0374   20459344.8654
      2673.9084
 04  9  3 16  5 29.9980000  0  6G 1G20G11G14G22G25
 -15575972.57449 -12123031.38345  21029924.9984   21029923.1974
      3017.5504
  -4020987.62947  -3123792.63342  22852105.7724   22852102.0024
      3873.3274
 -11741832.95349  -9127387.51645  20673375.7644   20673372.1704
      1623.6214
   3248715.00049   2529022.62144  20998761.7644   20998757.9244
     -1462.3004
   5677559.98048   4414797.75843  22965841.0294   22965836.6974
     -1751.3454
 -15204502.54349 -11827340.87546  20451738.3974   20451735.0144
      2665.9554
 04  9  3 16  5 44.9980000  0  6G 1G20G11G14G22G25
 -15621162.19949 -12158244.07445  21021325.8424   21021323.6004
      3012.6424
  -4079076.63747  -3169056.78942  22841051.3654   22841047.9554
      3872.6014
 -11766052.52049  -9146259.91045  20668767.0534   20668763.4364
      1614.6384
   3270696.87949   2546151.34844  21002944.5144   21002940.9204
     -1465.4594
   5703865.58248   4435295.58243  22970847.0144   22970842.6864
     -1753.7074
 -15244373.16049 -11858408.88346  20444151.3504   20444148.0964
      2658.0414
 04  9  3 16  5 59.9980000  0  6G 1G20G11G14G22G25
 -15666278.02349 -12193399.26645  21012741.0374   21012738.4514
      3007.7224
  -4137154.41847  -3214312.20342  22830000.2094   22829995.3074
      3871.8524
 -11790137.16848  -9165027.17645  20664183.7874   20664180.4554
      1605.6434
   3292726.00848   2563316.87544  21007136.3504   21007133.1624
     -1468.6094
   5730206.60548   4455821.02343  22975859.4364   22975855.2834
     -1756.0684
 -15284124.74249 -11889384.13346  20436586.2644   20436583.8734
      2650.1054
 04  9  3 16  6 14.9980000  0  6G 1G20G11G14G22G25
 -15711320.37949 -12228497.19545  21004169.4514   21004167.4794
      3002.8244
  -4195221.10247  -3259558.96542  22818950.1004   22818946.4794
      3871.1124
 -11814087.07448  -9183689.44145  20659626.2644   20659622.7954
      1596.6604
   3314801.93848   2580518.88744  21011337.0844   21011334.0104
     -1471.7294
   5756582.87948   4476373.91443  22980878.1784   22980874.7484
     -1758.4184
 -15323757.39148 -11920266.70746  20429044.9754   20429042.1234
      2642.1774
 04  9  3 16  6 29.9980000  0  6G 1G20G11G14G22G25
 -15756289.18049 -12263537.82445  20995612.2724   20995610.2484
      2997.9204
  -4253276.71947  -3304797.10542  22807902.4824   22807898.8384
      3870.3744
 -11837901.96148  -9202246.50445  20655094.5294   20655090.7404
      1587.6594
   3336924.62548   2597757.33244  21015547.1784   21015543.5024
     -1474.8464
   5782994.40648   4496954.28943  22985904.2724   22985900.8424
     -1760.7684
 -15363270.82049 -11951056.39546  20421525.5764   20421523.2094
      2634.2294
 04  9  3 16  6 44.9970000  0  6G 1G20G11G14G22G25
 -15801181.76249 -12298519.05145  20987069.5714   20987067.1884
      2992.8394
  -4311317.47747  -3350023.66842  22796857.6264   22796854.0874
      3869.3844
 -11861580.61748  -9220697.41445  20650588.8064   20650585.4234
      1578.5774
   3359092.05148   2615030.64144  21019765.4314   21019761.8604
     -1477.8284
   5809438.99248   4517560.41843  22990936.4234   22990932.5714
     -1762.9724
 -15402662.59049 -11981751.28146  20414029.5094   20414026.9814
      2626.1184
 04  9  3 16  6 59.9970000  0  6G 1G20G11G14G22G25
 -15846003.07449 -12333444.74245  20978540.0714   20978537.6774
      2988.0884
  -4369350.02747  -3395243.82442  22785813.9784   22785811.1064
      3868.8374
 -11885125.20748  -9239043.84845  20646108.3064   20646105.0524
      1569.6394
   3381307.81648   2632341.61744  21023993.3374   21023989.4974
     -1481.0514
   5835921.06348   4538195.76243  22995976.1574   22995972.3334
     -1765.4714
 -15441936.75049 -12012354.52346  20406556.0794   20406553.3104
      2618.2774
 04  9  3 16  7 14.9970000  0  6G 1G20G11G14G22G25
 -15890750.25449 -12368312.67245  20970025.1574   20970022.8294
      2983.1454
  -4427370.55947  -3440454.60542  22774773.3134   22774770.4584
      3868.0354
 -11908534.11749  -9257284.56246  20641653.8214   20641650.0914
      1560.5944
   3403570.07448   2649688.81344  21028229.1494   21028225.8994
     -1484.1514
   5862438.73448   4558858.85242  23001022.3294   23001018.7784
     -1767.8454
 -15481090.83249 -12042864.18746  20399105.2904   20399102.1654
      2610.2724
 04  9  3 16  7 29.9970000  0  6G 1G20G11G14G22G25
 -15935424.34049 -12403123.63345  20961524.0484   20961521.6184
      2978.2724
  -4485380.05547  -3485656.78942  22763734.2044   22763731.9314
      3867.3004
 -11931808.43048  -9275420.40246  20637224.7204   20637221.0364
      1551.6214
   3425877.55147   2667071.25444  21032474.3064   21032470.6654
     -1487.1654
   5888990.81648   4579548.75043  23006075.3764   23006070.9624
     -1770.1394
 -15520125.68449 -12073280.94146  20391677.5874   20391674.0484
      2602.3234
 04  9  3 16  7 44.9970000  0  6G 1G20G11G14G22G25
 -15980024.61349 -12437877.08245  20953036.4074   20953033.7824
      2973.3524
  -4543377.76647  -3530849.79742  22752698.3604   22752694.8924
      3866.5144
 -11954947.30948  -9293450.70746  20632821.8764   20632818.1814
      1542.5924
   3448230.66448   2684489.25044  21036728.0404   21036724.4194
     -1490.2084
   5915577.92648   4600265.94142  23011134.4784   23011130.2634
     -1772.4744
 -15559040.41849 -12103604.10246  20384272.2824   20384268.7594
      2594.3164
 04  9  3 16  7 59.9970000  0  6G 1G20G11G14G22G25
 -16024551.02049 -12472572.97344  20944563.4784   20944560.8724
      2968.4274
  -4601363.30148  -3576033.32442  22741663.5564   22741660.7474
      3865.7024
 -11977950.50048  -9311375.27345  20628444.4544   20628440.6964
      1533.5464
   3470629.40647   2701942.79344  21040990.2124   21040986.7674
     -1493.2494
   5942200.04348   4621010.42643  23016200.1814   23016196.2314
     -1774.8084
 -15597834.70749 -12133833.40646  20376889.8994   20376886.2594
      2586.2864
 04  9  3 16  8 14.9970000  0  6G 1G20G11G14G22G25
 -16069003.45749 -12507211.23044  20936104.7514   20936101.7784
      2963.4964
  -4659336.51647  -3621207.23842  22730631.6184   22730628.5284
      3864.8814
 -12000817.98849  -9329194.09446  20624092.7204   20624089.2284
      1524.4994
   3493073.51248   2719431.68844  21045261.5714   21045258.2434
     -1496.2744
   5968857.28948   4641782.26243  23021273.0174   23021268.8104
     -1777.1504
 -15636508.23049 -12163968.60546  20369530.4544   20369526.8684
      2578.2354
 04  9  3 16  8 29.9970000  0  6G 1G20G11G14G22G25
 -16113382.08248 -12541791.98045  20927659.4234   20927656.8174
      2958.5754
  -4717297.51647  -3666371.64842  22719601.9854   22719598.2124
      3864.0674
 -12023549.96148  -9346907.33246  20619766.8844   20619762.9154
      1515.4654
   3515562.56648   2736955.61344  21049540.9314   21049537.2514
     -1499.2704
   5995549.39548   4662581.25842  23026352.5484   23026348.2984
     -1779.4744
 -15675061.05549 -12194009.75846  20362194.1574   20362190.4814
      2570.1884
 04  9  3 16  8 44.9970000  0  6G 1G20G11G14G22G25
 -16157686.23049 -12576314.69145  20919228.9314   20919226.1384
      2953.6104
  -4775245.53947  -3711525.94942  22708574.8534   22708571.7004
      3863.2024
 -12046145.61349  -9364514.33246  20615467.1494   20615463.3604
      1506.3774
   3538097.05948   2754514.93844  21053829.0794   21053825.3374
     -1502.2994
   6022276.98448   4683407.90643  23031438.5794   23031434.1774
     -1781.8394
 -15713492.51249 -12223956.33646  20354880.8684   20354877.4704
      2562.0974
 04  9  3 16  8 59.9970000  0  6G 1G20G11G14G22G25
 -16201915.51249 -12610779.06645  20910812.2824   20910809.5714
      2948.6194
  -4833180.11347  -3756669.75842  22697550.0874   22697547.1424
      3862.3054
 -12068604.44149  -9382014.73045  20611193.3844   20611189.7784
      1497.2554
   3560677.18848   2772109.82844  21058126.2984   21058122.6424
     -1505.3424
   6049040.43448   4704262.49242  23036531.4234   23036527.4854
     -1784.2304
 -15751801.94149 -12253807.83646  20347590.4624   20347587.0714
      2553.9624
 04  9  3 16  9 14.9970000  0  6G 1G20G11G14G22G25
 -16246070.34449 -12645185.41445  20902410.1034   20902407.7594
      2943.6554
  -4891101.59047  -3801803.34842  22686527.7594   22686524.8494
      3861.4324
 -12090926.83649  -9399408.82445  20606945.8684   20606941.8134
      1488.1604
   3583302.27048   2789739.75044  21062431.3454   21062428.3724
     -1508.3394
   6075839.30548   4725144.69542  23041631.4314   23041627.6304
     -1786.5914
 -15789989.70349 -12283564.53146  20340323.7204   20340320.3994
      2545.8514
 04  9  3 16  9 29.9970000  0  6G 1G20G11G14G22G25
 -16290150.46149 -12679533.55945  20894021.8844   20894019.4504
      2938.6744
  -4949009.61347  -3846926.48042  22675508.6034   22675504.9814
      3860.5354
 -12113112.52049  -9416696.37546  20602723.6264   20602719.8994
      1479.0464
   3605972.32048   2807404.70344  21066745.5484   21066742.0214
     -1511.3374
   6102673.64848   4746054.52743  23046737.7354   23046734.1924
     -1788.9564
 -15828055.41848 -12313226.11746  20333079.6884   20333076.8414
      2537.7144
 04  9  3 16  9 44.9970000  0  6G 1G20G11G14G22G25
 -16334157.06249 -12713824.41045  20885647.4854   20885645.4114
      2933.7734
  -5006905.16847  -3892039.88342  22664491.6104   22664487.8764
      3859.7044
 -12135162.60248  -9433878.25045  20598528.0094   20598524.1424
      1470.0054
   3628685.81348   2825103.51644  21071067.4854   21071064.4114
     -1514.2334
   6129542.08248   4766990.94942  23051850.6574   23051847.5954
     -1791.2294
 -15866000.13348 -12342793.42246  20325859.5634   20325856.4584
      2529.6484
 04  9  3 16  9 59.9970000  0  6G 1G20G11G14G22G25
 -16378089.29349 -12748057.30145  20877287.5014   20877285.2514
      2928.8154
  -5064787.30947  -3937142.82442  22653477.1184   22653473.6384
      3858.8094
 -12157076.22748  -9450953.81646  20594357.7984   20594354.3064
      1460.9084
   3651443.47748   2842836.75444  21075398.1344   21075394.9854
     -1517.1784
   6156445.41048   4787954.54743  23056970.0634   23056967.4464
     -1793.5554
 -15903822.72749 -12372265.55946  20318662.0324   20318658.8174
      2521.5064
 04  9  3 16 10 14.9970000  0  6G 1G20G11G14G22G25
 -16421947.28549 -12782232.34845  20868941.8134   20868939.1384
      2923.8664
  -5122656.09047  -3982235.37542  22642464.5634   22642461.4114
      3857.9194
 -12178853.33248  -9467922.99646  20590213.5244   20590210.1384
      1451.8074
   3674244.89848   2860604.07444  21079737.0244   21079733.8884
     -1520.0954
   6183383.59047   4808945.29742  23062095.3454   23062093.4354
     -1795.8794
 -15941523.30149 -12401642.62146  20311487.8994   20311484.8334
      2513.3724
 04  9  3 16 10 29.9970000  0  6G 1G20G11G14G22G25
 -16465731.50849 -12816349.91845  20860610.1424   20860607.4584
      2918.9484
  -5180511.83247  -4027317.74642  22631454.6964   22631452.0834
      3857.0494
 -12200494.43048  -9484786.19546  20586095.7744   20586092.3964
      1442.7404
   3697089.39547   2878404.95744  21084084.4934   21084080.7744
     -1522.9664
   6210356.06348   4829962.75842  23067228.5714   23067225.5564
     -1798.1654
 -15979102.14148 -12430924.82846  20304336.9934   20304333.6104
      2505.2564
 04  9  3 16 10 44.9970000  0  6G 1G20G11G14G22G25
 -16509441.73049 -12850409.82845  20852292.0244   20852289.7594
      2914.0154
  -5238354.32847  -4072389.79742  22620448.0954   22620445.3684
      3856.1664
 -12221999.32848  -9501543.26246  20582003.3994   20581999.8964
      1433.6604
   3719976.98847   2896239.43444  21088440.0014   21088436.4314
     -1525.8404
   6237362.96547   4851007.05542  23072368.2124   23072365.3724
     -1800.4604
 -16016558.90249 -12460111.91046  20297209.0324   20297206.0324
      2497.1174
 04  9  3 16 10 59.9970000  0  6G 1G20G11G14G22G25
 -16553077.67649 -12884411.85545  20843988.3604   20843986.0604
      2909.0634
  -5296183.09447  -4117451.14542  22609443.3294   22609440.5954
      3855.2514
 -12243367.69149  -9518193.94546  20577937.0484   20577933.2474
      1424.5584
   3742907.77748   2914107.56644  21092803.2594   21092800.0134
     -1528.7194
   6264404.44947   4872078.30542  23077514.3294   23077511.0674
     -1802.7664
 -16053893.03549 -12489203.42646  20290104.5794   20290101.5634
      2488.9424
 04  9  3 16 11 14.9970000  0  6G 1G20G11G14G22G25
 -16596639.53549 -12918356.15645  20835698.3924   20835696.5174
      2904.1244
  -5353998.18447  -4162501.85542  22598441.7434   22598438.4194
      3854.3394
 -12264599.57849  -9534738.28146  20573897.2744   20573893.3454
      1415.4594
   3765881.23448   2932008.94144  21097175.1264   21097171.4354
     -1531.5644
   6291480.34447   4893176.35942  23082666.2204   23082663.5754
     -1805.0604
 -16091104.66449 -12518199.49646  20283023.0794   20283020.3494
      2480.7754
 04  9  3 16 11 29.9970000  0  6G 1G20G11G14G22G25
 -16640127.27049 -12952242.69145  20827423.3994   20827421.5954
      2899.1824
  -5411799.58647  -4207541.90643  22587442.2354   22587439.2084
      3853.4274
 -12285694.91849  -9551176.21946  20569882.4704   20569878.9544
      1406.3564
   3788897.23848   2949943.47744  21101554.9234   21101551.1184
     -1534.4004
   6318590.55947   4914301.16442  23087825.5324   23087822.0014
     -1807.3484
 -16128193.61349 -12547099.97346  20275965.2514   20275962.5914
      2472.5974
 04  9  3 16 11 44.9970000  0  6G 1G20G11G14G22G25
 -16683541.12949 -12986071.66845  20819162.1184   20819159.6924
      2894.2574
  -5469587.37147  -4252571.31642  22576445.8844   22576442.9704
      3852.5194
 -12306653.92249  -9567507.91846  20565894.2904   20565890.6814
      1397.2674
   3811955.19548   2967910.70744  21105942.8844   21105939.3534
     -1537.1974
   6345734.82047   4935452.51242  23092990.5564   23092987.1494
     -1809.6174
 -16165160.00049 -12575904.94946  20268931.0094   20268927.8844
      2464.4264
 04  9  3 16 11 59.9970000  0  6G 1G20G11G14G22G25
 -16726880.88749 -13019842.90245  20810914.6574   20810912.3564
      2889.3174
  -5527361.03947  -4297589.76243  22565452.2434   22565448.6654
      3851.5784
 -12327476.31249  -9583733.16046  20561932.0014   20561928.2124
      1388.1594
   3835055.28148   2985910.75044  21110338.6344   21110335.2714
     -1540.0064
   6372913.28947   4956630.50042  23098162.2124   23098159.0324
     -1811.8984
 -16202003.38749 -12604614.07446  20261920.1424   20261916.9544
      2456.2264
 04  9  3 16 12 14.9970000  0  6G 1G20G11G14G22G25
 -16770146.69149 -13053556.51645  20802681.5244   20802678.9744
      2884.3874
  -5585120.73047  -4342597.29743  22554460.6734   22554457.5834
      3850.6464
 -12348162.24249  -9599852.07846  20557995.6184   20557991.9744
      1379.0624
   3858196.97348   3003943.22344  21114742.5634   21114738.7714
     -1542.7794
   6400125.63347   4977834.87942  23103341.1884   23103337.8214
     -1814.1564
 -16238723.86349 -12633227.42646  20254932.3064   20254929.3024
      2448.0324
 04  9  3 16 12 29.9970000  0  6G 1G20G11G14G22G25
 -16813338.04349 -13087212.10545  20794462.3994   20794460.2434
      2879.4234
  -5642865.87148  -4387593.49643  22543471.7824   22543469.3254
      3849.6764
 -12368711.13749  -9615864.20746  20554085.5094   20554081.5524
      1369.9264
   3881380.75848   3022008.48444  21119154.1574   21119150.4384
     -1545.5864
   6427372.40647   4999066.08642  23108525.7354   23108522.4354
     -1816.4524
 -16275320.82849 -12661744.53546  20247968.2354   20247965.1464
      2439.7984
 04  9  3 16 12 44.9970000  0  6G 1G20G11G14G22G25
 -16856455.42249 -13120810.06245  20786257.6964   20786255.2394
      2874.4924
  -5700596.85248  -4432578.67243  22532486.5634   22532483.1654
      3848.7324
 -12389123.48449  -9631769.94146  20550200.5564   20550197.3414
      1360.8234
   3904605.75048   3040105.86744  21123573.6184   21123570.2314
     -1548.3334
   6454653.00847   5020323.66042  23113717.5714   23113713.7634
     -1818.7074
 -16311794.68049 -12690165.70746  20241027.6344   20241024.4234
      2431.5904
 04  9  3 16 12 59.9970000  0  6G 1G20G11G14G22G25
 -16899498.61749 -13154350.21545  20778066.7514   20778064.1654
      2869.5464
  -5758313.20347  -4477552.44543  22521503.4854   22521499.8844
      3847.7574
 -12409398.98449  -9647569.03546  20546342.6104   20546339.2004
      1351.7004
   3927872.00448   3058235.40244  21128001.3454   21127997.2594
     -1551.0844
   6481967.72747   5041607.82442  23118914.7674   23118911.2044
     -1820.9814
 -16348144.89549 -12718490.54346  20234110.4784   20234107.4314
      2423.3484
 04  9  3 16 13 14.9970000  0  6G 1G20G11G14G22G25
 -16942467.54349 -13187832.48845  20769889.8684   20769887.5674
      2864.5954
  -5816014.91847  -4522514.82043  22510523.1104   22510519.1344
      3846.7814
 -12429537.45349  -9663261.35946  20542510.3064   20542506.6924
      1342.5654
   3951179.37948   3076396.98044  21132436.2124   21132432.7824
     -1553.8254
   6509316.44548   5062918.47342  23124119.4704   23124115.8724
     -1823.2484
 -16384371.29349 -12746718.90246  20227216.7824   20227213.6424
      2415.0934
 04  9  3 16 13 29.9970000  0  6G 1G20G11G14G22G25
 -16985362.48449 -13221257.11745  20761727.3604   20761724.7514
      2859.6634
  -5873701.99247  -4567465.76643  22499545.7124   22499542.3534
      3845.8054
 -12449539.27349  -9678847.20346  20538704.4544   20538700.2204
      1333.4554
   3974527.43848   3094590.25444  21136879.1814   21136875.8334
     -1556.5374
   6536698.78948   5084255.33242  23129330.6734   23129326.6734
     -1825.4904
 -16420474.07448 -12774850.93446  20220346.4784   20220343.1964
      2406.8524
 04  9  3 16 13 44.9970000  0  6G 1G20G11G14G22G25
 -17028182.89549 -13254623.66845  20753578.6964   20753576.8604
      2854.6944
  -5931373.84047  -4612404.86343  22488571.0174   22488568.1344
      3844.7904
 -12469403.87549  -9694326.12546  20534924.1814   20534920.2904
      1324.3074
   3997916.41848   3112815.41844  21141330.0014   21141326.4704
     -1559.2654
   6564115.16848   5105618.73042  23134547.5014   23134544.2904
     -1827.7594
 -16456452.67649 -12802886.19546  20213500.2674   20213497.2124
      2398.5734
 04  9  3 16 13 59.9970000  0  6G 1G20G11G14G22G25
 -17070929.25049 -13287932.50445  20745444.3604   20745442.0954
      2849.7574
  -5989030.89148  -4657332.42643  22477599.2124   22477595.8294
      3843.8034
 -12489131.57849  -9709698.36346  20531170.3604   20531166.3104
      1315.1804
   4021345.61748   3131071.91444  21145788.9234   21145785.1854
     -1561.9474
   6591565.13348   5127008.28143  23139771.1654   23139768.0324
     -1829.9984
 -16492307.19549 -12830824.78146  20206676.9704   20206673.6964
      2390.3014
 04  9  3 16 14 14.9970000  0  6G 1G20G11G14G22G25
 -17113602.03549 -13321184.03145  20737323.9544   20737322.0444
      2844.8524
  -6046673.42248  -4702248.67643  22466630.1184   22466627.1384
      3842.8354
 -12508722.89149  -9724964.32446  20527442.0484   20527437.9074
      1306.0884
   4044814.29748   3149359.18444  21150254.5484   21150251.0674
     -1564.5794
   6619048.14847   5148423.59443  23145001.0484   23144998.0134
     -1832.2014
 -16528038.11749 -12858667.05146  20199877.5244   20199874.9074
      2382.0614
 04  9  3 16 14 29.9970000  0  6G 1G20G11G14G22G25
 -17156200.58249 -13354377.69545  20729217.5794   20729215.6064
      2839.9034
  -6104300.52748  -4747152.91043  22455664.2354   22455660.5134
      3841.8074
 -12528177.08649  -9740123.44946  20523740.1884   20523736.1224
      1296.9464
   4068322.96948   3167677.60944  21154728.1574   21154725.1574
     -1567.2454
   6646564.79348   5169865.11743  23150236.7434   23150234.0404
     -1834.4434
 -16563644.64549 -12886412.38746  20193101.5634   20193098.8564
      2373.7684
 04  9  3 16 14 44.9970000  0  6G 1G20G11G14G22G25
 -17198724.74649 -13387513.40245  20721125.2514   20721123.4074
      2834.9444
  -6161912.02348  -4792044.97743  22444700.7514   22444697.4154
      3840.7664
 -12547493.91449  -9755175.53145  20520064.3454   20520059.9704
      1287.7894
   4091871.61748   3186027.19144  21159209.2354   21159205.8534
     -1569.9104
   6674115.23047   5191332.95742  23155479.4784   23155476.8494
     -1836.6964
 -16599126.44949 -12914060.53946  20186349.8294   20186346.8174
      2365.4544
 04  9  3 16 14 59.9970000  0  6G 1G20G11G14G22G25
 -17241174.98449 -13420591.51245  20713047.5094   20713045.7044
      2830.0164
  -6219508.23848  -4836925.13343  22433740.2744   22433737.1144
      3839.7484
 -12566673.78149  -9770120.89146  20516414.2984   20516410.7204
      1278.6584
   4115459.55948   3204407.39144  21163697.9464   21163694.2244
     -1572.5294
   6701698.84447   5212826.65243  23160728.9624   23160726.2594
     -1838.9084
 -16634483.98449 -12941611.86346  20179621.7434   20179618.3844
      2357.1694
 04  9  3 16 15 14.9970000  0  6G 1G20G11G14G22G25
 -17283551.35249 -13453612.05945  20704983.7434   20704981.3214
      2825.0914
  -6277089.14848  -4881793.36743  22422783.4624   22422780.0714
      3838.7274
 -12585716.89149  -9784959.69546  20512790.5324   20512786.5054
      1269.5414
   4139086.48848   3222817.96944  21168193.9384   21168190.5914
     -1575.1294
   6729315.57848   5234346.14843  23165984.1654   23165981.3414
     -1841.1164
 -16669717.14849 -12969066.26646  20172917.0954   20172914.2354
      2348.8784
 04  9  3 16 15 29.9970000  0  6G 1G20G11G14G22G25
 -17325852.94949 -13486574.34045  20696933.7744   20696931.5094
      2820.1074
  -6334653.86748  -4926648.98043  22411829.0404   22411825.7904
      3837.6484
 -12604622.32449  -9799691.20345  20509192.7984   20509188.9354
      1260.3624
   4162753.00848   3241259.39544  21172697.9074   21172694.5914
     -1577.7684
   6756966.14847   5255892.00042  23171245.7514   23171242.8684
     -1843.3714
 -16704824.91049 -12996422.96546  20166236.2674   20166233.2904
      2340.5174
 04  9  3 16 15 44.9970000  0  6G 1G20G11G14G22G25
 -17368080.47749 -13519478.91045  20688898.2744   20688896.2004
      2815.1684
  -6392202.86748  -4971492.35243  22400877.6654   22400874.3454
      3836.6004
 -12623390.69949  -9814315.92645  20505621.7744   20505617.2744
      1251.2254
   4186458.19948   3259730.96544  21177208.6964   21177205.2674
     -1580.3464
   6784649.80547   5277463.63742  23176514.0484   23176510.3644
     -1845.5774
 -16739807.77749 -13023682.32846  20159579.2354   20159576.0714
      2332.1914
 04  9  3 16 15 59.9970000  0  6G 1G20G11G14G22G25
 -17410234.52349 -13552326.21545  20680876.5094   20680874.4934
      2810.2704
  -6449736.49647  -5016323.75043  22389929.3214   22389925.8604
      3835.5754
 -12642022.48849  -9828834.20345  20502076.2124   20502071.4384
      1242.1194
   4210201.34448   3278232.09444  21181726.4154   21181723.1494
     -1582.8764
   6812365.99247   5299060.62142  23181788.1034   23181785.0604
     -1847.7464
 -16774666.20349 -13050844.73046  20152945.7984   20152942.9744
      2323.8954
 04  9  3 16 16 14.9970000  0  6G 1G20G11G14G22G25
 -17452314.07449 -13585115.45345  20672869.3684   20672867.3374
      2805.3034
  -6507253.53947  -5061142.22343  22378984.2354   22378981.3414
      3834.4704
 -12660516.62549  -9843245.22345  20498556.6104   20498552.6304
      1232.9424
   4233983.34049   3296763.51244  21186252.2744   21186249.1464
     -1585.4664
   6840115.73047   5320683.75442  23187068.2904   23187065.0954
     -1849.9834
 -16809399.06649 -13077909.28946  20146336.2904   20146333.3064
      2315.5244
 04  9  3 16 16 29.9970000  0  6G 1G20G11G14G22G25
 -17494318.51649 -13617846.18045  20664876.1344   20664874.4314
      2800.2964
  -6564753.38748  -5105947.28143  22368042.0094   22368039.3294
      3833.3234
 -12678872.51649  -9857548.53145  20495063.3924   20495059.6384
      1223.7264
   4257804.48448   3315325.42244  21190784.9464   21190782.0404
     -1588.0764
   6867899.41047   5342333.32442  23192356.0174   23192352.1574
     -1852.2454
 -16844005.72749 -13104875.50846  20139751.0714   20139747.6694
      2307.1114
 04  9  3 16 16 44.9970000  0  6G 1G20G11G14G22G25
 -17536249.73049 -13650519.84845  20656897.1654   20656894.5604
      2795.4144
  -6622237.76247  -5150740.28543  22357103.7044   22357100.4974
      3832.2924
 -12697091.98449  -9871745.53145  20491596.5564   20491592.6224
      1214.6314
   4281662.73849   3333916.25044  21195325.1424   21195321.9894
     -1590.5504
   6895715.14847   5364007.87942  23197649.1424   23197646.0324
     -1854.3834
 -16878487.93049 -13131744.74646  20133188.9624   20133186.0094
      2298.8144
 04  9  3 16 16 59.9970000  0  6G 1G20G11G14G22G25
 -17578106.43449 -13683135.44545  20648931.8134   20648929.6694
      2790.4474
  -6679705.08647  -5195520.01642  22346167.7514   22346164.2864
      3831.1554
 -12715173.70749  -9885835.18445  20488155.8214   20488151.7164
      1205.4484
   4305559.28948   3352536.92244  21199872.5404   21199869.3724
     -1593.1034
   6923564.18847   5385708.37942  23202948.6264   23202945.8644
     -1856.6034
 -16912844.03549 -13158515.73446  20126651.4784   20126648.3764
      2290.4074
 04  9  3 16 17 14.9970000  0  6G 1G20G11G14G22G25
 -17619888.97349 -13715693.25845  20640981.1034   20640978.3214
      2785.5034
  -6737155.77047  -5240286.77743  22335235.3684   22335231.9464
      3830.0464
 -12733118.11349  -9899817.85545  20484740.8924   20484736.7394
      1196.2944
   4329493.49649   3371186.93444  21204427.1964   21204424.1144
     -1595.6144
   6951446.14147   5407434.54342  23208254.9464   23208251.5604
     -1858.7974
 -16947074.37149 -13185188.71546  20120137.4314   20120134.5634
      2282.0224
 04  9  3 16 17 29.9970000  0  6G 1G20G11G14G22G25
 -17661596.85249 -13748192.89545  20633044.1964   20633041.3294
      2780.5254
  -6794589.18746  -5285040.08643  22324306.0634   22324303.4544
      3828.8954
 -12750924.79749  -9913693.19945  20481352.7904   20481348.5214
      1187.1124
   4353465.50848   3389866.41444  21208989.0794   21208985.8964
     -1598.1344
   6979361.41447   5429186.64842  23213566.8134   23213563.6034
     -1861.0184
 -16981178.36749 -13211763.24646  20113647.8924   20113644.8994
      2273.6004
 04  9  3 16 17 44.9970000  0  6G 1G20G11G14G22G25
 -17703230.57049 -13780634.75445  20625121.6424   20625118.7944
      2775.5814
  -6852005.65647  -5329780.16843  22313380.2044   22313377.2784
      3827.7654
 -12768594.00049  -9927461.42645  20477990.0794   20477985.9504
      1177.9474
   4377474.69149   3408574.84844  21213557.8924   21213554.4274
     -1600.6124
   7007309.37547   5450964.24642  23218885.2204   23218881.8414
     -1863.1974
 -17015156.34449 -13238239.59046  20107181.9074   20107179.1064
      2265.1984
 04  9  3 16 17 59.9970000  0  6G 1G20G11G14G22G25
 -17744790.51649 -13813019.10545  20617212.9314   20617210.4624
      2770.6634
  -6909405.40247  -5374507.22742  22302456.8924   22302454.4544
      3826.6504
 -12786126.11349  -9941122.81245  20474653.9074   20474649.6064
      1168.8084
   4401520.40249   3427311.75444  21218133.8064   21218130.3884
     -1603.0474
   7035289.62547   5472767.00842  23224209.3214   23224205.7864
     -1865.3504
 -17049008.62149 -13264617.98446  20100740.2434   20100737.3534
      2256.8184
 04  9  3 16 18 14.9970000  0  6G 1G20G11G14G22G25
 -17786277.09849 -13845346.30145  20609318.2984   20609316.0634
      2765.7724
  -6966788.80947  -5419221.57042  22291537.6034   22291534.7784
      3825.5604
 -12803521.71149  -9954677.83645  20471343.6424   20471339.5714
      1159.7074
   4425602.04748   3446076.66444  21222716.0714   21222713.1464
     -1605.4434
   7063301.64147   5494594.50842  23229540.6184   23229537.0214
     -1867.4684
 -17082735.55949 -13290898.70746  20094322.2594   20094319.3534
      2248.4634
 04  9  3 16 18 29.9970000  0  6G 1G20G11G14G22G25
 -17827689.27349 -13877615.52045  20601438.0794   20601435.5364
      2760.8124
  -7024154.68447  -5463922.25442  22280621.0484   22280617.8804
      3824.3924
 -12820779.56649  -9968125.52345  20468059.4074   20468055.3924
      1150.5244
   4449720.50848   3464870.24644  21227305.8764   21227302.8254
     -1607.8974
   7091346.50846   5516447.60542  23234876.1574   23234873.3724
     -1869.6584
 -17116335.85949 -13317080.74646  20087928.1034   20087925.0564
      2240.0204
 04  9  3 16 18 44.9970000  0  6G 1G20G11G14G22G25
 -17869026.65649 -13909826.44545  20593571.5404   20593569.0994
      2755.8264
  -7081502.37947  -5508608.75443  22269708.0954   22269705.5754
      3823.1804
 -12837899.31249  -9981465.59445  20464801.4464   20464797.6774
      1141.3164
   4473876.03949   3483692.71944  21231902.4234   21231899.4194
     -1610.3694
   7119424.48047   5538326.48042  23240219.5324   23240216.3764
     -1871.8654
 -17149809.09449 -13343163.78146  20081558.7984   20081555.7164
      2231.5494
 04  9  3 16 18 59.9970000  0  6G 1G20G11G14G22G25
 -17910290.78949 -13941980.31645  20585719.2434   20585716.8064
      2750.9424
  -7138833.45347  -5553282.30543  22258798.4074   22258795.6774
      3822.0724
 -12854882.51649  -9994699.26645  20461569.9074   20461565.8644
      1132.2144
   4498066.75849   3502542.61344  21236506.0014   21236502.7674
     -1612.7154
   7147533.89547   5560229.89142  23245569.2514   23245565.4704
     -1873.9614
 -17183156.73449 -13369148.94146  20075212.6964   20075209.4384
      2223.1764
 04  9  3 16 19 14.9970000  0  6G 1G20G11G14G22G25
 -17951481.55949 -13974077.01245  20577881.0484   20577878.3214
      2746.0514
  -7196147.52748  -5597942.62542  22247891.9234   22247888.7394
      3820.9384
 -12871729.03949 -10007826.43045  20458364.2514   20458360.1654
      1123.1024
   4522292.73448   3521419.98444  21241116.1964   21241112.9424
     -1615.0654
   7175674.84447   5582157.84042  23250924.0634   23250920.6534
     -1876.0634
 -17216378.44149 -13395035.97346  20068890.6654   20068887.5444
      2214.7804
 04  9  3 16 19 29.9970000  0  6G 1G20G11G14G22G25
 -17992597.64849 -14006115.52345  20570056.9154   20570054.4424
      2741.0734
  -7253443.18047  -5642588.58643  22236988.9464   22236985.8644
      3819.7104
 -12888437.43449 -10020845.96945  20455184.6494   20455180.7554
      1113.8934
   4546555.08648   3540325.69544  21245732.8454   21245729.6734
     -1617.4904
   7203848.66446   5604111.41442  23256284.8064   23256282.3254
     -1878.2554
 -17249472.92649 -13420823.87546  20062592.9154   20062589.7164
      2206.2994
 04  9  3 16 19 44.9970000  0  6G 1G20G11G14G22G25
 -18033638.69149 -14038095.54345  20562246.7824   20562244.5994
      2736.0704
  -7310719.71948  -5687219.64143  22226089.5794   22226086.9894
      3818.4364
 -12905007.28949 -10033757.55145  20452031.4154   20452027.8454
      1104.6574
   4570853.95748   3559259.87144  21250356.6884   21250353.7314
     -1619.9254
   7232055.68847   5626090.84842  23261652.7594   23261649.6774
     -1880.4684
 -17282439.57449 -13446512.16046  20056319.8374   20056316.5914
      2197.7774
 04  9  3 16 19 59.9970000  0  6G 1G20G11G14G22G25
 -18074605.82849 -14070017.98045  20554450.9624   20554448.4784
      2731.1424
  -7367978.28948  -5731836.68743  22215193.8064   22215191.4624
      3817.2384
 -12921439.73449 -10046562.05945  20448904.6264   20448900.4464
      1095.4964
   4595188.02348   3578221.45744  21254987.7204   21254984.0324
     -1622.2714
   7260294.77046   5648095.28942  23267026.2284   23267023.7674
     -1882.6054
 -17315279.40649 -13472101.63746  20050070.7044   20050067.3294
      2189.3224
 04  9  3 16 20 14.9970000  0  6G 1G20G11G14G22G25
 -18115499.50449 -14101883.18045  20546669.2284   20546667.3414
      2726.2454
  -7425219.28948  -5776440.05143  22204301.5714   22204298.2314
      3816.0674
 -12937735.32049 -10059259.93045  20445803.7124   20445799.5364
      1086.3724
   4619556.51648   3597209.87544  21259624.5404   21259621.2824
     -1624.5664
   7288565.20346   5670124.14542  23272406.4464   23272403.9744
     -1884.6964
 -17347992.90649 -13497592.66446  20043845.0634   20043842.4464
      2180.9004
 04  9  3 16 20 29.9970000  0  6G 1G20G11G14G22G25
 -18156318.68449 -14133690.32045  20538901.6814   20538899.4704
      2721.2794
  -7482441.42248  -5821028.71943  22193412.3064   22193409.1304
      3814.8094
 -12953892.98449 -10071850.33245  20442728.9384   20442725.0754
      1077.1784
   4643960.30948   3616225.80544  21264268.3604   21264265.1104
     -1626.9204
   7316868.02346   5692178.25842  23277792.0404   23277789.3884
     -1886.8554
 -17380578.83649 -13522984.29346  20037644.5714   20037641.2284
      2172.3954
 04  9  3 16 20 44.9970000  0  6G 1G20G11G14G22G25
 -18197065.09849 -14165440.77745  20531147.8994   20531146.2554
      2716.4284
  -7539646.23848  -5865603.90243  22182526.4464   22182523.4744
      3813.6544
 -12969914.48449 -10084334.61345  20439680.0714   20439676.3294
      1068.1004
   4668397.47348   3635267.72344  21268918.4384   21268915.5094
     -1629.1444
   7345201.46146   5714256.19542  23283183.9154   23283181.9504
     -1888.8964
 -17413038.76249 -13548277.73046  20031467.5484   20031464.5284
      2163.9954
 04  9  3 16 20 59.9970000  0  6G 1G20G11G14G22G25
 -18237737.66849 -14197133.68745  20523408.1574   20523405.9894
      2711.5054
  -7596832.57448  -5910164.68443  22171644.4314   22171641.5604
      3812.4224
 -12985798.69949 -10096711.93745  20436657.5094   20436653.8724
      1058.9484
   4692868.89148   3654336.34844  21273575.4784   21273572.2164
     -1631.4284
   7373566.55946   5736358.81642  23288581.7674   23288578.9704
     -1891.0074
 -17445371.51649 -13573472.07846  20025314.7744   20025311.5754
      2155.5174
 04  9  3 16 21 14.9970000  0  6G 1G20G11G14G22G25
 -18278336.71949 -14228769.30946  20515682.6884   20515680.2984
      2706.6034
  -7654000.68048  -5954711.24643  22160765.4314   22160762.4384
      3811.2074
 -13001545.92249 -10108982.50845  20433660.6814   20433657.1034
      1049.8154
   4717374.16849   3673431.34444  21278238.4854   21278235.5834
     -1633.6854
   7401962.81346   5758485.72742  23293985.4784   23293982.9464
     -1893.0844
 -17477577.28549 -13598567.47746  20019186.2514   20019182.8454
      2147.0514
 04  9  3 16 21 29.9970000  0  6G 1G20G11G14G22G25
 -18318862.12149 -14260347.53946  20507970.6814   20507968.4544
      2701.6934
  -7711150.22348  -5999243.35243  22149890.6884   22149887.6574
      3809.9704
 -13017155.92649 -10121146.15245  20430689.9624   20430686.7044
      1040.6674
   4741913.16448   3692552.62544  21282908.2514   21282904.7784
     -1635.9334
   7430390.39846   5780637.06342  23299394.2514   23299392.3024
     -1895.1724
 -17509655.81649 -13623563.73446  20013081.9234   20013078.2904
      2138.5694
 04  9  3 16 21 44.9970000  0  6G 1G20G11G14G22G25
 -18359314.02749 -14291868.49646  20500272.8924   20500270.7674
      2696.7944
  -7768281.16048  -6043760.95343  22139018.4854   22139015.7204
      3808.7294
 -13032629.03949 -10133203.12945  20427745.9624   20427742.2474
      1031.5414
   4766485.47748   3711699.86344  21287584.5404   21287580.9624
     -1638.1544
   7458849.09046   5802812.60542  23304810.3454   23304808.0714
     -1897.2464
 -17541607.24649 -13648460.94946  20007001.7284   20006998.5054
      2130.0954
 04  9  3 16 21 59.9970000  0  5G 1G20G11G14G25
 -18399691.84049 -14323331.72745  20492589.0714   20492586.9114
      2691.8544
  -7825392.76648  -6088263.48843  22128151.0954   22128147.2714
      3807.4404
 -13047964.48849 -10145152.83645  20424827.9544   20424823.7164
      1022.3634
   4791091.64848   3730873.49644  21292266.6494   21292263.0524
     -1640.4114
 -17573430.88749 -13673258.57846  20000945.9314   20000942.8374
      2121.5764
 04  9  3 16 22 14.9970000  0  5G 1G20G11G14G25
 -18439995.48849 -14354737.16045  20484919.6184   20484916.9784
      2686.9104
  -7882484.80148  -6132750.78143  22117286.5244   22117283.0564
      3806.1364
 -13063162.39549 -10156995.36745  20421935.7434   20421932.0174
      1013.1944
   4815731.50048   3750073.35244  21296955.5244   21296951.9894
     -1642.6574
 -17605126.44949 -13697956.41046  19994914.3064   19994911.3104
      2113.0384
 04  9  3 16 22 29.9970000  0  5G 1G20G11G14G25
 -18480225.02049 -14386084.84045  20477264.2984   20477261.4464
      2681.9694
  -7939557.25048  -6177222.80943  22106426.0874   22106422.6344
      3804.8304
 -13078222.71549 -10168730.68745  20419069.5014   20419066.1034
      1004.0214
   4840404.71548   3769299.21544  21301650.9234   21301646.9424
     -1644.8814
 -17636693.97349 -13722554.47746  19988907.2514   19988904.1344
      2104.5024
 04  9  3 16 22 44.9970000  0  5G 1G20G11G14G25
 -18520378.68749 -14417373.40646  20469623.1734   20469620.7944
      2676.9114
  -7996608.11348  -6221678.02043  22095569.4074   22095565.8534
      3803.3914
 -13093143.60949 -10180357.36345  20416230.1814   20416226.6344
       994.7264
   4865112.97348   3788552.38744  21306352.7124   21306348.8064
     -1647.2174
 -17668131.55149 -13747051.28946  19982924.9154   19982922.0564
      2095.8394
 04  9  3 16 22 59.9970000  0  5G 1G20G11G14G25
 -18560457.06649 -14448603.30546  20461996.3294   20461994.2204
      2671.8924
  -8053637.87948  -6266116.78143  22084716.7984   22084714.1224
      3801.9844
 -13107925.75449 -10191875.93445  20413417.3534   20413413.5214
       985.4764
   4889855.44148   3807832.21544  21311060.6734   21311057.5404
     -1649.4984
 -17699439.78149 -13771447.30546  19976966.8134   19976963.8294
      2087.2154
 04  9  3 16 23 14.9970000  0  5G 1G20G11G14G25
 -18600460.52349 -14479774.82846  20454384.2744   20454381.6574
      2666.8974
  -8110646.65248  -6310539.18743  22073868.5564   22073865.7204
      3800.5854
 -13122569.50049 -10203286.64545  20410631.0634   20410626.9274
       976.2504
   4914631.62948   3827138.31344  21315775.9234   21315772.1144
     -1651.7464
 -17730618.86749 -13795742.69546  19971034.0094   19971031.0714
      2078.6064
 04  9  3 16 23 29.9970000  0  5G 1G20G11G14G25
 -18640389.23049 -14510888.09846  20446785.8454   20446784.0134
      2661.9144
  -8167634.50448  -6354945.30143  22063023.9854   22063020.9544
      3799.1904
 -13137074.85949 -10214589.52745  20407870.5244   20407866.7594
       967.0244
   4939441.18449   3846470.41844  21320497.0484   21320493.4744
     -1653.9704
 -17761668.80149 -13819937.44946  19965125.5874   19965122.5364
      2069.9964
 04  9  3 16 23 44.9970000  0  5G 1G20G11G14G25
 -18680243.34049 -14541943.24246  20439202.5014   20439199.7784
      2656.9414
  -8224601.44948  -6399335.12143  22052183.7984   22052180.3604
      3797.7964
 -13151442.08249 -10225784.77745  20405136.6964   20405132.7394
       957.8154
   4964283.68448   3865828.18044  21325224.0634   21325220.7864
     -1656.1674
 -17792589.68749 -13844031.64146  19959241.3294   19959238.4704
      2061.3924
 04  9  3 16 23 59.9970000  0  5G 1G20G11G14G25
 -18720021.66849 -14572939.33646  20431632.5484   20431630.0914
      2651.8894
  -8281546.16448  -6443707.61343  22041347.3064   22041343.9354
      3796.3144
 -13165670.03949 -10236871.50845  20402429.1884   20402425.2824
       948.5304
   4989160.11349   3885212.39844  21329958.1104   21329954.4234
     -1658.4294
 -17823380.25849 -13868024.28546  19953381.9314   19953378.5674
      2052.7054
 04  9  3 16 24 14.9970000  0  5G 1G20G11G14G25
 -18759725.15649 -14603877.10546  20424077.2204   20424074.5794
      2646.8994
  -8338469.52048  -6488063.46143  22030515.6654   22030512.1224
      3794.8904
 -13179759.72349 -10247850.49245  20399748.0794   20399744.2864
       939.3124
   5014069.46949   3904622.27044  21334697.9234   21334694.5524
     -1660.6244
 -17854041.37949 -13891916.06646  19947547.3214   19947544.1034
      2044.0754
 04  9  3 16 24 29.9970000  0  5G 1G20G11G14G25
 -18799354.22349 -14634756.89546  20416536.1034   20416533.8684
      2641.9384
  -8395371.53148  -6532402.68043  22019687.1494   22019684.2634
      3793.4674
 -13193711.55549 -10258722.05545  20397093.1884   20397089.2394
       930.1224
   5039011.08249   3924057.28144  21339444.5094   21339440.9894
     -1662.7744
 -17884573.36749 -13915707.21146  19941737.5324   19941733.9544
      2035.4664
 04  9  3 16 24 44.9970000  0  5G 1G20G11G14G25
 -18838909.44549 -14665579.14146  20409008.7204   20409006.8604
      2637.0154
  -8452252.79748  -6576725.73043  22008862.9384   22008859.7984
      3792.0844
 -13207526.07849 -10269486.63345  20394464.4464   20394460.3494
       920.9684
   5063984.14548   3943516.78544  21344196.3604   21344193.1734
     -1664.8714
 -17914976.64149 -13939398.07046  19935951.6494   19935948.3644
      2026.8854
 04  9  3 16 24 59.9970000  0  5G 1G20G11G14G25
 -18878390.22749 -14696343.37145  20401495.7674   20401493.6734
      2632.0524
  -8509112.47748  -6621031.96543  21998043.4074   21998040.0604
      3790.6454
 -13221202.63349 -10280143.68745  20391861.9314   20391857.9704
       911.7704
   5088989.17248   3963001.20744  21348954.5954   21348951.1694
     -1667.0024
 -17945250.43049 -13962988.02746  19930191.0324   19930187.5094
      2018.2534
 04  9  3 16 25 14.9970000  0  5G 1G20G11G14G25
 -18917797.82449 -14727050.58245  20393996.8214   20393994.5244
      2627.1734
  -8565951.59848  -6665322.17643  21987227.1574   21987223.7824
      3789.2754
 -13234742.52749 -10290694.27046  20389285.1884   20389281.4074
       902.6604
   5114024.74248   3982509.43044  21353718.9624   21353715.4704
     -1669.0384
 -17975395.92649 -13986478.02346  19924454.5324   19924451.6534
      2009.7004
 04  9  3 16 25 29.9970000  0  5G 1G20G11G14G25
 -18957131.01649 -14757699.81246  20386511.8454   20386509.3414
      2622.2134
  -8622768.86348  -6709595.37143  21976414.3924   21976411.8174
      3787.8184
 -13248144.44549 -10301137.32446  20386735.0484   20386730.9544
       893.4614
   5139091.94948   4002042.29344  21358489.2284   21358485.7864
     -1671.1474
 -18005411.89549 -14009867.09046  19918742.6884   19918739.7434
      2001.0654
 04  9  3 16 25 44.9970000  0  5G 1G20G11G14G25
 -18996390.34049 -14788291.48846  20379041.1344   20379038.8134
      2617.2884
  -8679564.59048  -6753851.77343  21965607.0094   21965603.5364
      3786.3824
 -13261408.84449 -10311473.23046  20384210.9234   20384206.3604
       884.2934
   5164189.99248   4021599.18844  21363265.0954   21363261.8564
     -1673.2034
 -18035298.75449 -14033155.55146  19913055.3764   19913052.5364
      1992.4574
 04  9  3 16 25 59.9970000  0  5G 1G20G11G14G25
 -19035574.65249 -14818824.71146  20371584.7984   20371582.5244
      2612.2884
  -8736337.47748  -6798090.36343  21954803.4784   21954800.1694
      3784.8594
 -13274534.83649 -10321701.28146  20381713.0244   20381709.0484
       875.0664
   5189319.86748   4041180.89144  21368047.2044   21368044.1264
     -1675.3254
 -18065055.29349 -14056342.46146  19907392.7984   19907389.9704
      1983.7694
 04  9  3 16 26 14.9970000  0  5G 1G20G11G14G25
 -19074684.30149 -14849299.73845  20364141.8604   20364139.8334
      2607.3104
  -8793087.73448  -6842311.34443  21944004.1574   21944001.2474
      3783.3514
 -13287522.75049 -10331821.74246  20379241.6034   20379237.6384
       865.8614
   5214481.09848   4060787.02744  21372835.2284   21372831.6064
     -1677.4154
 -18094681.60249 -14079427.89546  19901755.2124   19901752.7004
      1975.0874
 04  9  3 16 26 29.9970000  0  5G 1G20G11G14G25
 -19113719.46549 -14879716.73445  20356714.2124   20356711.5834
      2602.3444
  -8849815.34847  -6886514.66443  21933209.5794   21933206.0174
      3781.8414
 -13300372.74249 -10341834.73046  20376796.4704   20376792.3334
       856.6664
   5239673.20748   4080417.22344  21377629.5324   21377625.8644
     -1679.4744
 -18124177.92249 -14102412.03546  19896142.5094   19896139.2944
      1966.4214
 04  9  3 16 26 44.9970000  0  5G 1G20G11G14G25
 -19152680.27749 -14910075.80946  20349299.9704   20349297.7824
      2597.3874
  -8906520.27347  -6930700.32043  21922418.8134   21922415.8804
      3780.3284
 -13313085.07449 -10351740.44946  20374377.2044   20374373.2554
       847.4894
   5264895.82449   4100071.19544  21382429.0954   21382425.4424
     -1681.5084
 -18153544.29749 -14125294.91846  19890554.1424   19890550.6494
      1957.7584
 04  9  3 16 26 59.9970000  0  5G 1G20G11G14G25
 -19191567.44949 -14940377.49245  20341900.2674   20341897.8454
      2592.4784
  -8963203.07047  -6974868.73043  21911632.4784   21911629.1384
      3778.8534
 -13325660.22349 -10361539.27346  20371984.2124   20371980.6384
       838.3434
   5290148.29749   4119748.43044  21387234.4934   21387231.1924
     -1683.4984
 -18182781.33649 -14148077.02746  19884990.5174   19884987.3254
      1949.1364
 04  9  3 16 27 14.9970000  0  5G 1G20G11G14G25
 -19230379.69149 -14970620.79345  20334514.2124   20334511.8454
      2587.4834
  -9019862.30547  -7019018.78143  21900850.6574   21900847.4034
      3777.2824
 -13338097.03149 -10371230.30146  20369617.8064   20369613.5634
       829.1214
   5315431.62548   4139449.70744  21392045.1814   21392042.3454
     -1685.5554
 -18211887.69149 -14170757.29746  19879451.4784   19879448.3454
      1940.4244
 04  9  3 16 27 29.9970000  0  5G 1G20G11G14G25
 -19269117.81249 -15000806.33246  20327142.7824   20327140.4504
      2582.5414
  -9076498.63347  -7063150.97343  21890073.0404   21890070.3724
      3775.7554
 -13350396.32049 -10380814.16846  20367277.1884   20367273.3684
       819.9534
   5340744.93449   4159174.35244  21396862.4074   21396859.2864
     -1687.5544
 -18240864.04349 -14193336.26246  19873937.4624   19873934.3924
      1931.7574
 04  9  3 16 27 44.9970000  0  5G 1G20G11G14G25
 -19307782.57049 -15030934.70746  20319785.0094   20319782.9034
      2577.6514
  -9133112.65647  -7107265.79743  21879299.8534   21879297.1034
      3774.2684
 -13362558.95349 -10390291.55146  20364962.4544   20364958.8964
       810.8424
   5366087.09448   4178921.46144  21401685.2674   21401681.7434
     -1689.4774
 -18269710.94549 -14215814.35946  19868448.0874   19868444.7434
      1923.1274
 04  9  3 16 27 59.9970000  0  5G 1G20G11G14G25
 -19346373.97749 -15061005.93046  20312441.3064   20312438.9234
      2572.7604
  -9189704.24248  -7151363.12543  21868530.7204   21868527.7984
      3772.7724
 -13374584.81649 -10399662.36346  20362674.1654   20362670.2674
       801.7244
   5391457.94548   4198690.94144  21406512.7354   21406509.8604
     -1691.3904
 -18298428.46549 -14238191.64546  19862983.0874   19862980.1104
      1914.5014
 04  9  3 16 28 14.9970000  0  5G 1G20G11G14G25
 -19384892.07449 -15091020.02346  20305111.6344   20305109.0404
      2567.8734
  -9246273.14148  -7195442.77343  21857766.2824   21857762.9314
      3771.2604
 -13386474.04349 -10408926.70346  20360411.7354   20360408.2634
       792.6154
   5416857.31348   4218482.63344  21411346.6424   21411343.1344
     -1693.2914
 -18327016.56249 -14260468.08646  19857543.1654   19857540.0524
      1905.8734
 04  9  3 16 28 29.9970000  0  6G 1G20G11G14G23G25
 -19423336.59049 -15120976.78946  20297795.6884   20297793.4704
      2562.9684
  -9302818.98848  -7239504.48043  21847005.7744   21847002.5214
      3769.7234
 -13398226.39549 -10418084.38346  20358175.6964   20358172.0994
       783.4904
   5442285.36748   4238296.68444  21416185.0174   21416181.7824
     -1695.2044
   -167217.37956   -120657.86352  23167360.6964   23167355.4424

 -18355474.87549 -14282643.39846  19852127.8604   19852124.3604
      1897.2214
 04  9  3 16 28 44.9970000  0  6G 1G20G11G14G23G25
 -19461708.65249 -15150877.08645  20290493.9234   20290491.4624
      2558.1374
  -9359342.75048  -7283548.95744  21836249.5634   21836247.0834
      3768.2514
 -13409843.03549 -10427136.32046  20355965.0094   20355961.3994
       774.4434
   5467740.79748   4258132.07444  21421029.2744   21421025.9274
     -1697.0294
   -225975.38346   -166443.31242  23156179.4624   23156174.7314
      3917.2004
 -18383804.44949 -14304718.39146  19846736.6884   19846733.5484
      1888.6384
 04  9  3 16 28 59.9970000  0  6G 1G20G11G14G23G25
 -19500007.91049 -15180720.66846  20283205.9464   20283203.6614
      2553.2844
  -9415843.76648  -7327575.72343  21825497.7674   21825495.2084
      3766.7344
 -13421323.60249 -10436082.22746  20353780.2904   20353776.9274
       765.3714
   5493223.74248   4277988.90244  21425878.4784   21425875.3994
     -1698.8634
   -284703.32046   -212205.30142  23145004.3454   23145000.0014
      3915.1964
 -18412004.87149 -14326692.74646  19841370.2744   19841367.5794
      1880.0284
 04  9  3 16 29 14.9970000  0  6G 1G20G11G14G23G25
 -19538234.67649 -15210507.75446  20275931.5794   20275929.3134
      2548.4514
  -9472322.23848  -7371584.91843  21814750.5404   21814747.2394
      3765.2324
 -13432668.47749 -10444922.39846  20351621.2744   20351617.3924
       756.3254
   5518733.77348   4297866.81644  21430732.9544   21430730.1964
     -1700.6694
   -343401.34446   -257943.99642  23133833.8294   23133829.8644
      3913.2024
 -18440076.37149 -14348566.63746  19836028.7124   19836025.8764
      1871.4334
 04  9  3 16 29 29.9970000  0  6G 1G20G11G14G23G25
 -19576388.62949 -15240238.10246  20268671.3214   20268668.7204
      2543.5974
  -9528777.64548  -7415576.14843  21804007.1424   21804003.8724
      3763.6944
 -13443877.24649 -10453656.51646  20349488.5324   20349484.5134
       747.2514
   5544271.05548   4317765.97744  21435592.6104   21435589.4854
     -1702.4854
   -402069.05947   -303659.10542  23122669.7824   23122665.5634
      3911.1814
 -18468018.55949 -14370339.77746  19830711.6734   19830708.6104
      1862.8134
 04  9  3 16 29 44.9970000  0  6G 1G20G11G14G23G25
 -19614469.32449 -15269911.37146  20261424.5564   20261422.7434
      2538.7134
  -9585209.45347  -7459548.97343  21793268.1264   21793264.7354
      3762.1214
 -13454949.56249 -10462284.30146  20347381.5484   20347377.4934
       738.1544
   5569835.90249   4337686.61744  21440457.1814   21440453.8214
     -1704.3234
   -460705.97747   -349350.18442  23111511.8134   23111507.1304
      3909.1284
 -18495830.89549 -14392011.72747  19825418.7124   19825416.0834
      1854.1564
 04  9  3 16 29 59.9970000  0  6G 1G20G11G14G23G25
 -19652476.05949 -15299526.99646  20254192.1184   20254189.9114
      2533.7824
  -9641616.66847  -7503502.64843  21782534.8134   21782531.3494
      3760.4814
 -13465884.73449 -10470805.22346  20345300.4154   20345296.7784
       729.0114
   5595428.94148   4357629.23044  21445327.1734   21445324.1494
     -1706.2034
   -519311.32847   -395016.67642  23100359.1264   23100355.7594
      3907.0234
 -18523512.47349 -14413581.78546  19820151.3924   19820148.3374
      1845.4394
 04  9  3 16 30 14.9970000  0  6G 1G20G11G14G23G25
 -19690409.19149 -15329085.26646  20246973.8214   20246971.6034
      2528.8764
  -9697999.45347  -7547437.28143  21771805.6654   21771801.9584
      3758.8524
 -13476683.08249 -10479219.53546  20343245.5794   20343241.4194
       719.8904
   5621049.41049   4377593.20744  21450202.4384   21450199.4504
     -1708.0314
   -577885.36346   -440658.76242  23089212.5324   23089209.2004
      3904.9364
 -18551063.74249 -14435050.30946  19814908.1964   19814905.1224
      1836.7514
 04  9  3 16 30 29.9970000  0  6G 1G20G11G14G23G25
 -19728268.37549 -15358585.92246  20239769.3604   20239766.8844
      2523.9464
  -9754357.43447  -7591352.58243  21761080.6344   21761077.6734
      3757.1994
 -13487344.38349 -10487527.04346  20341216.6344   20341213.0484
       710.7534
   5646697.57049   4397578.77044  21455083.8294   21455080.2164
     -1709.8774
   -636427.52047   -486276.00442  23078072.2284   23078068.9624
      3902.8104
 -18578484.23849 -14456416.93446  19809690.3134   19809687.0484
      1828.0334
 04  9  3 16 30 44.9970000  0  6G 1G20G11G14G23G25
 -19766054.36349 -15388029.54746  20232578.6344   20232576.5444
      2519.0664
  -9810691.09847  -7635248.93043  21750360.8374   21750357.2474
      3755.5784
 -13497869.44549 -10495728.40246  20339213.9544   20339210.5834
       701.6714
   5672372.55148   4417585.23044  21459969.5404   21459966.1224
     -1711.6654
   -694938.67247   -531869.09842  23066937.9784   23066934.5014
      3900.7434
 -18605774.61749 -14477682.16446  19804497.3684   19804493.9194
      1819.3594
 04  9  3 16 30 59.9970000  0  6G 1G20G11G14G23G25
 -19803766.36749 -15417415.52046  20225402.7594   20225399.9074
      2514.1344
  -9866999.46947  -7679125.57843  21739645.1494   21739642.2044
      3753.8914
 -13508257.73049 -10503823.18046  20337237.1104   20337233.7164
       692.5524
   5698075.05549   4437613.13744  21464860.2594   21464857.1924
     -1713.5004
   -753417.83247   -577437.28142  23055810.5874   23055806.0324
      3898.6114
 -18632933.98849 -14498845.30946  19799329.2124   19799325.8924
      1810.6254
 04  9  3 16 31 14.9970000  0  6G 1G20G11G14G23G25
 -19841405.37149 -15446744.60546  20218239.9384   20218237.4854
      2509.2674
  -9923283.30947  -7722983.10943  21728934.9234   21728932.0714
      3752.2564
 -13518509.73449 -10511811.76646  20335286.4854   20335282.5674
       683.4674
   5723803.85948   4457661.53944  21469756.4854   21469752.8454
     -1715.2544
   -811865.96147   -622981.25042  23044688.3064   23044683.7554
      3896.5424
 -18659963.18049 -14519907.01246  19794185.5484   19794182.3764
      1801.9464
 04  9  3 16 31 29.9970000  0  6G 1G20G11G14G23G25
 -19878970.58649 -15476016.19546  20211091.7044   20211088.9704
      2504.3484
  -9979541.57047  -7766820.71143  21718229.1494   21718226.2394
      3750.5514
 -13528624.76249 -10519693.61346  20333361.5404   20333358.1534
       674.3354
   5749559.60948   4477730.93044  21474657.2124   21474654.5564
     -1717.0504
   -870282.09847   -668500.28142  23033572.1964   23033567.7744
      3894.4094
 -18686861.43449 -14540866.68746  19789066.9854   19789063.8134
      1793.2174
 04  9  3 16 31 44.9970000  0  6G 1G20G11G14G23G25
 -19916462.01649 -15505230.28546  20203957.2124   20203954.7354
      2499.4294
 -10035774.29347  -7810638.41443  21707528.8374   21707526.1144
      3748.8484
 -13538603.27049 -10527469.08246  20331462.6424   20331459.0244
       665.2344
   5775342.13348   4497821.19144  21479563.4854   21479560.2244
     -1718.8354
   -928666.32047   -713994.46142  23022461.9464   23022457.4354
      3892.2824
 -18713628.69949 -14561724.30546  19783973.2674   19783970.5214
      1784.4844
 04  9  3 16 31 59.9970000  0  6G 1G20G11G14G23G25
 -19953879.60249 -15534386.84846  20196836.9074   20196834.5094
      2494.5064
 -10091981.07048  -7854435.89143  21696832.6884   21696830.2714
      3747.1184
 -13548444.99249 -10535137.96546  20329589.9464   20329586.6034
       656.1154
   5801151.30548   4517932.21544  21484475.0634   21484471.7474
     -1720.6114
   -987018.58647   -759463.71542  23011357.6264   23011352.5524
      3890.1514
 -18740264.83249 -14582479.73046  19778904.4934   19778901.8564
      1775.7424
 04  9  3 16 32 14.9970000  0  6G 1G20G11G14G23G25
 -19991223.24249 -15563485.78946  20189730.5714   20189728.3534
      2489.5764
 -10148161.73447  -7898213.01643  21686142.1574   21686139.1304
      3745.3784
 -13558149.88749 -10542700.22746  20327742.8534   20327739.6064
       646.9934
   5826987.10948   4538063.98444  21489391.7514   21489388.5404
     -1722.3874
  -1045338.47347   -804907.75442  23000259.7204   23000255.2314
      3887.9924
 -18766769.61349 -14603132.81247  19773860.7984   19773858.2124
      1766.9854
 04  9  3 16 32 29.9970000  0  6G 1G20G11G14G23G25
 -20028493.40249 -15592527.46546  20182638.5244   20182636.2984
      2484.6774
 -10204316.47748  -7941969.96943  21675455.9154   21675453.3414
      3743.6494
 -13567718.46549 -10550156.26645  20325922.2824   20325918.5914
       637.9054
   5852848.84848   4558215.98044  21494312.8064   21494309.7124
     -1724.1164
  -1103626.47347   -850326.94142  22989167.4704   22989164.0174
      3885.8674
 -18793143.55149 -14623683.93047  19768842.2984   19768839.5674
      1758.2634
 04  9  3 16 32 44.9970000  0  6G 1G20G11G14G23G25
 -20065689.23849 -15621511.22746  20175559.8994   20175558.1534
      2479.7224
 -10260444.27748  -7985705.90643  21664775.0014   21664772.3844
      3741.8534
 -13577149.89549 -10557505.44146  20324127.4704   20324123.5994
       628.7624
   5878737.29348   4578388.77744  21499239.5014   21499236.6064
     -1725.8964
  -1161881.55547   -895720.49242  22978082.1964   22978077.8534
      3883.6724
 -18819385.55549 -14644132.24647  19763848.5244   19763845.6694
      1749.4674
 04  9  3 16 32 59.9970000  0  6G 1G20G11G14G23G25
 -20102811.72349 -15650437.82846  20168495.8764   20168493.3024
      2474.8324
 -10316545.80147  -8029421.37143  21654099.6264   21654096.5634
      3740.1024
 -13586445.05949 -10564748.43445  20322358.4464   20322354.8684
       619.6784
   5904651.45749   4598581.61744  21504171.0484   21504167.8804
     -1727.6114
  -1220104.54347   -941089.02042  22967002.4154   22966998.9544
      3881.5334
 -18845496.64849 -14664478.55546  19758879.8844   19758876.7714
      1740.7404
 04  9  3 16 33 14.9970000  0  6G 1G20G11G14G23G25
 -20139859.95349 -15679306.57446  20161445.8374   20161443.0054
      2469.8824
 -10372620.05548  -8073115.57443  21643429.0324   21643426.1884
      3738.2844
 -13595603.30549 -10571884.73845  20320615.6964   20320612.0834
       610.5504
   5930591.95748   4618794.96544  21509107.1814   21509104.2744
     -1729.3674
  -1278294.59447   -986431.89142  22955928.7434   22955925.7554
      3879.3374
 -18871475.79349 -14684722.04346  19753936.2284   19753933.2474
      1731.9434
 04  9  3 16 33 29.9970000  0  6G 1G20G11G14G23G25
 -20176835.11749 -15708118.39546  20154409.3764   20154407.0634
      2465.0114
 -10428668.07048  -8116789.34444  21632763.7594   21632760.7004
      3736.5344
 -13604625.84449 -10578915.29745  20318898.7594   20318895.1774
       601.5034
   5956557.45748   4639027.80544  21514048.1264   21514045.0564
     -1731.0334
  -1336452.75047  -1031749.93442  22944861.9934   22944858.3604
      3877.2104
 -18897324.21549 -14704863.66446  19749017.2984   19749014.3254
      1723.2284
 04  9  3 16 33 44.9970000  0  6G 1G20G11G14G23G25
 -20213737.10249 -15736873.17646  20147387.3454   20147384.9584
      2460.1324
 -10484689.50048  -8160442.41844  21622103.2904   21622099.8254
      3734.7624
 -13613512.48449 -10585839.96945  20317207.6734   20317204.0014
       592.4434
   5982547.85248   4659280.04344  21518993.8374   21518990.9504
     -1732.6934
  -1394578.83647  -1077042.96142  22933800.3844   22933797.6574
      3875.0724
 -18923041.75849 -14724903.31246  19744123.4464   19744120.1774
      1714.5034
 04  9  3 16 33 59.9970000  0  6G 1G20G11G14G23G25
 -20250565.01249 -15765570.23846  20140379.2044   20140376.7904
      2455.1944
 -10540683.30148  -8204073.93743  21611447.3684   21611444.6424
      3732.9204
 -13622262.44149 -10592658.12545  20315542.6814   20315538.8134
       583.3304
   6008563.97749   4679552.32844  21523944.4234   21523941.9854
     -1734.4084
  -1452671.82447  -1122310.20342  22922746.0244   22922742.2084
      3872.8664
 -18948627.40649 -14744840.17646  19739254.5404   19739251.4504
      1705.7104
 04  9  3 16 34 14.9970000  0  6G 1G20G11G14G23G25
 -20287318.40649 -15794209.24645  20133385.2744   20133382.9384
      2450.2264
 -10596648.78548  -8247683.39143  21600797.6574   21600794.6224
      3731.0324
 -13630875.20749 -10599369.39145  20313903.7044   20313899.9194
       574.1844
   6034606.14848   4699844.90644  21528900.4624   21528897.6814
     -1736.1454
  -1510731.28547  -1167551.34042  22911697.9854   22911694.0284
      3870.6314
 -18974080.67649 -14764673.89146  19734410.9464   19734407.6654
      1696.8854
 04  9  3 16 34 29.9970000  0  6G 1G20G11G14G23G25
 -20323998.57049 -15822791.18446  20126405.1574   20126402.8024
      2445.3444
 -10652587.05147  -8291271.64143  21590153.2434   21590150.0134
      3729.2184
 -13639352.18749 -10605974.83645  20312290.8374   20312286.9274
       565.1324
   6060672.82448   4720156.57844  21533861.1734   21533858.0794
     -1737.7784
  -1568758.46947  -1212767.30142  22900655.6654   22900651.5794
      3868.4794
 -18999402.83649 -14784405.44147  19729592.6184   19729589.0874
      1688.1444
 04  9  3 16 34 44.9970000  0  6G 1G20G11G14G23G25
 -20360604.56649 -15851315.33246  20119439.4624   20119436.9704
      2440.4004
 -10708496.94548  -8334837.78543  21579513.8684   21579510.4854
      3727.3264
 -13647692.55949 -10612473.83245  20310703.3064   20310699.8764
       556.0254
   6086764.81649   4740487.98044  21538826.0174   21538823.0404
     -1739.4664
  -1626752.28147  -1257957.24243  22889619.8454   22889615.6854
      3866.2544
 -19024592.81649 -14804034.00046  19724799.0014   19724795.8254
      1679.3324
 04  9  3 16 34 59.9970000  0  6G 1G20G11G14G23G25
 -20397137.04349 -15879782.18746  20112487.6424   20112484.7394
      2435.4984
 -10764378.99248  -8378382.22343  21568879.6814   21568876.5634
      3725.4704
 -13655896.92649 -10618866.85945  20309142.4314   20309138.7864
       546.9584
   6112881.34049   4760838.49644  21543795.4624   21543792.6614
     -1741.1024
  -1684713.27347  -1303121.63342  22878590.1104   22878585.6574
      3864.0664
 -19049651.12949 -14823559.95347  19720030.6264   19720027.5054
      1670.5544
 04  9  3 16 35 14.9970000  0  6G 1G20G11G14G23G25
 -20433596.72349 -15908192.32846  20105549.5484   20105547.2984
      2430.6454
 -10820233.57848  -8421905.28144  21558250.8764   21558247.6534
      3723.6394
 -13663966.11349 -10625154.55145  20307607.0404   20307603.2634
       537.9464
   6139021.68048   4781207.58244  21548770.1574   21548767.3294
     -1742.6894
  -1742642.02748  -1348260.89543  22867566.9624   22867562.1614
      3861.9174
 -19074578.49249 -14842983.87546  19715286.5404   19715284.0324
      1661.8244
 04  9  3 16 35 29.9970000  0  6G 1G20G11G14G23G25
 -20469982.63349 -15936544.98046  20098626.0564   20098623.3684
      2425.7274
 -10876059.66848  -8465406.11344  21547627.7354   21547624.6224
      3721.7394
 -13671899.25049 -10631336.22345  20306097.0094   20306093.5524
       528.8764
   6165186.51648   4801595.73844  21553749.2594   21553746.3024
     -1744.3224
  -1800537.56647  -1393374.27742  22856550.0014   22856545.3294
      3859.7034
 -19099373.94549 -14862305.00846  19710568.5954   19710565.6924
      1653.0304
 04  9  3 16 35 44.9960000  0  6G 1G20G11G14G23G25
 -20506292.61349 -15964838.46146  20091716.0824   20091713.6644
      2420.6654
 -10931853.48848  -8508881.80944  21537010.9734   21537007.2774
      3719.5884
 -13679695.99649 -10637411.61745  20304613.3324   20304609.6724
       519.7834
   6191373.77048   4822001.37544  21558732.1844   21558729.7314
     -1745.8174
  -1858396.27747  -1438458.97743  22845539.8244   22845535.2464
      3857.2474
 -19124035.94949 -14881522.16046  19705875.6524   19705872.7384
      1644.1344
 04  9  3 16 35 59.9960000  0  6G 1G20G11G14G23G25
 -20542529.89549 -15993075.29746  20084820.6524   20084817.7704
      2415.8194
 -10987620.81648  -8552336.87144  21526398.3404   21526394.8674
      3717.8224
 -13687355.92249 -10643380.39845  20303155.7154   20303152.3834
       510.6624
   6217588.34048   4842428.28944  21563720.7384   21563718.0314
     -1747.6384
  -1916224.09847  -1483519.57043  22834534.8954   22834531.1134
      3855.1884
 -19148566.07449 -14900636.53946  19701207.6684   19701204.6094
      1635.3424
 04  9  3 16 36 14.9960000  0  6G 1G20G11G14G23G25
 -20578693.42649 -16021254.66846  20077939.0124   20077936.2424
      2410.9024
 -11043359.05948  -8595769.25844  21515791.7774   21515788.6024
      3715.8834
 -13694879.93049 -10649243.27345  20301724.3634   20301720.5554
       501.6014
   6243827.00848   4862873.97744  21568714.1844   21568710.8484
     -1749.2454
  -1974018.37147  -1528554.06643  22823537.3634   22823533.2544
      3852.9524
 -19172964.10549 -14919647.99647  19696564.5984   19696561.9884
      1626.5354
 04  9  3 16 36 29.9960000  0  6G 1G20G11G14G23G25
 -20614782.72749 -16049376.19946  20071071.0984   20071068.9774
      2405.9534
 -11099067.49248  -8639178.41444  21505190.6064   21505187.7034
      3713.8964
 -13702267.65649 -10654999.95345  20300318.4184   20300314.6134
       492.5154
   6270090.09848   4883338.69944  21573711.6374   21573708.3634
     -1750.8734
  -2031778.58648  -1573562.02343  22812545.6524   22812541.8134
      3850.6814
 -19197229.48049 -14938556.07847  19691947.3094   19691944.1804
      1617.6924
 04  9  3 16 36 44.9960000  0  6G 1G20G11G14G23G25
 -20650799.10949 -16077440.90246  20064217.6994   20064215.0664
      2401.0924
 -11154747.16448  -8682565.16844  21494595.2314   21494592.0004
      3711.9784
 -13709520.26649 -10660651.35945  20298938.1064   20298934.6334
       483.5074
   6296376.20748   4903821.35944  21578714.0984   21578711.0084
     -1752.4074
  -2089505.97347  -1618544.38742  22801560.8094   22801556.5514
      3848.4924
 -19221363.44949 -14957361.77346  19687354.6844   19687351.4654
      1608.9314
 04  9  3 16 36 59.9960000  0  6G 1G20G11G14G23G25
 -20686742.19149 -16105448.48446  20057377.6994   20057375.0704
      2396.2054
 -11210397.43448  -8725928.99644  21484005.3874   21484001.8244
      3710.0184
 -13716637.55949 -10666197.31245  20297584.1294   20297580.2934
       474.4864
   6322685.57448   4924322.14544  21583720.2314   21583717.3914
     -1753.9584
  -2147200.11747  -1663500.83243  22790581.9964   22790577.6844
      3846.2764
 -19245365.55549 -14976064.71546  19682786.9264   19682783.9064
      1600.1404
 04  9  3 16 37 14.9960000  0  6G 1G20G11G14G23G25
 -20722610.78949 -16133398.04346  20050552.3564   20050549.7034
      2391.2404
 -11266016.97348  -8769268.89843  21473421.4814   21473418.0824
      3707.9694
 -13723618.40249 -10671636.94145  20296255.4654   20296251.6064
       465.3904
   6349019.20748   4944841.84444  21588731.5434   21588728.6804
     -1755.5764
  -2204859.66848  -1708430.33643  22779610.0824   22779606.0004
      3843.9704
 -19269234.55949 -14994663.94146  19678245.0124   19678241.7314
      1591.2674
 04  9  3 16 37 29.9960000  0  6G 1G20G11G14G23G25
 -20758405.30149 -16161289.86346  20043740.9264   20043738.4924
      2386.3014
 -11321606.07848  -8812585.07044  21462843.1764   21462839.3674
      3705.9404
 -13730463.25049 -10676970.59445  20294953.0904   20294949.2974
       456.3234
   6375376.50848   4965379.98044  21593747.0594   21593744.4224
     -1757.1534
  -2262484.94148  -1753333.14843  22768644.3094   22768638.8914
      3841.6854
 -19292970.95749 -15013159.83246  19673728.4344   19673725.1414
      1582.4274
 04  9  3 16 37 44.9960000  0  6G 1G20G11G14G23G25
 -20794126.45349 -16189124.52346  20036943.0594   20036940.6374
      2381.4104
 -11377165.29348  -8855877.95344  21452270.7704   21452267.0124
      3703.9484
 -13737172.95749 -10682198.95345  20293676.0664   20293672.2034
       447.3144
   6401756.69148   4985935.94544  21598767.1064   21598764.2154
     -1758.6794
  -2320076.68047  -1798209.82042  22757684.3954   22757679.8754
      3839.4494
 -19316575.41849 -15031552.91446  19669236.3244   19669233.4844
      1573.6314
 04  9  3 16 37 59.9960000  0  6G 1G20G11G14G23G25
 -20829773.24649 -16216901.23446  20030159.6764   20030157.2704
      2376.4534
 -11432693.32448  -8899146.54344  21441704.1764   21441700.6604
      3701.8694
 -13743746.55949 -10687321.24645  20292425.1604   20292421.3754
       438.2404
   6428160.59048   5006510.39844  21603791.2544   21603788.9454
     -1760.2604
  -2377633.78947  -1843059.50442  22746731.4814   22746727.0634
      3837.1414
 -19340046.87549 -15049842.36347  19664770.0124   19664766.9104
      1564.7644
 04  9  3 16 38 14.9960000  0  6G 1G20G11G14G23G25
 -20865346.76649 -16244620.85946  20023390.3634   20023387.9694
      2371.5684
 -11488191.17648  -8942391.60944  21431143.0594   21431139.5234
      3699.8574
 -13750185.09849 -10692338.30145  20291199.8014   20291196.0864
       429.2364
   6454587.00448   5027102.38744  21608820.3244   21608817.7114
     -1761.7614
  -2435157.32848  -1887883.02042  22735785.4654   22735781.3164
      3834.9034
 -19363386.33649 -15068028.95347  19660328.4884   19660325.6644
      1555.9644
 04  9  3 16 38 29.9960000  0  6G 1G20G11G14G23G25
 -20900846.64149 -16272283.09046  20016634.9574   20016632.4574
      2366.6584
 -11543658.08248  -8985612.56244  21420588.0204   21420584.6524
      3697.7944
 -13756488.11349 -10697249.75045  20290000.7464   20289996.8674
       420.2014
   6481036.26248   5047712.18844  21613853.4964   21613850.5234
     -1763.2844
  -2492646.60947  -1932679.85542  22724845.2934   22724841.6484
      3832.6194
 -19386593.22749 -15086112.25447  19655912.2544   19655909.5554
      1547.1264
 04  9  3 16 38 44.9960000  0  6G 1G20G11G14G23G25
 -20936271.97349 -16299887.24646  20009893.5514   20009891.4144
      2361.6894
 -11599092.93748  -9028808.54744  21410039.3954   21410035.2624
      3695.6574
 -13762654.98849 -10702055.11746  20288827.2234   20288823.8404
       411.1254
   6507508.99648   5068340.25444  21618891.3164   21618888.3714
     -1764.8494
  -2550100.70347  -1977449.25442  22713912.2464   22713908.2584
      3830.2734
 -19409666.77349 -15104091.64847  19651521.4654   19651518.7854
      1538.2364
 04  9  3 16 38 59.9960000  0  6G 1G20G11G14G23G25
 -20971624.01649 -16327434.28546  20003166.1994   20003164.0904
      2356.8034
 -11654496.83648  -9071980.41444  21399496.0664   21399492.6374
      3693.5934
 -13768687.02349 -10706755.42246  20287679.4024   20287675.7704
       402.1364
   6534003.85248   5088985.59044  21623933.3324   21623929.8564
     -1766.3244
  -2607520.91447  -2022192.25442  22702985.6764   22702981.4264
      3828.0144
 -19432608.18749 -15121968.07447  19647155.9734   19647153.3324
      1529.4284
 04  9  3 16 39 14.9960000  0  6G 1G20G11G14G23G25
 -21006902.43748 -16354923.96146  19996453.0204   19996450.8364
      2351.8954
 -11709869.24248  -9115127.72744  21388959.3714   21388955.9454
      3691.4944
 -13774584.00849 -10711350.49246  20286557.4264   20286553.6484
       393.1324
   6560521.09848   5109648.35544  21628979.3404   21628976.0594
     -1767.8164
  -2664906.82447  -2066908.53542  22692064.8244   22692060.8954
      3825.7274
 -19455417.05549 -15139741.21547  19642815.8954   19642813.2974
      1520.5914
 04  9  3 16 39 29.9960000  0  6G 1G20G11G14G23G25
 -21042106.77348 -16382355.91046  19989754.1764   19989751.8164
      2346.9564
 -11765209.54348  -9158250.02744  21378427.9964   21378424.7504
      3689.3534
 -13780345.37148 -10715839.86345  20285460.8324   20285457.0944
       384.0914
   6587061.14548   5130328.89544  21634029.9104   21634026.5084
     -1769.3364
  -2722257.71147  -2111597.52742  22681151.7384   22681147.3794
      3823.3924
 -19478092.82449 -15157410.65246  19638500.7934   19638497.9454
      1511.7184
 04  9  3 16 39 44.9960000  0  6G 1G20G11G14G23G25
 -21077237.95749 -16409730.85546  19983068.6134   19983066.4654
      2342.0794
 -11820518.37948  -9201347.81644  21367902.8954   21367899.6254
      3687.2564
 -13785972.22349 -10720224.44546  20284390.1604   20284386.3794
       375.1234
   6613622.85948   5151026.30944  21639083.9654   21639081.2624
     -1770.7814
  -2779574.47347  -2156259.93042  22670244.3874   22670240.1214
      3821.1174
 -19500636.45749 -15174977.12146  19634210.8954   19634207.9104
      1502.9094
 04  9  3 16 39 59.9960000  0  6G 1G20G11G14G23G25
 -21112295.27049 -16437048.23446  19976397.3564   19976394.9614
      2337.1544
 -11875794.78948  -9244420.33244  21357384.2464   21357381.0904
      3685.0944
 -13791463.84449 -10724503.63745  20283344.9884   20283341.3484
       366.1084
   6640206.85248   5171741.08644  21644143.0274   21644139.8204
     -1772.2664
  -2836856.32047  -2200895.09842  22659344.0204   22659338.7154
      3818.7904
 -19523047.17649 -15192440.01647  19629946.2234   19629943.3094
      1494.0484
 04  9  3 16 40 14.9960000  0  6G 1G20G11G14G23G25
 -21147277.53948 -16464307.13746  19969740.5514   19969737.9964
      2332.1514
 -11931037.39549  -9287466.52344  21346872.2464   21346868.9454
      3682.8404
 -13796819.29349 -10728676.71946  20282326.3324   20282322.6804
       357.0304
   6666813.96548   5192473.88344  21649205.8874   21649202.9264
     -1773.8084
  -2894101.97747  -2245502.09842  22648450.9654   22648445.8244
      3816.3774
 -19545323.71549 -15209798.35946  19625707.0044   19625704.0904
      1485.1034
 04  9  3 16 40 29.9960000  0  6G 1G20G11G14G23G25
 -21182185.68049 -16491508.28146  19963097.6604   19963095.3324
      2327.2094
 -11986246.96549  -9330486.96144  21336366.0824   21336362.9414
      3680.6384
 -13802039.44149 -10732744.38345  20281332.7624   20281329.3914
       348.0104
   6693443.20348   5213223.93044  21654273.2544   21654269.9924
     -1775.2834
  -2951312.31247  -2290081.56242  22637564.2074   22637559.2034
      3814.0224
 -19567466.96149 -15227052.83646  19621493.2464   19621490.5004
      1476.2164
 04  9  3 16 40 44.9960000  0  6G 1G20G11G14G23G25
 -21217019.73449 -16518651.69946  19956469.1604   19956466.5664
      2322.2704
 -12041423.22748  -9373481.43444  21325866.3094   21325863.4494
      3678.4174
 -13807124.40249 -10736706.70346  20280364.9184   20280361.2464
       338.9974
   6720094.53148   5233991.17244  21659345.0354   21659341.4774
     -1776.7554
  -3008487.26647  -2334633.44542  22626683.6994   22626679.7464
      3811.6644
 -19589476.87149 -15244203.41846  19617305.0044   19617302.0474
      1467.3274
 04  9  3 16 40 59.9960000  0  6G 1G20G11G14G23G25
 -21251779.37149 -16545737.12146  19949854.8404   19949852.1134
      2317.3094
 -12096565.69548  -9416449.59044  21315373.1064   21315369.8674
      3676.1654
 -13812073.88749 -10740563.45346  20279423.3404   20279419.7194
       329.9664
   6746768.12548   5254775.76644  21664420.9734   21664417.8714
     -1778.2404
  -3065626.52047  -2379157.52742  22615810.6374   22615806.9224
      3809.2844
 -19611353.17649 -15261249.89146  19613141.8874   19613138.5664
      1458.4204
 04  9  3 16 41 14.9960000  0  6G 1G20G11G14G23G25
 -21286464.59049 -16572764.54746  19943253.8564   19943251.7704
      2312.3484
 -12151674.10248  -9459391.20344  21304886.1914   21304882.9734
      3673.8944
 -13816888.02049 -10744314.73446  20278507.3564   20278503.7774
       320.9424
   6773463.83248   5275577.59444  21669500.5904   21669497.7584
     -1779.7144
  -3122729.87147  -2423653.61742  22604944.3014   22604939.6764
      3806.8904
 -19633095.87149 -15278192.25046  19609004.3794   19609001.4454
      1449.5134
 04  9  3 16 41 29.9960000  0  6G 1G20G11G14G23G25
 -21321075.69949 -16599734.23846  19936668.1214   19936665.5744
      2307.4074
 -12206748.60548  -9502306.40244  21294406.0824   21294402.9844
      3671.6344
 -13821567.25049 -10747960.89546  20277616.6064   20277613.2854
       311.9494
   6800181.13348   5296396.24644  21674585.2854   21674582.3284
     -1781.1534
  -3179797.63347  -2468121.94542  22594084.9964   22594080.3134
      3804.5174
 -19654705.23849 -15295030.71546  19604892.2154   19604889.1884
      1440.6244
 04  9  3 16 41 44.9960000  0  6G 1G20G11G14G23G25
 -21355613.32449 -16626646.66446  19930095.6134   19930093.2194
      2302.5084
 -12261789.57848  -9545195.46544  21283931.9814   21283928.7034
      3669.3984
 -13826112.19149 -10751502.41446  20276752.0274   20276748.5044
       302.9964
   6826919.44148   5317231.27344  21679672.6764   21679670.0434
     -1782.5544
  -3236830.19947  -2512562.87542  22583231.2854   22583227.3364
      3802.1714
 -19676181.78149 -15311765.68446  19600805.4414   19600802.5984
      1431.7704
 04  9  3 16 41 59.9960000  0  6G 1G20G11G14G23G25
 -21390076.95749 -16653501.43446  19923537.5044   19923534.7664
      2297.5764
 -12316796.26248  -9588057.81244  21273464.5434   21273461.4614
      3667.1124
 -13830522.34849 -10754938.91046  20275912.2464   20275909.3364
       294.0104
   6853679.26648   5338083.06344  21684765.5984   21684762.6564
     -1783.9884
  -3293826.90647  -2556975.87942  22572385.3164   22572380.7584
      3799.7804
 -19697524.87949 -15328396.67246  19596743.8164   19596741.0824
      1422.8734
 04  9  3 16 42 14.9960000  0  6G 1G20G11G14G23G25
 -21424467.19949 -16680299.02346  19916993.3324   19916990.6804
      2292.6834
 -12371769.03948  -9630893.74644  21263003.5044   21263000.4494
      3664.8524
 -13834798.37549 -10758270.88745  20275098.8484   20275095.6764
       285.0684
   6880459.73848   5358950.94943  21689861.7704   21689859.3564
     -1785.3654
  -3350788.37147  -2601361.41442  22561546.4494   22561541.8564
      3797.4314
 -19718735.24649 -15344924.23046  19592708.0594   19592705.0314
      1414.0244
 04  9  3 16 42 29.9960000  0  6G 1G20G11G14G23G25
 -21458783.32049 -16707038.84846  19910463.0274   19910460.5474
      2287.7414
 -12426706.95748  -9673702.50444  21252548.7074   21252546.0164
      3662.5284
 -13838939.69548 -10761497.89846  20274310.7464   20274307.2074
       276.0884
   6907261.42247   5379835.34044  21694961.6914   21694959.2584
     -1786.7794
  -3407713.81247  -2645718.88743  22550713.9734   22550709.4654
      3795.0294
 -19739812.23049 -15361347.85247  19588697.1454   19588694.2194
      1405.1324
 04  9  3 16 42 44.9960000  0  6G 1G20G11G14G23G25
 -21493025.34449 -16733720.93446  19903947.0354   19903944.6844
      2282.8024
 -12481609.96548  -9716484.06244  21242101.4414   21242098.3204
      3660.2014
 -13842946.53549 -10764620.11346  20273548.2544   20273544.5434
       267.1234
   6934084.19547   5400736.19544  21700065.7154   21700063.8714
     -1788.1854
  -3464603.23047  -2690048.28543  22539888.0274   22539883.8134
      3792.6284
 -19760755.67249 -15377667.41847  19584711.7854   19584708.8244
      1396.2294
 04  9  3 16 42 59.9960000  0  6G 1G20G11G14G23G25
 -21527193.60549 -16760345.53546  19897445.1844   19897442.4534
      2277.8844
 -12536478.02348  -9759238.39544  21231660.0824   21231657.0594
      3657.8714
 -13846819.12949 -10767637.73045  20272811.6764   20272807.9694
       258.1734
   6960927.69547   5421653.17244  21705173.8954   21705171.8094
     -1789.5674
  -3521456.81647  -2734349.75843  22529069.3954   22529064.8794
      3790.2394
 -19781565.79749 -15393883.10546  19580751.8484   19580748.8634
      1387.3424
 04  9  3 16 43 14.9960000  0  6G 1G20G11G14G23G25
 -21561288.02348 -16786912.61346  19890957.1844   19890954.7664
      2272.9614
 -12591310.77348  -9801965.20344  21221226.1134   21221222.7704
      3655.5174
 -13850557.55948 -10770550.80545  20272100.0354   20272096.3324
       249.2294
   6987791.77347   5442586.19143  21710286.1214   21710284.0664
     -1790.9394
  -3578274.39147  -2778623.14843  22518256.5044   22518252.2934
      3787.8384
 -19802242.54349 -15409994.85946  19576816.8324   19576814.2314
      1378.4504
 04  9  3 16 43 29.9960000  0  6G 1G20G11G14G23G25
 -21595307.77349 -16813421.50046  19884483.4184   19884480.8244
      2267.9834
 -12646107.21548  -9844663.73444  21210798.5354   21210795.8014
      3653.0964
 -13854161.00848 -10773358.69545  20271414.4654   20271410.6564
       240.2304
   7014677.14547   5463535.82044  21715402.1454   21715399.9844
     -1792.3584
  -3635055.04347  -2822867.78943  22507452.2544   22507448.0394
      3785.3774
 -19822785.22749 -15426002.14546  19572907.7854   19572905.0164
      1369.5124
 04  9  3 16 43 44.9960000  0  6G 1G20G11G14G23G25
 -21629253.56249 -16839872.75846  19878023.6524   19878021.1604
      2263.0534
 -12700867.93748  -9887334.42244  21200378.3564   21200375.1024
      3650.7154
 -13857630.33248 -10776062.07445  20270754.0354   20270750.5044
       231.2884
   7041582.92647   5484501.33644  21720522.0664   21720519.9184
     -1793.7194
  -3691799.41048  -2867084.14543  22496653.9884   22496649.5904
      3782.9584
 -19843194.48049 -15441905.46146  19569023.9264   19569021.2504
      1360.6174
 04  9  3 16 43 59.9960000  0  6G 1G20G11G14G23G25
 -21663124.17248 -16866265.44146  19871578.2154   19871575.7704
      2258.0414
 -12755591.42648  -9929976.09444  21189964.9024   21189961.6524
      3648.2334
 -13860964.45748 -10778660.09445  20270119.5824   20270116.2424
       222.2754
   7068510.31347   5505483.69943  21725646.6064   21725644.0124
     -1795.1594
  -3748506.21147  -2911271.23443  22485863.4344   22485858.7424
      3780.4534
 -19863469.02349 -15457703.80946  19565165.9494   19565163.0514
      1351.6364
 04  9  3 16 44 14.9960000  0  6G 1G20G11G14G23G25
 -21696920.40649 -16892600.16446  19865147.0824   19865144.5944
      2253.0824
 -12810278.32448  -9972589.25044  21179558.0354   21179555.3754
      3645.7934
 -13864164.21148 -10781153.41845  20269510.4264   20269507.2934
       213.3174
   7095458.38747   5526482.17243  21730774.8014   21730771.8364
     -1796.5384
  -3805176.20348  -2955429.64843  22475079.2774   22475075.1684
      3777.9994
 -19883609.51249 -15473397.69947  19561333.3244   19561330.5434
      1342.6994
 04  9  3 16 44 29.9960000  0  6G 1G20G11G14G23G25
 -21730643.34449 -16918877.77746  19858729.8094   19858727.3954
      2248.1964
 -12864929.42249 -10015174.51644  21169158.2234   21169155.3714
      3643.4074
 -13867230.72349 -10783542.91445  20268926.9814   20268923.3754
       204.4344
   7122425.87147   5547495.77344  21735906.1844   21735903.7854
     -1797.8324
  -3861810.30548  -2999560.09443  22464302.1134   22464298.4574
      3775.6074
 -19903617.07049 -15488988.00447  19557526.1994   19557523.4144
      1333.8374
 04  9  3 16 44 44.9960000  0  6G 1G20G11G14G23G25
 -21764291.94949 -16945097.46146  19852326.5434   19852324.0394
      2243.2404
 -12919543.39848 -10057730.85544  21158765.3404   21158762.5044
      3640.9324
 -13870163.15648 -10785827.93746  20268368.9104   20268365.4574
       195.4964
   7149413.75448   5568525.26244  21741041.8324   21741039.0314
     -1799.1924
  -3918407.28148  -3043661.61743  22453531.5984   22453528.0234
      3773.1324
 -19923490.73449 -15504473.97746  19553744.2934   19553741.2974
      1324.9114
 04  9  3 16 44 59.9960000  0  6G 1G20G11G14G23G25
 -21797866.60249 -16971259.52346  19845937.5124   19845935.5664
      2238.3104
 -12974120.41848 -10100258.41044  21148379.8954   21148376.7194
      3638.4684
 -13872961.95749 -10788008.83646  20267836.5514   20267833.2894
       186.5874
   7176421.61347   5589570.31643  21746181.5274   21746178.5984
     -1800.5244
  -3974967.44148  -3087734.45343  22442768.6294   22442765.3674
      3770.6774
 -19943230.78549 -15519855.84446  19549987.9264   19549984.6374
      1316.0034
 04  9  3 16 45 14.9960000  0  6G 1G20G11G14G23G25
 -21831366.24648 -16997363.12946  19839562.7704   19839560.5434
      2233.3104
 -13028659.24648 -10142756.19144  21138001.4264   21137998.6374
      3635.9224
 -13875626.30548 -10790084.95745  20267329.4104   20267326.0234
       177.6234
   7203450.39548   5610631.69543  21751324.6844   21751321.3164
     -1801.9194
  -4031489.74247  -3131777.78943  22432012.8564   22432009.2154
      3768.1534
 -19962836.21949 -15535132.80546  19546257.2074   19546253.8834
      1307.0294
 04  9  3 16 45 29.9960000  0  6G 1G20G11G14G23G25
 -21864790.41849 -17023407.94146  19833202.4024   19833200.1374
      2228.2784
 -13083159.18748 -10185223.66844  21127630.0354   21127627.7034
      3633.3294
 -13878155.44549 -10792055.73045  20266848.2854   20266845.1414
       168.6094
   7230500.37947   5631709.57443  21756472.1134   21756469.3834
     -1803.3324
  -4087973.64148  -3175791.19543  22421264.4964   22421260.5824
      3765.5934
 -19982306.62549 -15550304.55146  19542551.8874   19542548.9184
      1298.0274
 04  9  3 16 45 44.9960000  0  6G 1G20G11G14G23G25
 -21898140.91848 -17049395.34046  19826855.8874   19826853.8364
      2223.3674
 -13137621.75048 -10227662.02044  21117266.7074   21117263.8524
      3630.8384
 -13880551.44548 -10793922.74245  20266392.4964   20266389.1374
       159.7334
   7257569.54347   5652802.41044  21761623.2464   21761620.8284
     -1804.6114
  -4144420.82048  -3219775.98443  22410523.3874   22410518.5664
      3763.1454
 -20001643.77349 -15565372.45747  19538872.3014   19538869.0944
      1289.1434
 04  9  3 16 45 59.9960000  0  6G 1G20G11G14G23G25
 -21931417.44148 -17075325.10246  19820523.7624   19820521.4844
      2218.4354
 -13192046.54748 -10270070.94544  21106909.9814   21106906.7624
      3628.3204
 -13882813.99248 -10795685.77045  20265961.6134   20265958.2774
       150.8364
   7284658.25447   5673910.46544  21766777.7464   21766775.6064
     -1805.9144
  -4200830.91048  -3263731.88343  22399788.4104   22399784.1064
      3760.6734
 -20020847.16448 -15580336.14546  19535217.8484   19535215.1214
      1280.2264
 04  9  3 16 46 14.9960000  0  6G 1G20G11G14G23G25
 -21964620.27348 -17101197.42646  19814205.1914   19814203.1684
      2213.5224
 -13246433.46949 -10312450.35945  21096560.5904   21096557.2274
      3625.7954
 -13884943.68049 -10797345.27745  20265556.4494   20265553.1334
       141.9794
   7311766.00847   5695033.37943  21771936.7704   21771933.9694
     -1807.1844
  -4257204.12548  -3307659.03943  22389061.6064   22389056.4494
      3758.2144
 -20039917.03149 -15595195.77747  19531589.2074   19531586.4814
      1271.3244
 04  9  3 16 46 29.9960000  0  6G 1G20G11G14G23G25
 -21997748.87948 -17127011.92646  19807901.0904   19807898.9494
      2208.5744
 -13300781.69548 -10354799.62544  21086218.2624   21086215.1684
      3623.2154
 -13886939.88748 -10798900.77745  20265176.5204   20265173.3954
       133.0804
   7338893.37147   5716171.55943  21777098.7544   21777096.6294
     -1808.4914
  -4313539.76248  -3351556.91443  22378341.2544   22378335.7464
      3755.7094
 -20058852.80549 -15609950.93447  19527985.8094   19527983.0274
      1262.3854
 04  9  3 16 46 44.9960000  0  6G 1G20G11G14G23G25
 -22030802.22748 -17152767.78146  19801610.9814   19801608.8634
      2203.5574
 -13355090.13749 -10397117.88344  21075883.9184   21075880.9884
      3620.5634
 -13888801.88349 -10800351.69145  20264822.3404   20264819.0824
       124.1334
   7366041.03147   5737325.56643  21782265.0434   21782262.1214
     -1809.8444
  -4369836.74248  -3395424.68443  22367627.9494   22367623.1254
      3753.1324
 -20077653.68049 -15624600.96547  19524408.2074   19524404.8634
      1253.3924
 04  9  3 16 46 59.9960000  0  6G 1G20G11G14G23G25
 -22063781.49649 -17178465.90646  19795335.4654   19795333.2194
      2198.6184
 -13409359.68449 -10439405.82844  21065556.2774   21065553.8164
      3617.9704
 -13890530.79749 -10801698.90645  20264493.0204   20264489.7154
       115.2614
   7393207.84047   5758494.49244  21787434.6844   21787431.7314
     -1811.1214
  -4426096.12547  -3439263.13743  22356922.1134   22356917.7774
      3750.6264
 -20096320.77349 -15639146.75846  19520855.8244   19520852.9614
      1244.4734
 04  9  3 16 47 14.9960000  0  6G 1G20G11G14G23G25
 -22096687.11348 -17204106.64546  19789073.9494   19789071.5664
      2193.7084
 -13463590.52049 -10481663.61344  21055236.7074   21055233.5904
      3615.3894
 -13892127.08649 -10802942.78545  20264189.6844   20264185.8794
       106.4194
   7420393.28547   5779677.92643  21792607.8404   21792605.1954
     -1812.3634
  -4482318.36348  -3483072.64843  22346222.6844   22346218.6884
      3748.1494
 -20114854.45748 -15653588.59047  19517329.0744   19517326.1174
      1235.5794
 04  9  3 16 47 29.9960000  0  6G 1G20G11G14G23G25
 -22129518.45748 -17229689.51246  19782826.1764   19782823.9534
      2188.7564
 -13517781.72749 -10523890.51244  21044924.6134   21044920.6684
      3612.7474
 -13893590.43749 -10804083.07045  20263911.2774   20263907.3244
        97.5574
   7447597.91847   5800876.31643  21797784.8094   21797781.9614
     -1813.6424
  -4538502.62548  -3526852.56643  22335531.2074   22335527.2624
      3745.6174
 -20133254.05148 -15667925.93747  19513827.5744   19513824.5744
      1226.6404
 04  9  3 16 47 44.9960000  0  6G 1G20G11G14G23G25
 -22162274.83249 -17255213.95346  19776592.9414   19776590.7504
      2183.7584
 -13571932.45349 -10566085.88344  21034619.9494   21034616.5234
      3610.0484
 -13894920.17249 -10805119.23445  20263658.0204   20263654.4184
        88.6494
   7474822.24647   5822090.05943  21802965.5594   21802962.4264
     -1814.9554
  -4594648.28148  -3570602.40243  22324846.6994   22324842.9654
      3743.0444
 -20151518.92249 -15682158.29747  19510352.0274   19510349.0634
      1217.6584
 04  9  3 16 47 59.9960000  0  6G 1G20G11G14G23G25
 -22194956.52748 -17280680.20746  19770373.8794   19770371.1804
      2178.7804
 -13626042.76649 -10608249.75444  21024323.1684   21024319.7854
      3607.3544
 -13896116.71149 -10806051.60945  20263430.2544   20263427.0314
        79.7694
   7502065.97347   5843318.93043  21808149.7384   21808146.7344
     -1816.2484
  -4650755.33647  -3614322.18443  22314170.1214   22314165.9734
      3740.4704
 -20169649.38748 -15696285.94147  19506902.1134   19506898.8954
      1208.6984
 04  9  3 16 48 14.9960000  0  6G 1G20G11G14G23G25
 -22227563.40649 -17306088.15646  19764169.0204   19764166.5124
      2173.7924
 -13680112.23849 -10650381.80144  21014034.1994   21014030.6064
      3604.6324
 -13897179.98849 -10806880.16045  20263228.4344   20263224.4964
        70.8854
   7529329.08247   5864562.89543  21813337.7544   21813334.5864
     -1817.5414
  -4706823.61347  -3658011.73443  22303500.9414   22303496.4264
      3737.8854
 -20187645.26248 -15710308.69946  19503477.2074   19503474.2664
      1199.7254
 04  9  3 16 48 29.9960000  0  6G 1G20G11G14G23G25
 -22260094.84849 -17331437.32846  19757978.3094   19757975.8914
      2168.7634
 -13734140.08249 -10692481.40644  21003753.0594   21003749.0824
      3601.8564
 -13898109.55149 -10807604.50445  20263051.4814   20263048.0594
        61.9714
   7556612.10247   5885822.36343  21818529.1374   21818526.4144
     -1818.8684
  -4762852.44547  -3701670.55142  22292838.4414   22292834.4884
      3735.2554
 -20205506.05949 -15724226.19947  19500078.6994   19500075.4814
      1190.7204
 04  9  3 16 48 44.9960000  0  6G 1G20G11G14G23G25
 -22292551.63749 -17356728.32846  19751802.4104   19751799.4924
      2163.7864
 -13788126.70349 -10734548.90244  20993479.4344   20993476.3014
      3599.1084
 -13898906.09049 -10808225.20745  20262899.8484   20262896.3134
        53.1034
   7583914.10547   5907096.62143  21823724.6064   21823722.4494
     -1820.1344
  -4818842.46548  -3745299.14143  22282184.7934   22282180.0944
      3732.6684
 -20223232.36749 -15738038.91446  19496705.4414   19496702.0824
      1181.7544
 04  9  3 16 48 59.9960000  0  6G 1G20G11G14G23G25
 -22324934.42649 -17381961.66046  19745639.9264   19745636.9104
      2158.8534
 -13842072.60949 -10776584.66444  20983214.1844   20983210.7034
      3596.3944
 -13899570.44949 -10808742.89145  20262773.3324   20262769.2854
        44.2914
   7611234.34847   5928385.10243  21828923.7074   21828920.7194
     -1821.3494
  -4874794.25047  -3788897.92243  22271537.0824   22271532.7624
      3730.1194
 -20240824.91449 -15751747.39147  19493357.6764   19493354.6174
      1172.8364
 04  9  3 16 49 14.9960000  0  6G 1G20G11G14G23G25
 -22357243.18449 -17407137.30946  19739491.9574   19739488.8164
      2153.9174
 -13895977.49249 -10818588.44944  20972956.0664   20972953.1454
      3593.6594
 -13900102.68449 -10809157.62945  20262672.0354   20262668.0984
        35.4824
   7638572.79346   5949687.76243  21834125.9814   21834123.3714
     -1822.5634
  -4930707.63748  -3832466.79343  22260897.3014   22260892.7544
      3727.5594
 -20258283.59049 -15765351.55147  19490035.3634   19490032.4064
      1163.9124
 04  9  3 16 49 29.9960000  0  6G 1G20G11G14G23G25
 -22389477.69549 -17432255.09846  19733357.7854   19733354.8754
      2148.9674
 -13949840.84049 -10860559.87544  20962706.3714   20962702.8634
      3590.8904
 -13900502.73449 -10809469.37145  20262596.2464   20262592.1954
        26.6704
   7665929.53946   5971004.68843  21839332.1684   21839328.6524
     -1823.7834
  -4986582.27347  -3876005.46142  22250264.9024   22250260.3754
      3724.9764
 -20275608.09449 -15778851.16847  19486738.3164   19486735.5274
      1154.9674
 04  9  3 16 49 44.9960000  0  6G 1G20G11G14G23G25
 -22421637.60549 -17457314.77046  19727237.8324   19727235.2194
      2143.9944
 -14003662.03949 -10902498.47344  20952464.5204   20952460.9104
      3588.0804
 -13900770.30549 -10809677.87945  20262545.0824   20262541.0634
        17.8384
   7693304.91446   5992336.12543  21844541.5904   21844538.1254
     -1825.0254
  -5042417.80547  -3919513.64842  22239639.2464   22239634.2974
      3722.3694
 -20292798.09049 -15792245.96947  19483467.3404   19483464.4344
      1146.0004
 04  9  3 16 49 59.9960000  0  6G 1G20G11G14G23G25
 -22453723.39849 -17482316.68046  19721132.2234   19721129.8404
      2139.0534
 -14057441.37549 -10944404.43744  20942230.4494   20942227.2274
      3585.2894
 -13900906.02749 -10809783.65245  20262519.5514   20262515.8754
         9.0484
   7720698.24647   6013681.56343  21849754.0514   21849751.3484
     -1826.2224
  -5098214.60247  -3962991.66842  22229021.7464   22229016.4734
      3719.7864
 -20309854.18049 -15805536.43447  19480222.1914   19480218.9884
      1137.0734
 04  9  3 16 50 14.9960000  0  6G 1G20G11G14G23G25
 -22485735.63349 -17507261.27346  19715040.2774   19715037.8634
      2134.1494
 -14111179.19149 -10986278.04344  20932004.7774   20932001.2544
      3582.5214
 -13900910.52349 -10809787.17245  20262518.5044   20262514.9024
         0.3004
   7748108.96146   6035040.53543  21854970.2234   21854967.7704
     -1827.3814
  -5153973.24647  -4006439.93742  22218411.1684   22218405.9654
      3717.2434
 -20326776.91449 -15818722.97347  19477001.4814   19476998.3284
      1128.1824
 04  9  3 16 50 29.9960000  0  6G 1G20G11G14G23G25
 -22517674.04349 -17532148.33646  19708962.6214   19708960.0634
      2129.2274
 -14164874.87949 -11028118.82844  20921786.3954   20921782.8914
      3579.7134
 -13900783.61749 -10809688.29745  20262542.5744   20262539.0704
        -8.4604
   7775537.29346   6056413.23443  21860189.3634   21860187.2384
     -1828.5554
  -5209693.15648  -4049858.02042  22207808.1214   22207802.7464
      3714.6614
 -20343566.01649 -15831805.38746  19473806.8324   19473803.7424
      1119.2734
 04  9  3 16 50 44.9960000  0  6G 1G20G11G14G23G25
 -22549538.11349 -17556977.48046  19702899.1134   19702896.4924
      2124.2714
 -14218527.84449 -11069926.31244  20911576.9814   20911573.1214
      3576.8644
 -13900525.02049 -10809486.79745  20262591.9964   20262588.2584
       -17.2404
   7802983.48447   6077799.85543  21865412.8244   21865409.2774
     -1829.7464
  -5265373.98848  -4093245.69142  22197211.9884   22197206.4844
      3712.0554
 -20360220.94549 -15844783.25446  19470637.2544   19470634.3484
      1110.3294
 04  9  3 16 50 59.9960000  0  6G 1G20G11G14G23G25
 -22581328.93048 -17581749.53946  19696849.7314   19696847.1484
      2119.3884
 -14272138.85549 -11111701.13344  20901374.9494   20901371.3404
      3574.0674
 -13900135.87949 -10809183.58245  20262665.8324   20262662.3834
       -25.9434
   7830446.41047   6099199.52343  21870638.7544   21870635.8594
     -1830.8624
  -5321016.57848  -4136603.55542  22186624.0274   22186618.5744
      3709.5064
 -20376742.82849 -15857657.43747  19467492.8324   19467489.9064
      1101.4594
 04  9  3 16 51 14.9960000  0  6G 1G20G11G14G23G25
 -22613044.68748 -17606463.11746  19690814.1994   19690811.6684
      2114.3844
 -14325705.87548 -11153441.66044  20891181.8164   20891178.1294
      3571.1354
 -13899614.27749 -10808777.16045  20262764.9494   20262761.7384
       -34.7734
   7857927.84447   6120613.59043  21875868.5434   21875865.3564
     -1832.0964
  -5376619.03547  -4179930.13343  22176042.7154   22176038.7384
      3706.8304
 -20393129.81649 -15870426.52046  19464374.9414   19464371.7464
      1092.4664
 04  9  3 16 51 29.9960000  0  6G 1G20G11G14G23G25
 -22644687.71549 -17631120.02046  19684792.7854   19684790.5514
      2109.5354
 -14379230.86349 -11195149.42644  20880996.2234   20880992.3324
      3568.3334
 -13898962.91449 -10808269.61345  20262889.0434   20262885.3284
       -43.4244
   7885425.39847   6142040.23443  21881101.5594   21881098.0904
     -1833.1704
  -5432183.56248  -4223227.14143  22165469.6684   22165465.1884
      3704.3024
 -20409384.32049 -15883092.37147  19461281.7154   19461278.5634
      1083.6344
 04  9  3 16 51 44.9960000  0  6G 1G20G11G14G23G25
 -22676256.03149 -17655718.70346  19678785.4574   19678783.0984
      2104.5544
 -14432711.75049 -11236822.83244  20870818.8954   20870815.1764
      3565.3924
 -13898180.05149 -10807659.60545  20263038.0664   20263034.1994
       -52.1914
   7912940.71547   6163480.71943  21886337.3324   21886333.9844
     -1834.3544
  -5487708.19548  -4266493.06243  22154903.6994   22154898.5664
      3701.6424
 -20425504.38749 -15895653.46147  19458214.2074   19458211.4184
      1074.6714
 04  9  3 16 51 59.9960000  0  6G 1G20G11G14G23G25
 -22707750.24249 -17680259.63746  19672792.2624   19672789.8204
      2099.6144
 -14486148.94149 -11278462.20344  20860650.0664   20860646.2584
      3562.4794
 -13897266.33249 -10806947.62945  20263211.8404   20263208.1564
       -60.9154
   7940473.34847   6184934.68843  21891576.2234   21891573.3484
     -1835.5094
  -5543193.47347  -4309728.33643  22144344.3794   22144340.0634
      3699.0184
 -20441490.60248 -15908110.24246  19455172.1454   19455169.4144
      1065.7484
 04  9  3 16 52 14.9960000  0  6G 1G20G11G14G23G25
 -22739170.07049 -17704742.62146  19666813.5434   19666810.8244
      2094.6554
 -14539541.76649 -11320066.98844  20850490.0514   20850486.5704
      3559.5224
 -13896221.54749 -10806133.53145  20263410.8954   20263406.7464
       -69.6524
   7968023.44947   6206402.27343  21896818.6294   21896815.6604
     -1836.6734
  -5598639.02047  -4352932.63743  22133793.5594   22133789.8984
      3696.3704
 -20457342.77348 -15920462.59046  19452155.5124   19452152.5474
      1056.8114
 04  9  3 16 52 29.9960000  0  6G 1G20G11G14G23G25
 -22770515.75848 -17729167.83646  19660848.6994   19660846.0514
      2089.7134
 -14592890.22749 -11361637.20344  20840337.9344   20840334.3134
      3556.5644
 -13895046.02749 -10805217.55145  20263634.3714   20263630.3874
       -78.3684
   7995590.63348   6227883.18443  21902064.8874   21902061.7934
     -1837.8124
  -5654044.82048  -4396105.96943  22123250.4814   22123246.4264
      3693.7204
 -20473061.09448 -15932710.62946  19449164.4884   19449161.8014
      1047.8884
 04  9  3 16 52 44.9960000  0  6G 1G20G11G14G23G25
 -22801787.67648 -17753535.55946  19654897.6214   19654895.2584
      2084.7954
 -14646194.41049 -11403172.92644  20830194.3094   20830191.2344
      3553.6124
 -13893740.31249 -10804200.11745  20263882.7774   20263879.2814
       -87.0484
   8023174.40247   6249377.00443  21907313.2464   21907310.8404
     -1838.9184
  -5709411.21948  -4439248.60243  22112714.5204   22112710.1414
      3691.0934
 -20488645.89548 -15944854.62546  19446198.4654   19446195.8284
      1038.9874
 04  9  3 16 52 59.9960000  0  6G 1G20G11G14G23G25
 -22832984.31649 -17777844.62546  19648961.3164   19648959.0274
      2079.7764
 -14699452.56649 -11444672.77744  20820059.5984   20820056.1524
      3550.5444
 -13892303.06249 -10803080.20345  20264156.1374   20264152.4844
       -95.8174
   8050776.26247   6270884.92643  21912565.8164   21912563.9654
     -1840.1244
  -5764736.70348  -4482359.35543  22102186.3874   22102181.8834
      3688.3664
 -20504095.65249 -15956893.39146  19443258.7624   19443255.6884
      1029.9844
 04  9  3 16 53 14.9960000  0  6G 1G20G11G14G23G25
 -22864108.18449 -17802096.98046  19643038.5044   19643036.0354
      2074.9244
 -14752666.99249 -11486138.55944  20809933.6844   20809929.4924
      3547.6284
 -13890736.64849 -10801859.62945  20264454.1214   20264450.8364
      -104.4284
   8078393.55947   6292404.87143  21917821.2934   21917819.0784
     -1841.1534
  -5820023.64148  -4525440.07843  22091665.7624   22091660.4144
      3685.7964
 -20519412.92649 -15968828.93047  19440343.8634   19440341.0274
      1021.1524
 04  9  3 16 53 29.9960000  0  6G 1G20G11G14G23G25
 -22895158.73849 -17826292.21546  19637129.7384   19637127.3244
      2070.0374
 -14805836.78949 -11527569.55944  20799815.4104   20799811.9534
      3544.6534
 -13889040.79749 -10800538.18745  20264777.3164   20264773.6994
      -113.0574
   8106026.87547   6313937.31643  21923079.9494   21923077.5164
     -1842.2214
  -5875271.34448  -4568490.20343  22081152.5204   22081147.2734
      3683.1804
 -20534597.22748 -15980660.85547  19437454.5124   19437451.7314
      1012.2874
 04  9  3 16 53 44.9960000  0  6G 1G20G11G14G23G25
 -22926135.42249 -17850429.89146  19631234.8954   19631232.4844
      2065.1124
 -14858961.16849 -11568965.17644  20789706.2624   20789703.2624
      3541.6254
 -13887215.07449 -10799115.55545  20265124.7464   20265121.2934
      -121.7154
   8133676.61747   6335482.54343  21928340.8954   21928338.9654
     -1843.3164
  -5930479.06648  -4611509.19143  22070647.0204   22070642.2894
      3680.5154
 -20549647.92249 -15992388.67247  19434590.5354   19434587.6134
      1003.3804
 04  9  3 16 53 59.9960000  0  6G 1G20G11G14G23G25
 -22957037.91049 -17874509.74646  19625354.5594   19625352.1454
      2060.1664
 -14912039.62149 -11610325.01244  20779605.6684   20779602.5164
      3538.5644
 -13885259.28149 -10797591.57045  20265496.9654   20265493.6644
      -130.3864
   8161343.10248   6357040.80543  21933606.5984   21933604.1374
     -1844.4324
  -5985646.50848  -4654496.78543  22060149.1764   22060144.2424
      3677.8294
 -20564564.78548 -16004012.19547  19431751.8324   19431749.0204
       994.4584
 04  9  3 16 54 14.9960000  0  6G 1G20G11G14G23G25
 -22987865.79749 -17898531.47746  19619488.3244   19619485.6294
      2055.1924
 -14965071.49249 -11651648.53544  20769514.0594   20769510.4694
      3535.4584
 -13883173.18749 -10795966.05945  20265893.7934   20265890.7544
      -139.0734
   8189026.43448   6378612.20343  21938874.4574   21938872.1454
     -1845.5554
  -6040773.25448  -4697452.68043  22049658.8564   22049653.8284
      3675.1164
 -20579347.42649 -16015531.13347  19428939.0514   19428935.8874
       985.5094
 04  9  3 16 54 29.9960000  0  6G 1G20G11G14G23G25
 -23018619.69149 -17922495.53946  19613635.8634   19613633.1884
      2050.2604
 -15018057.18749 -11692936.09444  20759431.4104   20759428.1484
      3532.3804
 -13880957.43049 -10794239.50845  20266315.1994   20266312.0984
      -147.7174
   8216725.91447   6400196.19143  21944145.8484   21944143.2894
     -1846.6324
  -6095859.76648  -4740377.21543  22039176.0984   22039171.6644
      3672.4344
 -20593996.46149 -16026945.96546  19426151.2544   19426148.3754
       976.6024
 04  9  3 16 54 44.9960000  0  6G 1G20G11G14G23G25
 -23049298.74649 -17946401.29746  19607798.0984   19607795.5744
      2045.2704
 -15070995.55149 -11734186.76644  20749357.3404   20749353.9534
      3529.2244
 -13878611.39549 -10792411.43045  20266761.8164   20266758.8524
      -156.4024
   8244442.46547   6421793.47343  21949419.3564   21949417.1684
     -1847.7704
  -6150905.13348  -4783269.68043  22028701.5664   22028696.8754
      3669.6914
 -20608511.04349 -16038256.03547  19423389.3404   19423386.8674
       967.6394
 04  9  3 16 54 59.9960000  0  6G 1G20G11G14G23G25
 -23079903.50849 -17970249.15246  19601974.0274   19601971.9144
      2040.3174
 -15123886.86349 -11775400.76644  20739292.7854   20739289.5124
      3526.0884
 -13876135.74249 -10790482.35545  20267233.0274   20267229.9104
      -165.0434
   8272175.48447   6443403.59043  21954697.5204   21954694.6334
     -1848.8684
  -6205909.73048  -4826130.38743  22018234.4344   22018230.0164
      3666.9734
 -20622891.75049 -16049461.78146  19420652.8404   19420649.8094
       958.7144
 04  9  3 16 55 14.9960000  0  6G 1G20G11G14G23G25
 -23110433.17249 -17994038.50046  19596164.8484   19596161.9844
      2035.3114
 -15176730.03149 -11816577.25844  20729236.3954   20729233.6844
      3522.8784
 -13873529.83249 -10788451.79345  20267729.0514   20267726.0124
      -173.7274
   8299925.58647   6465027.03543  21959977.3954   21959975.0354
     -1850.0074
  -6260872.63748  -4868958.61343  22007774.7544   22007770.0474
      3664.1944
 -20637137.74649 -16060562.54746  19417941.7774   19417938.7504
       949.7334
 04  9  3 16 55 29.9960000  0  6G 1G20G11G14G23G25
 -23140888.52749 -18017769.94146  19590369.2154   19590366.7774
      2030.3574
 -15229525.63349 -11857716.68444  20719190.3244   20719187.0164
      3519.7074
 -13870794.57049 -10786320.42245  20268249.1684   20268246.5554
      -182.3514
   8327691.85547   6486663.07443  21965261.3714   21965259.0434
     -1851.0854
  -6315794.60548  -4911754.94143  21997323.1914   21997318.9064
      3661.4654
 -20651250.01249 -16071559.11747  19415256.1294   19415253.6254
       940.8184
 04  9  3 16 55 44.9960000  0  6G 1G20G11G14G23G25
 -23171269.55949 -18041443.46546  19584587.6844   19584585.1174
      2025.4024
 -15282273.38349 -11898818.81244  20709152.4654   20709149.8914
      3516.5174
 -13867929.98449 -10784088.29345  20268794.3324   20268791.1064
      -190.9724
   8355474.40247   6508311.78542  21970548.2314   21970545.8874
     -1852.1704
  -6370675.57048  -4954519.32043  21986879.9414   21986875.2704
      3658.7314
 -20665228.40649 -16082451.38347  19412596.3484   19412593.5394
       931.8934
 04  9  3 16 55 59.9960000  0  6G 1G20G11G14G23G25
 -23201575.50049 -18065058.48846  19578820.8634   19578817.8164
      2020.3964
 -15334972.28949 -11939882.89144  20699124.4964   20699121.0704
      3513.2604
 -13864935.60949 -10781755.02345  20269364.1914   20269360.8524
      -199.6254
   8383273.77747   6529973.61342  21975837.9964   21975836.1024
     -1853.2924
  -6425514.68448  -4997251.08243  21976444.7234   21976439.4454
      3655.9414
 -20679072.33249 -16093238.85947  19409961.9574   19409958.6724
       922.9284
 04  9  3 16 56 14.9960000  0  6G 1G20G11G14G23G25
 -23231806.23849 -18088614.90246  19573067.7314   19573065.4844
      2015.3834
 -15387621.83649 -11980908.51245  20689105.5904   20689102.3444
      3509.9704
 -13861811.43049 -10779320.60945  20269958.7774   20269955.6374
      -208.2794
   8411090.05147   6551648.60942  21981131.2074   21981129.1294
     -1854.4184
  -6480311.73848  -5039950.07043  21966016.9494   21966011.7504
      3653.1374
 -20692781.63349 -16103921.43446  19407353.1454   19407350.1174
       913.9534
 04  9  3 16 56 29.9960000  0  6G 1G20G11G14G23G25
 -23261961.21149 -18112112.27746  19567329.4814   19567327.5594
      2010.3324
 -15440221.37949 -12021895.16445  20679096.0744   20679093.4104
      3506.6364
 -13858556.90649 -10776784.62945  20270577.9884   20270574.8404
      -216.9684
   8438923.59847   6573337.05143  21986428.2074   21986425.8014
     -1855.5704
  -6535066.13748  -5082615.80543  21955597.3094   21955592.8404
      3650.2934
 -20706355.72349 -16114498.64847  19404770.0514   19404766.9064
       904.9394
 04  9  3 16 56 44.9960000  0  6G 1G20G11G14G23G25
 -23292041.79349 -18135551.69146  19561605.2934   19561603.2234
      2005.3724
 -15492771.96149 -12062843.66444  20669095.9964   20669093.0434
      3503.3724
 -13855173.66449 -10774148.34845  20271222.0044   20271218.7074
      -225.5494
   8466773.03547   6595037.88342  21991727.9654   21991724.9384
     -1856.6294
  -6589779.15248  -5125249.28543  21945186.1994   21945180.8164
      3647.5344
 -20719796.02749 -16124971.61347  19402212.6374   19402209.1804
       896.0204
 04  9  3 16 56 59.9960000  0  6G 1G20G11G14G23G25
 -23322047.70349 -18158932.92646  19555895.4184   19555892.8834
      2000.3944
 -15545273.04349 -12103753.59045  20659105.3324   20659102.2504
      3500.0724
 -13851661.49649 -10771411.60545  20271890.3164   20271886.7734
      -234.1454
   8494638.51247   6616751.21943  21997030.5354   21997027.7544
     -1857.6984
  -6644450.29348  -5167850.17243  21934782.8404   21934777.5744
      3644.7434
 -20733102.25849 -16135340.10247  19399680.3164   19399677.2274
       887.0824
 04  9  3 16 57 14.9960000  0  6G 1G20G11G14G23G25
 -23351980.32049 -18182257.03546  19550199.2704   19550197.0274
      1995.5084
 -15597725.80549 -12144625.87545  20649124.2464   20649120.6604
      3496.8514
 -13848021.85949 -10768575.53545  20272583.1374   20272579.8164
      -242.6424
   8522518.64847   6638475.98442  22002335.8714   22002332.8094
     -1858.6764
  -6699080.83248  -5210419.39143  21924387.0984   21924381.9614
      3642.0364
 -20746275.91449 -16145605.29347  19397173.6994   19397170.4614
       878.2444
 04  9  3 16 57 29.9960000  0  6G 1G20G11G14G23G25
 -23381838.77749 -18205523.35946  19544517.6914   19544515.4574
      1990.5644
 -15650128.95349 -12185459.49245  20639152.0744   20639148.7424
      3493.5434
 -13844254.03949 -10765639.58645  20273300.1214   20273296.7814
      -251.1884
   8550414.39147   6660212.89843  22007644.3324   22007641.8674
     -1859.7164
  -6753669.86348  -5252956.28143  21913998.8714   21913994.3404
      3639.2694
 -20759316.10949 -16155766.48847  19394691.9814   19394688.5864
       869.3464
 04  9  3 16 57 44.9960000  0  6G 1G20G11G14G23G25
 -23411623.56249 -18228732.28546  19538849.5434   19538847.1134
      1985.6524
 -15702482.77049 -12226254.67245  20629189.6214   20629186.3444
      3490.2544
 -13840358.84449 -10762604.37545  20274041.4104   20274037.7894
      -259.6804
   8578325.15647   6681961.50843  22012956.0354   22012953.2274
     -1860.7184
  -6808217.78548  -5295461.13343  21903618.5824   21903614.3014
      3636.5284
 -20772223.39549 -16165824.10946  19392235.9184   19392232.9454
       860.4864
 04  9  3 16 57 59.9960000  0  6G 1G20G11G14G23G25
 -23441333.79349 -18251883.11746  19533196.0434   19533193.6804
      1980.6824
 -15754786.18749 -12267010.57045  20619236.3014   20619233.2384
      3486.8954
 -13836335.35549 -10759469.21145  20274807.0594   20274803.5004
      -268.2334
   8606251.68447   6703722.41042  22018269.7154   22018267.6254
     -1861.7684
  -6862723.55548  -5337933.15243  21893246.2854   21893242.0314
      3633.7184
 -20784996.89549 -16175777.49247  19389804.8954   19389802.1994
       851.5674
 04  9  3 16 58 14.9960000  0  6G 1G20G11G14G23G25
 -23470970.14849 -18274976.38746  19527556.2384   19527553.9064
      1975.7574
 -15807039.60249 -12307727.51245  20609293.0044   20609289.9104
      3483.5614
 -13832184.50049 -10756234.78945  20275596.8164   20275593.2424
      -276.7244
   8634193.17647   6725494.98442  22023587.0274   22023584.9064
     -1862.7664
  -6917187.79347  -5380372.80943  21882882.0434   21882878.2114
      3630.9494
 -20797637.34849 -16185627.21147  19387399.7854   19387396.9184
       842.6974
 04  9  3 16 58 29.9960000  0  6G 1G20G11G14G23G25
 -23500532.71149 -18298012.13746  19521930.5664   19521928.4304
      1970.8384
 -15859242.81249 -12348405.33245  20599358.7934   20599355.9694
      3480.2144
 -13827906.50049 -10752901.29745  20276410.9184   20276407.5554
      -285.2004
   8662149.41847   6747279.03942  22028906.9814   22028905.0234
     -1863.7494
  -6971610.53947  -5422780.12543  21872525.3484   21872522.0824
      3628.1834
 -20810144.87149 -16195373.32847  19385019.7074   19385016.6884
       833.8354
 04  9  3 16 58 44.9960000  0  6G 1G20G11G14G23G25
 -23530021.94949 -18320990.77046  19516319.1524   19516317.0124
      1965.9494
 -15911396.05149 -12389044.21945  20589434.5664   20589431.5314
      3476.8834
 -13823501.92249 -10749469.16845  20277249.0824   20277245.6884
      -293.6394
   8690119.78547   6769074.10942  22034229.1134   22034227.5394
     -1864.6914
  -7025992.06647  -5465155.32843  21862177.0904   21862173.5864
      3625.4354
 -20822519.92249 -16205016.23047  19382664.7074   19382661.7934
       825.0034
 04  9  3 16 58 59.9960000  0  6G 1G20G11G14G23G25
 -23559437.41449 -18343911.90646  19510721.5664   19510718.9844
      1961.0314
 -15963498.53549 -12429643.54745  20579520.0124   20579516.8674
      3473.4994
 -13818970.50449 -10745938.22345  20278111.3164   20278107.7544
      -302.0954
   8718104.76647   6790880.53942  22039554.2774   22039552.4494
     -1865.6654
  -7080332.01648  -5507498.12943  21851836.9184   21851832.7934
      3622.6634
 -20834762.16449 -16214555.64147  19380335.4344   19380332.0354
       816.1494
 04  9  3 16 59 14.9960000  0  6G 1G20G11G14G23G25
 -23588779.53149 -18366775.89146  19505138.2074   19505135.7854
      1956.1414
 -16015550.47749 -12470203.50045  20569614.8014   20569611.5164
      3470.1294
 -13814312.86349 -10742308.89845  20278997.6684   20278993.9384
      -310.5094
   8746103.89147   6812698.02042  22044883.1374   22044880.5314
     -1866.6084
  -7134630.61347  -5549808.71143  21841504.3094   21841499.9144
      3619.9074
 -20846872.08649 -16223991.94547  19378030.6214   19378027.8794
       807.3284
 04  9  3 16 59 29.9960000  0  6G 1G20G11G14G23G25
 -23618047.23049 -18389581.88346  19499568.2704   19499565.8634
      1951.1804
 -16067550.59449 -12510723.06245  20559719.2314   20559716.3444
      3466.6744
 -13809528.02049 -10738580.47345  20279908.2704   20279904.4384
      -318.9904
   8774118.09847   6834527.25442  22050214.4964   22050211.7934
     -1867.6144
  -7188886.77347  -5592086.21543  21831179.2704   21831175.3444
      3617.0774
 -20858848.61349 -16233324.30947  19375751.5824   19375748.5984
       798.4354
 04  9  3 16 59 44.9960000  0  6G 1G20G11G14G23G25
 -23647243.30949 -18412332.08246  19494012.7384   19494010.1294
      1946.4054
 -16119501.27749 -12551204.10945  20549833.5984   20549830.2894
      3463.3794
 -13804618.92249 -10734755.20745  20280842.8324   20280838.7074
      -327.2734
   8802144.59047   6856366.05942  22055547.1914   22055544.8714
     -1868.4334
  -7243103.08247  -5634332.68043  21820862.7934   21820857.9884
      3614.4214
 -20870694.53149 -16242554.90647  19373497.3794   19373494.3954
       789.7284
 04  9  3 16 59 59.9960000  0  6G 1G20G11G14G23G25
 -23676366.97749 -18435025.84846  19488470.9264   19488467.9574
      1941.5784
 -16171401.40649 -12591645.76645  20539957.4654   20539954.1844
      3460.0094
 -13799584.87149 -10730832.58245  20281800.4964   20281797.0124
      -335.6034
   8830184.19947   6878215.09842  22060883.0824   22060880.2854
     -1869.3074
  -7297278.75047  -5676547.46543  21810553.2544   21810548.4224
      3611.7114
 -20882409.10949 -16251683.15247  19371268.0904   19371265.2624
       780.9724
 04  9  3 17  0 14.9960000  0  6G 1G20G11G14G23G25
 -23705417.35549 -18457662.50046  19482942.3244   19482940.0554
      1936.6924
 -16223249.94549 -12632047.21945  20530090.9574   20530087.4814
      3456.5694
 -13794425.14849 -10726812.03545  20282782.4184   20282778.6334
      -343.9824
   8858237.62547   6900074.87942  22066221.2464   22066217.9414
     -1870.2284
  -7351412.77047  -5718729.78543  21800251.4264   21800246.2664
      3608.9354
 -20893991.51649 -16260708.40647  19369064.1064   19369061.3404
       772.1604
 04  9  3 17  0 29.9960000  0  6G 1G20G11G14G23G25
 -23734394.40249 -18480242.02046  19477428.2854   19477426.2314
      1931.8034
 -16275046.61349 -12672408.25445  20520234.2234   20520230.8204
      3453.1114
 -13789139.84449 -10722693.63345  20283788.2234   20283784.6684
      -352.3544
   8886304.84047   6921945.41042  22071562.8324   22071558.9384
     -1871.1484
  -7405504.98847  -5760879.54743  21789958.3014   21789953.2344
      3606.1484
 -20905441.68049 -16269630.61346  19366885.0904   19366882.3094
       763.3444
 04  9  3 17  0 44.9960000  0  6G 1G20G11G14G23G25
 -23763299.38349 -18502765.37946  19471928.0124   19471925.6994
      1926.9994
 -16326792.35249 -12712729.60545  20510387.3874   20510383.6994
      3449.7164
 -13783730.44549 -10718478.53545  20284817.1914   20284813.9304
      -360.6274
   8914384.53147   6943825.65642  22076905.4964   22076902.5234
     -1871.9794
  -7459556.62147  -5802997.68743  21779672.2704   21779667.1094
      3603.4424
 -20916761.02749 -16278450.89146  19364731.2704   19364728.3444
       754.6234
 04  9  3 17  0 59.9960000  0  6G 1G20G11G14G23G25
 -23792130.55549 -18525231.21946  19466441.8094   19466439.1644
      1922.0784
 -16378485.08649 -12753009.65245  20500550.5354   20500547.0434
      3446.1824
 -13778195.34449 -10714165.48845  20285870.8244   20285866.9574
      -369.0074
   8942478.28547   6965716.85242  22082251.5824   22082249.5314
     -1872.9174
  -7513565.74647  -5845082.68743  21769394.4964   21769389.6414
      3600.6084
 -20927947.78549 -16287167.85247  19362602.4024   19362599.1604
       745.7844
 04  9  3 17  1 14.9960000  0  6G 1G20G11G14G23G25
 -23820887.54349 -18547639.25846  19460969.2074   19460966.7154
      1917.1334
 -16430124.25849 -12793247.95345  20490723.8014   20490720.3564
      3442.6114
 -13772534.38349 -10709754.36345  20286947.8874   20286944.5044
      -377.3974
   8970586.55147   6987619.37142  22087601.0984   22087597.8674
     -1873.8844
  -7567531.86347  -5887134.20343  21759125.3014   21759120.9734
      3597.7414
 -20939001.64849 -16295781.25047  19360498.9884   19360495.6524
       736.9244
 04  9  3 17  1 29.9960000  0  6G 1G20G11G14G23G25
 -23849571.93449 -18569990.72347  19455510.7544   19455508.1804
      1912.2934
 -16481711.02749 -12833445.43045  20480907.2704   20480903.7034
      3439.1184
 -13766749.23449 -10705246.46945  20288049.0204   20288044.8014
      -385.6774
   8998707.67247   7009531.89542  22092951.6064   22092949.0634
     -1874.7414
  -7621456.41847  -5929153.30943  21748863.9814   21748859.4694
      3594.9704
 -20949924.28149 -16304292.40246  19358420.3634   19358417.6374
       728.1764
 04  9  3 17  1 44.9960000  0  6G 1G20G11G14G23G25
 -23878183.44549 -18592285.40646  19450066.2624   19450063.6484
      1907.4344
 -16533245.02049 -12873601.78145  20471100.6524   20471097.0394
      3435.5994
 -13760839.87149 -10700641.78145  20289173.2464   20289169.6994
      -393.9584
   9026841.75847   7031454.54342  22098305.7384   22098303.4494
     -1875.6064
  -7675339.09848  -5971139.79343  21738610.7314   21738605.6454
      3592.1794
 -20960715.38349 -16312701.05947  19356367.0124   19356364.1644
       719.4074
 04  9  3 17  1 59.9960000  0  6G 1G20G11G14G23G25
 -23906722.05149 -18614523.27346  19444635.3404   19444632.9734
      1902.5744
 -16584725.89549 -12913716.74245  20461304.3244   20461300.7544
      3432.0584
 -13754806.29349 -10695940.30945  20290321.4964   20290317.6414
      -402.2394
   9054988.80147   7053387.26642  22103661.4574   22103659.9024
     -1876.4704
  -7729180.01648  -6013093.73843  21728365.1844   21728360.5044
      3589.3954
 -20971375.03149 -16321007.28147  19354338.5434   19354335.6484
       710.6434
 04  9  3 17  2 14.9960000  0  6G 1G20G11G14G23G25
 -23935187.79349 -18636704.37546  19439218.5904   19439216.2464
      1897.7164
 -16636153.45349 -12953790.16045  20451517.7624   20451513.9614
      3428.5044
 -13748648.59849 -10691142.12545  20291493.0984   20291489.5474
      -410.5134
   9083148.75447   7075330.06642  22109020.2384   22109018.1064
     -1877.3304
  -7782978.87148  -6055014.90643  21718127.5984   21718123.1604
      3586.5904
 -20981903.33649 -16329211.16447  19352335.0664   19352332.0664
       701.8874
 04  9  3 17  2 29.9960000  0  6G 1G20G11G14G23G25
 -23963580.18049 -18658828.30947  19433815.7854   19433813.2344
      1892.8264
 -16687526.93749 -12993821.44145  20441741.5824   20441738.1804
      3424.8994
 -13742366.63349 -10686247.09445  20292688.4264   20292684.8954
      -418.7984
   9111321.89147   7097283.14842  22114381.6604   22114380.0474
     -1878.2094
  -7836735.13748  -6096902.87943  21707898.0984   21707892.7424
      3583.7514
 -20992299.78949 -16337312.30547  19350356.8484   19350353.5044
       693.0974
 04  9  3 17  2 44.9960000  0  6G 1G20G11G14G23G25
 -23991899.40649 -18680895.22746  19428427.0044   19428424.3364
      1887.9484
 -16738846.17249 -13033810.44945  20431975.8714   20431972.0234
      3421.2824
 -13735960.76249 -10681255.52045  20293907.5124   20293904.0044
      -427.0584
   9139508.07047   7119246.35942  22119745.1064   22119743.5704
     -1879.0794
  -7890448.88348  -6138757.74243  21697676.6134   21697670.9574
      3580.9164
 -21002564.70749 -16345310.94547  19348403.5664   19348400.4574
       684.3284
 04  9  3 17  2 59.9960000  0  6G 1G20G11G14G23G25
 -24020146.17249 -18702905.68746  19423051.7624   19423049.3674
      1883.1184
 -16790111.59849 -13073757.53145  20422220.6524   20422216.9104
      3417.6954
 -13729431.76249 -10676168.00845  20295149.8484   20295146.5204
      -435.2674
   9167706.58647   7141219.22342  22125111.8874   22125109.3204
     -1879.9014
  -7944120.73048  -6180579.94143  21687462.9574   21687458.1174
      3578.1234
 -21012698.83249 -16353207.66446  19346475.3244   19346472.1764
       675.6084
 04  9  3 17  3 14.9960000  0  6G 1G20G11G14G23G25
 -24048319.64549 -18724859.03946  19417690.5514   19417688.1214
      1878.2324
 -16841322.17249 -13113661.86744  20412475.1764   20412472.0514
      3414.0384
 -13722779.04749 -10670984.08245  20296416.1374   20296412.9384
      -443.5144
   9195918.21947   7163202.29742  22130479.8634   22130477.9884
     -1880.7764
  -7997749.67648  -6222368.68743  21677257.7934   21677252.5434
      3575.2634
 -21022701.34049 -16361001.83246  19344571.2384   19344568.5434
       666.8344
 04  9  3 17  3 29.9960000  0  6G 1G20G11G14G23G25
 -24076422.09049 -18746757.04746  19412342.8794   19412339.9144
      1873.4964
 -16892479.84849 -13153524.97744  20402740.3714   20402736.6024
      3410.5124
 -13716005.02749 -10665705.64545  20297705.0124   20297701.4264
      -451.6014
   9224140.45347   7185193.61742  22135850.5984   22135847.9304
     -1881.4824
  -8051338.02747  -6264125.83243  21667060.5204   21667055.3874
      3572.5574
 -21032574.68449 -16368695.35246  19342692.7704   19342689.7464
       658.2234
 04  9  3 17  3 44.9960000  0  6G 1G20G11G14G23G25
 -24104452.71149 -18768599.09446  19407008.6914   19407005.6524
      1868.7084
 -16943583.46949 -13193345.98444  20393015.5824   20393012.1724
      3406.9084
 -13709109.04349 -10660332.16045  20299017.5204   20299013.8564
      -459.7324
   9252374.22747   7207193.93442  22141222.8484   22141220.8674
     -1882.2524
  -8104884.88747  -6305850.64543  21656870.6374   21656865.7774
      3569.7914
 -21042317.99649 -16376287.54346  19340838.5664   19340835.3094
       649.5544
 04  9  3 17  3 59.9960000  0  6G 1G20G11G14G23G25
 -24132410.81249 -18790384.62146  19401688.3244   19401686.2314
      1863.8734
 -16994632.25049 -13233124.23844  20383301.2704   20383297.8874
      3403.2524
 -13702090.52049 -10654863.19145  20300352.8874   20300349.7194
      -467.9024
   9280620.10547   7229203.66442  22146598.7934   22146595.5474
     -1883.0594
  -8158389.51648  -6347542.55543  21646689.2154   21646683.6684
      3566.9754
 -21051930.71549 -16383777.98047  19339009.3164   19339006.2194
       640.8484
 04  9  3 17  4 14.9950000  0  6G 1G20G11G14G23G25
 -24160294.70749 -18812112.33646  19396382.2574   19396379.4134
      1858.9264
 -17045622.64549 -13272857.00845  20373598.1324   20373594.5154
      3399.3604
 -13694950.53549 -10649299.58645  20301711.6164   20301708.5814
      -475.9994
   9308875.91447   7251221.15642  22151975.6874   22151971.9764
     -1883.7214
  -8211848.38748  -6389198.80543  21636516.3584   21636510.8944
      3563.9254
 -21061412.54349 -16391166.42247  19337205.1084   19337201.9684
       632.1224
 04  9  3 17  4 29.9950000  0  6G 1G20G11G14G23G25
 -24188108.96149 -18833785.77746  19391089.2574   19391086.9484
      1854.2844
 -17096561.94549 -13312549.97345  20363905.1244   20363901.6904
      3395.9534
 -13687689.01649 -10643641.27345  20303093.7964   20303090.7224
      -484.1014
   9337144.56347   7273248.67642  22157354.6404   22157351.7144
     -1884.5774
  -8265269.39547  -6430825.54343  21626350.6874   21626344.9094
      3561.4014
 -21070765.57049 -16398454.50447  19335425.2884   19335422.3004
       623.5354
 04  9  3 17  4 44.9950000  0  6G 1G20G11G14G23G25
 -24215852.00449 -18855403.73046  19385809.8434   19385807.4954
      1849.5364
 -17147446.80149 -13352200.49644  20354221.7414   20354218.2804
      3392.3244
 -13680306.78549 -10637888.89845  20304498.0694   20304495.2614
      -492.1494
   9365423.77747   7295284.40242  22162735.6014   22162732.4914
     -1885.2814
  -8318649.06247  -6472420.07443  21616192.6324   21616187.4014
      3558.6454
 -21079989.58649 -16405642.05147  19333669.7804   19333666.9994
       614.9344
 04  9  3 17  4 59.9950000  0  6G 1G20G11G14G23G25
 -24243523.23049 -18876965.71946  19380544.3824   19380541.9374
      1844.7484
 -17198276.33649 -13391807.91444  20344549.2574   20344545.8514
      3388.6364
 -13672803.43749 -10632042.14545  20305925.9764   20305922.9914
      -500.2234
   9393714.09047   7317328.77742  22168119.2184   22168116.1754
     -1886.0214
  -8371986.80947  -6513981.93743  21606042.6084   21606036.9954
      3555.8504
 -21089083.84049 -16412728.48847  19331939.6014   19331936.5894
       606.2844
 04  9  3 17  5 14.9950000  0  6G 1G20G11G14G23G25
 -24271121.43749 -18898470.82046  19375292.5464   19375290.5894
      1839.8804
 -17249049.05149 -13431371.06645  20334887.7884   20334883.6084
      3384.8484
 -13665178.02349 -10626100.26645  20307377.1554   20307373.7064
      -508.3614
   9422016.61747   7339382.68042  22173505.3434   22173502.6404
     -1886.8354
  -8425281.41047  -6555510.17244  21595901.5154   21595896.0074
      3552.9734
 -21098047.30149 -16419713.00047  19330233.9994   19330230.7574
       597.5644
 04  9  3 17  5 29.9950000  0  6G 1G20G11G14G23G25
 -24298646.09849 -18919918.59846  19370054.6084   19370052.4874
      1834.9774
 -17299764.10249 -13470889.28544  20325236.7884   20325233.2064
      3381.0034
 -13657430.14549 -10620062.97745  20308851.8194   20308848.6204
      -516.5254
   9450331.95347   7361446.53542  22178893.7804   22178891.1594
     -1887.6894
  -8478532.11747  -6597004.21143  21585768.1944   21585762.1794
      3550.0474
 -21106879.50849 -16426595.23847  19328553.0934   19328549.7374
       588.8144
 04  9  3 17  5 44.9950000  0  6G 1G20G11G14G23G25
 -24326098.34849 -18941309.96946  19364831.0544   19364828.5304
      1830.1504
 -17350422.39149 -13510363.27744  20315596.7104   20315593.0774
      3377.2194
 -13649561.14549 -10613931.29345  20310349.0304   20310345.7104
      -524.6004
   9478658.82447   7383519.39542  22184284.0074   22184281.1754
     -1888.4584
  -8531740.04747  -6638464.91044  21575642.8904   21575637.3664
      3547.1954
 -21115581.65249 -16433376.14147  19326896.8194   19326894.3394
       580.1434
 04  9  3 17  5 59.9950000  0  6G 1G20G11G14G23G25
 -24353478.80949 -18962645.38746  19359620.5464   19359618.3664
      1825.3644
 -17401024.27049 -13549793.29744  20305967.4374   20305964.0974
      3373.4594
 -13641571.81649 -10607705.86345  20311869.3124   20311866.0934
      -532.6224
   9506996.50047   7405600.67642  22189676.4294   22189673.6014
     -1889.1784
  -8584905.66847  -6679892.64543  21565525.5464   21565520.3864
      3544.3754
 -21124154.42649 -16440056.23047  19325266.0304   19325263.0344
       571.5184
 04  9  3 17  6 14.9950000  0  6G 1G20G11G14G23G25
 -24380786.57849 -18983924.16846  19354424.1404   19354421.3904
      1820.5184
 -17451568.53549 -13589178.44144  20296349.5544   20296345.8664
      3369.6184
 -13633461.26249 -10601385.96945  20313413.0694   20313409.6054
      -540.7044
   9535345.86347   7427691.05142  22195070.9764   22195068.7654
     -1889.9584
  -8638028.00847  -6721286.66443  21555416.5854   21555411.7694
      3541.4894
 -21132596.96549 -16446634.83647  19323659.2654   19323656.2024
       562.8364
 04  9  3 17  6 29.9950000  0  6G 1G20G11G14G23G25
 -24408021.23849 -19005145.97746  19349241.5384   19349239.0894
      1815.6444
 -17502054.52349 -13628518.17245  20286742.0074   20286738.1634
      3365.7334
 -13625229.42649 -10594971.55145  20314979.3584   20314976.1714
      -548.7894
   9563707.50447   7449791.01242  22200468.6084   22200466.1364
     -1890.7764
  -8691106.46147  -6762646.47743  21545316.2734   21545311.1364
      3538.5644
 -21140908.90649 -16453111.67646  19322077.3514   19322074.4524
       554.1294
 04  9  3 17  6 44.9950000  0  6G 1G20G11G14G23G25
 -24435183.71549 -19026311.54346  19344072.7104   19344070.3624
      1810.8324
 -17552482.75449 -13667812.88745  20277145.8824   20277142.6204
      3361.8824
 -13616877.35949 -10588463.46945  20316568.9444   20316565.5194
      -556.8044
   9592080.33647   7471899.69542  22205867.8274   22205864.6714
     -1891.5224
  -8744141.92248  -6803972.78544  21535224.1944   21535218.9054
      3535.6974
 -21149091.37549 -16459487.62946  19320520.4764   19320517.2764
       545.4984
 04  9  3 17  6 59.9950000  0  6G 1G20G11G14G23G25
 -24462274.75449 -19047421.44946  19338917.5304   19338915.0974
      1806.0694
 -17602853.73449 -13707062.98845  20267560.5074   20267557.1554
      3358.0654
 -13608405.97749 -10581862.41045  20318180.8664   20318176.9564
      -564.7594
   9620463.39847   7494016.34442  22211268.7654   22211265.9564
     -1892.2044
  -8797135.06647  -6845266.13343  21525139.9054   21525134.6364
      3532.8764
 -21157145.00849 -16465763.18447  19318987.5854   19318984.6324
       536.9094
 04  9  3 17  7 14.9950000  0  6G 1G20G11G14G23G25
 -24489292.82449 -19068474.48846  19333776.0464   19333773.4564
      1801.2054
 -17653165.62149 -13746267.04745  20257986.5854   20257983.3314
      3354.1264
 -13599813.82849 -10575167.23445  20319815.7574   20319812.2764
      -572.8104
   9648858.31347   7516142.21942  22216672.0234   22216670.4564
     -1892.9944
  -8850084.16848  -6886525.13744  21515063.9524   21515059.3394
      3529.9404
 -21165068.30549 -16471937.18447  19317479.9604   19317476.8124
       528.2204
 04  9  3 17  7 29.9950000  0  6G 1G20G11G14G23G25
 -24516238.11749 -19089470.81246  19328648.6554   19328645.9174
      1796.3534
 -17703418.40249 -13785425.05545  20248424.0074   20248420.2534
      3350.1854
 -13591101.49649 -10568378.41445  20321473.7024   20321470.1484
      -580.8224
   9677264.80547   7538277.12142  22222077.5624   22222075.4834
     -1893.7664
  -8902989.21547  -6927749.83643  21504996.6404   21504991.6014
      3527.0034
 -21172861.62149 -16478009.89546  19315996.8664   19315993.7264
       519.5544
 04  9  3 17  7 44.9950000  0  6G 1G20G11G14G23G25
 -24543112.30149 -19110411.73046  19323534.5854   19323531.6484
      1791.6124
 -17753613.42648 -13824538.06245  20238871.9054   20238868.8124
      3346.3354
 -13582270.77349 -10561497.34445  20323154.1714   20323151.0304
      -588.7154
   9705681.20347   7560419.76242  22227485.5074   22227482.4094
     -1894.4274
  -8955852.04747  -6968941.64844  21494936.8584   21494931.5584
      3524.1894
 -21180526.64549 -16483982.64146  19314538.2804   19314535.4764
       511.0024
 04  9  3 17  7 59.9950000  0  6G 1G20G11G14G23G25
 -24569912.86749 -19131295.29347  19318434.5934   19318432.1244
      1786.7044
 -17803747.90249 -13863603.87945  20229331.9134   20229328.6014
      3342.2984
 -13573319.14549 -10554522.05945  20324857.7024   20324854.7184
      -596.7754
   9734109.93847   7582571.98442  22232894.9994   22232892.8004
     -1895.2494
  -9008670.04747  -7010098.51244  21484885.6794   21484881.0854
      3521.2004
 -21188061.03549 -16489853.59846  19313104.4994   19313101.4334
       502.2934
 04  9  3 17  8 14.9950000  0  6G 1G20G11G14G23G25
 -24596640.83249 -19152122.27346  19313348.4684   19313345.9374
      1781.8644
 -17853822.51249 -13902623.04745  20219802.8984   20219799.6674
      3338.3074
 -13564247.91049 -10547453.57445  20326583.6554   20326580.7884
      -604.7494
   9762549.93447   7604733.00042  22238307.0624   22238304.5034
     -1896.0004
  -9061444.10248  -7051221.12944  21474843.2334   21474838.6284
      3518.2704
 -21195465.89549 -16495623.62146  19311695.3194   19311692.5384
       493.6574
 04  9  3 17  8 29.9950000  0  6G 1G20G11G14G23G25
 -24623296.18449 -19172892.68446  19308275.8434   19308273.4254
      1777.0234
 -17903837.03549 -13941595.39545  20210285.5774   20210282.5234
      3334.3024
 -13555057.23449 -10540292.03145  20328332.7884   20328329.5154
      -612.7124
   9791001.03547   7626902.65242  22243720.7964   22243718.1514
     -1896.7404
  -9114174.06647  -7092309.38744  21464809.1714   21464804.3744
      3515.3314
 -21202741.25849 -16501292.73047  19310310.8514   19310307.7614
       485.0244
